     2.11           OBSERVATION DATA    G (GPS)             RINEX VERSION / TYPE
teqc 2010Oct21 OPUS Account 20111026 21:40:28UTC            PGM / RUN BY / DATE
L 1524                                                      MARKER NAME
1215                                                        MARKER NUMBER
CSMIDDLETON NGS                                             OBSERVER / AGENCY
0220320152 TRIMBLE 5700 2.01                                REC # / TYPE / VERS
12214372 TRM41249.00 NONE                                   ANT # / TYPE
  -759078.0149 -5529977.1946  3075863.4257                  APPROX POSITION XYZ
        2.0000        0.0000        0.0000                  ANTENNA: DELTA H/E/N
     1     1                                                WAVELENGTH FACT L1/2
     5    L1    L2    C1    P1    P2                        # / TYPES OF OBSERV
    15                                                      LEAP SECONDS
  2011     8    12    18    29    0.0000000     GPS         TIME OF FIRST OBS
                                                            END OF HEADER
 11  8 12 18 29  0.0000000  0  7G07G08G11G13G19G24G28
   -244997.59458   -188041.96157  20411153.8594                   20411151.5164
   -501477.92258   -374937.91056  21262865.7504                   21262863.8054
   -411239.67657   -308276.78155  22014695.5004                   22014693.4694
    416013.07457    303371.73455  22254871.5474                   22254871.6024
    320574.23057    232289.23455  22343561.9384                   22343557.9024
   -533421.47757   -399939.83254  23351564.3284                   23351564.8284
   -327903.21557   -246819.22355  22599237.8054                   22599235.5434
 11  8 12 18 29 30.0000000  0  8G07G08G11G13G23G19G24G28
   -288842.74248   -222207.03547  20402810.6644                   20402807.9024
   -591490.65648   -445077.70346  21245736.9844                   21245735.0864
   -484255.41447   -365172.14845  22000801.5474                   22000799.1844
    490963.68447    361774.68045  22269134.7814                   22269133.9344
    167286.71956    115882.73453  24324216.5314                   24324216.3754
    378538.22347    277455.95345  22354591.6414                   22354587.6604
   -629448.87947   -474766.34444  23333290.5004                   23333291.2814
   -386933.92647   -292817.18045  22588004.4774                   22588001.8524
 11  8 12 18 30  0.0000000  0  8G07G08G11G13G23G19G24G28
   -332451.02348   -256187.53147  20394512.1334                   20394509.4694
   -681449.38748   -515175.41846  21228618.2814                   21228616.1334
   -556965.83247   -421829.60245  21986964.5004                   21986962.4924
    566046.76647    420280.85245  22283422.8134                   22283421.3954
    256078.85246    185071.06643  24341113.3984                   24341113.1414
    436728.98847    322799.37545  22365665.1174                   22365660.8714
   -725442.74647   -549566.70744  23315023.2584                   23315024.9614
   -445960.11347   -338811.59845  22576772.7424                   22576769.6604
 11  8 12 18 30 30.0000000  0  8G07G08G11G13G23G19G24G28
   -375791.37548   -289959.25447  20386264.9384                   20386261.9344
   -771322.59048   -585206.49246  21211516.0234                   21211513.9494
   -629339.14847   -478224.39145  21973192.9224                   21973190.4304
    641288.79747    478910.89845  22297740.3914                   22297739.3444
    344763.86746    254175.93843  24357990.1644                   24357989.6174
    495173.11747    368340.23045  22376786.7194                   22376782.6684
   -821370.34847   -624315.43444  23296769.3754                   23296770.4344
   -504953.06647   -384780.11745  22565546.0314                   22565543.6724
 11  8 12 18 31  0.0000000  0  8G07G08G11G13G23G19G24G28
   -418844.59448   -323507.23847  20378072.1094                   20378069.1134
   -861090.62147   -655155.61746  21194433.6484                   21194431.4024
   -701355.40247   -534340.93745  21959488.6644                   21959486.0784
    716704.01247    537675.88345  22312091.9064                   22312090.4024
    433356.77046    323209.12143  24374848.5634                   24374848.0514
    553885.04747    414089.75045  22387959.7344                   22387955.9804
   -917210.94947   -698996.37944  23278531.1644                   23278532.8164
   -563896.29747   -430709.90645  22554330.0164                   22554326.8094
 11  8 12 18 31 30.0000000  0  9G17G07G08G11G13G23G19G24G28
   -201659.77756   -131758.63354  24375891.2274                   24375893.1414
   -461601.88748   -356824.63747  20369935.8984                   20369932.8364
   -950744.17248   -725015.53146  21177373.2664                   21177371.0044
   -773005.00047   -590171.77745  21945853.5784                   21945851.6094
    792296.27747    596578.83645  22326476.6094                   22326475.4534
    521861.46946    392173.51243  24391690.7034                   24391690.5704
    612869.15247    460051.35245  22399183.7034                   22399179.8444
  -1012954.68447   -773601.87544  23260311.5554                   23260313.0004
   -622783.83647   -476596.28145  22543123.7504                   22543121.5984
 11  8 12 18 32  0.0000000  0  9G17G07G08G11G13G23G19G24G28
   -331211.66446   -232708.07444  24351239.0634                   24351240.3364
   -504056.12148   -389905.87947  20361857.0944                   20361854.3914
  -1040275.59047   -794780.27046  21160336.1174                   21160334.3324
   -844280.14147   -645710.83645  21932290.6564                   21932288.3054
    868068.21147    655621.77345  22340895.6484                   22340894.8714
    610281.14846    461071.63343  24408516.3134                   24408516.9064
    672128.16447    506227.16445  22410460.3754                   22410456.2734
  -1108592.90647   -848125.13744  23242112.2424                   23242113.1454
   -681611.00447   -522435.62545  22531929.3364                   22531926.4494
 11  8 12 18 32 30.0000000  0  9G17G07G08G11G13G23G19G24G28
   -460689.53546   -333599.84044  24326599.9844                   24326601.6764
   -546196.12548   -422742.26247  20353838.1094                   20353834.9494
  -1129673.34847   -864440.86346  21143324.1954                   21143321.8284
   -915168.96947   -700948.86345  21918800.9144                   21918798.7034
    944025.69547    714809.31345  22355350.0784                   22355348.8834
    698622.31646    529908.55143  24425326.9844                   24425328.0124
    731668.41047    552622.11745  22421790.6334                   22421787.1334
  -1204113.15647   -922556.43744  23223935.0084                   23223936.8914
   -740369.72747   -568221.62945  22520747.6644                   22520745.5004
 11  8 12 18 33  0.0000000  0  9G17G07G08G11G13G23G19G24G28
   -590085.60246   -434427.87144  24301976.6254                   24301978.1914
   -588014.56648   -455328.08247  20345880.2114                   20345877.4924
  -1218929.16048   -933990.85546  21126339.4694                   21126337.1954
   -985663.33247   -755879.52045  21905386.2344                   21905384.2854
   1020171.72347    774143.75045  22369840.5944                   22369839.3984
    786888.11346    598686.75443  24442123.4774                   24442124.5514
    791492.74247    599238.42245  22433175.0234                   22433171.0904
  -1299506.60947   -996888.95744  23205782.3284                   23205784.1684
   -799054.59847   -613950.09445  22509580.6334                   22509577.8524
 11  8 12 18 33 30.0000000  0  8G17G07G08G11G13G19G24G28
   -719399.92646   -535192.18744  24277368.2584                   24277370.2074
   -629511.81647   -487663.62147  20337983.5634                   20337980.8364
  -1308042.87948  -1003430.11346  21109381.4614                   21109379.2734
  -1055763.21947   -810502.78545  21892046.8754                   21892044.4804
   1096501.32847    833621.24645  22384365.0554                   22384364.3594
    851595.94147    646072.03545  22444612.3754                   22444608.5314
  -1394772.34047  -1071121.92244  23187654.4774                   23187655.3834
   -857669.01647   -659623.65645  22498426.6804                   22498424.2974
 11  8 12 18 34  0.0000000  0  8G17G07G08G11G13G19G24G28
   -848622.38746   -635884.93744  24252778.6094                   24252779.7894
   -670677.95748   -519741.14847  20330149.9144                   20330147.2274
  -1397004.05148  -1072750.50846  21092452.4144                   21092450.6094
  -1125457.83247   -864810.25045  21878784.3444                   21878781.8484
   1173019.07447    893245.33645  22398926.0554                   22398925.2704
    911983.75847    693127.41445  22456103.7814                   22456099.9574
  -1489899.13747  -1145246.66444  23169551.8834                   23169553.4884
   -916206.00447   -705236.88745  22487287.2424                   22487284.7304
 11  8 12 18 34 30.0000000  0  8G17G07G08G11G13G19G24G28
   -977742.54346   -736497.96944  24228206.9064                   24228208.6954
   -711502.90648   -551552.81247  20322381.3204                   20322378.4884
  -1485802.21148  -1141943.87146  21075555.1484                   21075552.8484
  -1194736.47347   -918793.59045  21865600.9454                   21865598.6454
   1249730.50047    953020.35545  22413523.6804                   22413523.3524
    972661.94147    740409.07045  22467650.6254                   22467646.8134
  -1584875.53547  -1219254.19943  23151478.7274                   23151479.5394
   -974657.63347   -750783.60545  22476164.1724                   22476162.0704
 11  8 12 18 35  0.0000000  0  8G17G07G08G11G13G19G24G28
  -1106755.87146   -837027.74644  24203657.2274                   24203658.8444
   -751982.72748   -583095.55147  20314678.2974                   20314675.7114
  -1574432.38747  -1211006.34046  21058689.1804                   21058686.8444
  -1263594.32447   -972449.03945  21852497.7114                   21852495.4774
   1326634.98447   1012945.80944  22428158.6254                   22428157.4964
   1033629.92647    787916.53145  22479252.0944                   22479248.5514
  -1679695.83247  -1293140.11344  23133435.3364                   23133435.8284
  -1033022.34047   -796262.58645  22465057.5634                   22465055.5904
 11  8 12 18 35 30.0000000  0  8G17G07G08G11G13G19G24G28
  -1235661.63746   -937473.71144  24179127.5084                   24179128.5084
   -792117.14548   -614369.13747  20307040.7194                   20307038.0744
  -1662894.27348  -1279937.68046  21041855.4384                   21041853.4064
  -1332030.88348  -1025776.21145  21839474.7424                   21839472.5394
   1403727.53147   1073017.77744  22442828.6254                   22442827.8364
   1094883.06347    835646.19545  22490908.2194                   22490904.8364
  -1774358.73047  -1366903.38744  23115421.2814                   23115422.0984
  -1091302.86347   -841675.97745  22453967.2194                   22453964.5984
 11  8 12 18 36  0.0000000  0  8G17G07G08G11G13G19G24G28
  -1364457.43446  -1037833.98044  24154617.3594                   24154619.3404
   -831903.50048   -645371.51247  20299469.7344                   20299466.7464
  -1751184.38348  -1348735.16846  21025054.4694                   21025052.2034
  -1400042.76247  -1078772.45745  21826532.4144                   21826530.5594
   1481006.47747   1133235.02044  22457534.2274                   22457533.8284
   1156419.43047    883596.55945  22502618.3834                   22502615.0084
  -1868860.09447  -1440540.74644  23097438.0394                   23097439.0474
  -1149498.79747   -887023.44545  22442893.5314                   22442890.8134
 11  8 12 18 36 30.0000000  0  9G17G07G08G11G13G26G19G24G28
  -1493147.39546  -1138111.78144  24130128.8284                   24130130.7664
   -871346.52348   -676106.34447  20291963.4844                   20291961.3244
  -1839306.72348  -1417401.92246  21008285.3204                   21008283.3834
  -1467634.02747  -1131440.95745  21813670.5394                   21813668.1564
   1558462.32047   1193590.07445  22472273.8754                   22472273.9024
   -208249.19956   -152784.38753  24183767.8444                   24183768.9264
   1218229.96147    931760.56345  22514380.6254                   22514376.8794
  -1963203.08247  -1514054.71944  23079485.6644                   23079485.7734
  -1207617.94147   -932311.08245  22431833.3524                   22431830.6564
 11  8 12 18 37  0.0000000  0  9G17G07G08G11G13G26G19G24G28
  -1621738.85546  -1238312.85544  24105658.5474                   24105659.7974
   -910454.30948   -706579.96947  20284522.2734                   20284519.3524
  -1927268.59847  -1485943.63746  20991546.7114                   20991544.9224
  -1534811.83647  -1183787.27045  21800886.4844                   21800884.5784
   1636082.08247   1254072.86744  22487044.9304                   22487044.1564
   -323378.64846   -242495.57044  24161860.6724                   24161861.0164
   1280302.26647    980128.54345  22526192.3984                   22526188.8444
  -2057394.29747  -1587450.44144  23061561.6334                   23061561.7194
  -1265670.53147   -977546.85245  22420786.4064                   22420783.9304
 11  8 12 18 37 30.0000000  0  9G17G07G08G11G13G26G19G24G28
  -1750231.95746  -1338437.24644  24081207.5314                   24081208.6844
   -949227.14148   -736792.58247  20277143.8524                   20277141.4884
  -2015069.59848  -1554360.00046  20974838.6334                   20974836.5744
  -1601576.09847  -1235811.34845  21788181.8054                   21788179.7034
   1713860.85947   1314679.57045  22501845.8524                   22501845.4064
   -438179.24647   -331950.50443  24140014.1174                   24140014.6604
   1342631.44947   1028696.69545  22538053.1254                   22538049.6804
  -2151432.54347  -1660726.94144  23043666.5864                   23043666.7194
  -1323659.39847  -1022732.97345  22409751.5784                   22409749.0354
 11  8 12 18 38  0.0000000  0  9G17G07G08G11G13G26G19G24G28
  -1878620.40646  -1438480.08644  24056775.8834                   24056776.9024
   -987659.10548   -766739.58247  20269830.6254                   20269827.9774
  -2102703.26648  -1622645.97746  20958162.4694                   20958160.6604
  -1667920.08248  -1287507.93445  21775557.2894                   21775554.9384
   1791799.77047   1375411.04744  22516676.7894                   22516676.6644
   -552644.06646   -421143.80943  24118232.0234                   24118231.9884
   1405218.98847   1077466.15645  22549962.9304                   22549960.0274
  -2245310.46947  -1733878.53544  23025801.7814                   23025802.5474
  -1381581.03147  -1067866.71945  22398729.4224                   22398726.4924
 11  8 12 18 38 30.0000000  0  9G17G07G08G11G13G26G19G24G28
  -2006898.37546  -1538436.81244  24032364.9774                   24032366.5084
  -1025744.59048   -796416.60547  20262583.2664                   20262580.5864
  -2190163.49248  -1690796.79746  20941519.4614                   20941517.4614
  -1733837.94147  -1338872.48445  21763013.3284                   21763010.9184
   1869900.10247   1436268.31644  22531539.1954                   22531538.6334
   -666766.28546   -510070.14843  24096516.0314                   24096516.2344
   1468065.77747   1126437.63345  22561923.0084                   22561919.6214
  -2339021.07047  -1806899.72744  23007968.9534                   23007969.9534
  -1439432.62947  -1112945.87545  22387720.4534                   22387717.9774
 11  8 12 18 39  0.0000000  0  9G17G07G08G11G13G26G19G24G28
  -2135064.75846  -1638306.61344  24007975.0394                   24007977.7424
  -1063483.00848   -825823.17647  20255401.6254                   20255399.1134
  -2277448.38348  -1758811.00846  20924909.6174                   20924907.6604
  -1799328.28547  -1389903.89145  21750550.8204                   21750548.6294
   1948157.07447   1497247.64144  22546431.0004                   22546430.2814
   -780544.10546   -598728.13743  24074864.2584                   24074864.7034
   1531168.10547   1175608.23445  22573931.0394                   22573927.5234
  -2432562.48047  -1879789.09444  22990169.1414                   22990169.0164
  -1497216.08247  -1157971.93445  22376724.3834                   22376722.2774
 11  8 12 18 39 30.0000000  0  9G17G07G08G11G13G26G19G24G28
  -2263116.07046  -1738086.72744  23983608.3364                   23983609.4184
  -1100871.05148   -854956.72747  20248287.2034                   20248284.5474
  -2364554.23048  -1826685.69546  20908333.8594                   20908331.6094
  -1864387.36347  -1440599.27045  21738170.2194                   21738168.1484
   2026569.60547   1558348.18044  22561352.2424                   22561351.9964
   -893973.60546   -687114.71943  24053279.5864                   24053279.8204
   1594524.96547   1224977.18445  22585987.0784                   22585984.0594
  -2525929.80547  -1952542.80544  22972401.1024                   22972402.5234
  -1554930.59047  -1202944.27345  22365742.1334                   22365739.7934
 11  8 12 18 40  0.0000000  0  9G17G07G08G11G13G26G19G24G28
  -2391048.12946  -1837773.92644  23959263.3914                   23959265.2194
  -1137905.24648   -883814.55547  20241239.6024                   20241236.9844
  -2451476.96548  -1894417.69146  20891792.8364                   20891791.3284
  -1929010.74247  -1490955.12145  21725873.0394                   21725870.9384
   2105136.59847   1619569.05944  22576303.3984                   22576302.9414
  -1007049.60246   -775225.81243  24031762.1024                   24031762.3324
   1658135.28547   1274543.62145  22598091.8594                   22598088.5904
  -2619118.18747  -2025157.08644  22954668.6884                   22954669.7854
  -1612574.84447  -1247861.85945  22354772.9694                   22354770.0594
 11  8 12 18 40 30.0000000  0  9G17G07G08G11G13G26G19G24G28
  -2518859.69946  -1937367.22744  23934941.5864                   23934942.7424
  -1174584.62548   -912395.90647  20234259.6564                   20234257.1844
  -2538214.55148  -1962005.41846  20875287.8204                   20875285.6174
  -1993197.32447  -1540970.62145  21713658.8834                   21713656.5234
   2183854.03147   1680907.17644  22591282.9924                   22591282.4574
  -1119769.99646   -863059.80943  24010311.0084                   24010311.7894
   1721995.50447   1324304.80145  22610244.2974                   22610240.7384
  -2712125.12947  -2097629.97344  22936969.2504                   22936970.5354
  -1670150.86747  -1292726.29345  22343816.2504                   22343813.9384
 11  8 12 18 41  0.0000000  0  9G17G07G08G11G13G26G19G24G28
  -2646550.08246  -2036866.09844  23910643.3364                   23910644.3404
  -1210909.00848   -940700.64147  20227347.6414                   20227344.8324
  -2624766.28147  -2029448.33246  20858817.3674                   20858815.3484
  -2056946.35247  -1590645.17645  21701527.9064                   21701525.4924
   2262717.55547   1742359.12944  22606290.4774                   22606290.0204
  -1232133.58646   -950615.77743  23988929.6024                   23988929.8484
   1786101.76647   1374257.71545  22622442.8054                   22622439.8754
  -2804948.92647  -2169960.16044  22919305.9924                   22919306.4734
  -1727660.60547  -1337539.07045  22332872.4844                   22332870.0664
 11  8 12 18 41 30.0000000  0  9G17G07G08G11G13G26G19G24G28
  -2774116.41446  -2136268.33244  23886367.5314                   23886369.3324
  -1246875.55948   -968726.54747  20220503.2974                   20220500.8954
  -2711128.48447  -2096743.55146  20842383.0084                   20842380.9454
  -2120254.18747  -1639975.94145  21689480.5234                   21689478.0864
   2341725.23847   1803923.39544  22621325.4304                   22621324.5274
  -1344136.43446  -1037890.69143  23967615.3984                   23967615.3834
   1850451.99647   1424400.71545  22634688.9774                   22634685.6294
  -2897585.17247  -2242144.19544  22901677.3834                   22901678.2664
  -1785103.56647  -1382299.80945  22321941.5634                   22321938.7664
 11  8 12 18 42  0.0000000  0  9G17G07G08G11G13G26G19G24G28
  -2901556.35546  -2235572.06244  23862116.1414                   23862117.6024
  -1282482.65248   -996472.35947  20213727.5234                   20213724.7424
  -2797298.70747  -2163889.17646  20825985.1414                   20825983.3404
  -2183118.85547  -1688961.37945  21677517.9774                   21677515.4344
   2420874.48047   1865597.98844  22636387.0784                   22636386.4384
  -1455775.66846  -1124882.23842  23946371.5634                   23946370.6764
   1915043.48447   1474731.72745  22646980.0944                   22646976.4774
  -2990030.97347  -2314179.84044  22884085.9694                   22884086.6374
  -1842480.84847  -1427009.36745  22311022.7114                   22311020.3524
 11  8 12 18 42 30.0000000  0  9G17G07G08G11G13G26G19G24G28
  -3028868.28547  -2334776.06244  23837890.1414                   23837891.3244
  -1317729.00848  -1023937.07047  20207020.4774                   20207017.5204
  -2883274.53947  -2230883.33246  20809624.6024                   20809622.7424
  -2245538.30548  -1737599.88745  21665639.8914                   21665637.0554
   2500161.59047   1927379.99644  22651474.8834                   22651474.0164
  -1567048.84046  -1211588.54743  23925196.5314                   23925196.9844
   1979873.17647   1525248.34845  22659316.9844                   22659312.8444
  -3082283.36747  -2386064.78544  22866530.2584                   22866531.9064
  -1899793.47347  -1471668.55145  22300116.8204                   22300114.0084
 11  8 12 18 43  0.0000000  0  9G17G07G08G11G13G26G19G24G28
  -3156048.60947  -2433877.50044  23813687.9694                   23813689.5274
  -1352611.28948  -1051118.08247  20200382.5864                   20200379.9924
  -2969052.04748  -2297722.96146  20793302.0634                   20793299.7854
  -2307509.01247  -1785888.73845  21653847.1024                   21653844.7894
   2579585.07047   1989268.25844  22666588.3054                   22666587.8404
  -1677951.28146  -1298005.96143  23904092.5864                   23904092.1914
   2044940.01247   1575949.74645  22671698.6954                   22671694.9804
  -3174337.50047  -2457795.22344  22849013.3134                   22849014.0044
  -1957040.66447  -1516276.73445  22289222.8914                   22289220.1644
 11  8 12 18 43 30.0000000  0  9G17G07G08G11G13G26G19G24G28
  -3283095.48846  -2532874.95744  23789511.6174                   23789513.9064
  -1387128.17248  -1078014.37547  20193814.5004                   20193811.5434
  -3054629.21948  -2364406.46546  20777016.8444                   20777014.9694
  -2369029.14847  -1833826.49245  21642139.9534                   21642137.8524
   2659141.85547   2051260.40644  22681727.7504                   22681727.3634
  -1788480.81646  -1384132.84043  23883060.1094                   23883059.8054
   2110240.84847   1626833.47745  22684124.9224                   22684121.3244
  -3266190.68047  -2529369.08244  22831534.2504                   22831535.2814
  -2014223.74647  -1560834.95745  22278341.0314                   22278338.7504
 11  8 12 18 44  0.0000000  0  9G17G07G08G11G13G26G19G24G28
  -3410006.63747  -2631766.64144  23765361.0864                   23765362.7664
  -1421277.93448  -1104624.59847  20187316.0234                   20187312.8484
  -3140003.46548  -2430931.85546  20760770.7034                   20760768.7584
  -2430096.21948  -1881411.19545  21630519.7424                   21630517.1414
   2738829.10947   2113354.20744  22696892.4534                   22696891.5744
  -1898634.32446  -1469966.66843  23862098.5004                   23862098.0904
   2175773.05947   1677897.49245  22696594.8984                   22696591.3794
  -3357839.22747  -2600783.47344  22814094.0784                   22814095.0314
  -2071342.90247  -1605343.38345  22267471.8054                   22267468.9494
 11  8 12 18 44 30.0000000  0  9G17G07G08G11G13G26G19G24G28
  -3536780.14547  -2730551.06644  23741237.5394                   23741238.7504
  -1455058.96148  -1130947.49247  20180887.4694                   20180884.6564
  -3225172.17647  -2497297.09446  20744563.7034                   20744561.6374
  -2490708.23847  -1928641.32045  21618985.2584                   21618983.0474
   2818643.56347   2175547.12144  22712080.7664                   22712080.2114
  -2008409.56246  -1555505.74643  23841208.9384                   23841208.6954
   2241534.13747   1729139.85945  22709109.0004                   22709105.5944
  -3449280.56647  -2672036.41444  22796693.1644                   22796694.5234
  -2128398.98847  -1649802.66845  22256614.1414                   22256611.8834
 11  8 12 18 45  0.0000000  0  9G17G07G08G11G13G26G19G24G28
  -3663414.12947  -2829226.79744  23717139.0164                   23717140.3874
  -1488469.68448  -1156981.84447  20174529.7344                   20174527.0514
  -3310132.93048  -2563500.27746  20728396.1484                   20728394.5164
  -2550863.29347  -1975515.36745  21607538.3134                   21607535.7704
   2898582.34447   2237836.91444  22727292.2974                   22727292.3134
  -2117803.46547  -1640747.68443  23820391.5554                   23820392.1334
   2307521.02747   1780558.16445  22721666.1334                   22721662.6094
  -3540511.43047  -2743125.33644  22779332.6484                   22779333.6804
  -2185393.18047  -1694213.71945  22245768.6024                   22245766.1024
 11  8 12 18 45 30.0000000  0  9G17G07G08G11G13G26G19G24G28
  -3789907.07046  -2927792.60244  23693068.3054                   23693069.8874
  -1521509.50848  -1182727.17647  20168242.5554                   20168239.7114
  -3394884.05948  -2629540.12546  20712268.6724                   20712266.5164
  -2610560.17247  -2022032.38745  21596178.3754                   21596175.8404
   2978641.59447   2300220.58244  22742527.3984                   22742527.1604
  -2226814.07447  -1725690.94543  23799647.7814                   23799647.5554
   2373730.34847   1832149.80145  22734265.4064                   22734261.7584
  -3631529.46147  -2814048.41844  22762012.3594                   22762013.4414
  -2242327.00447  -1738577.73445  22234934.8594                   22234932.2504
 11  8 12 18 46  0.0000000  0  9G17G07G08G11G13G26G19G24G28
  -3916258.39547  -3026248.05544  23669024.3134                   23669026.1294
  -1554177.69948  -1208182.92247  20162025.7274                   20162023.1254
  -3479423.84048  -2695415.28146  20696181.3834                   20696179.1454
  -2669797.64847  -2068191.44545  21584905.9614                   21584903.5234
   3058817.28147   2362694.96144  22757784.2814                   22757784.5514
  -2335439.70347  -1810334.24644  23778976.4844                   23778976.9534
   2440158.17647   1883911.69545  22746906.0474                   22746902.8634
  -3722332.39847  -2884803.89844  22744732.8054                   22744733.7974
  -2299202.01647  -1782895.92645  22224111.8054                   22224109.1914
 11  8 12 18 46 30.0000000  0  9G17G07G08G11G13G26G19G24G28
  -2467040.30147  -1896987.08644  23944801.2664                   23944802.6484
    -11050.32448     -5746.02747  20455673.3674                   20455670.6024
  -1988325.57448  -1533520.52346  20979927.8204                   20979925.9384
  -1153150.46147   -886388.41845  21873514.0634                   21873511.4804
   4714525.28547   3652856.86744  23072854.9454                   23072855.2304
   -868252.72347   -667071.59844  24058172.8364                   24058173.6804
   4082220.81347   3163440.96945  23059380.5084                   23059376.7114
  -2237492.92247  -1727786.05944  23027288.8674                   23027289.6334
   -780595.83247   -599566.42645  22513092.5704                   22513090.4064
 11  8 12 18 47  0.0000000  0  9G17G07G08G11G13G26G19G24G28
  -2593101.02047  -1995216.10244  23920812.5784                   23920813.8484
    -42969.89148    -30618.43747  20449598.9534                   20449596.3794
  -2072434.64148  -1599060.06246  20963922.4454                   20963920.3874
  -1211462.38347   -931826.25845  21862417.5704                   21862415.0864
   4794925.99647   3715506.59044  23088154.9384                   23088155.1054
   -976099.34847   -751107.90644  24037650.9774                   24037650.3714
   4149078.58247   3215537.87545  23072103.1884                   23072098.9694
  -2327855.78947  -1798198.62544  23010092.6804                   23010093.6804
   -837354.71147   -643794.12145  22502291.7194                   22502289.5474
 11  8 12 18 47 30.0000000  0  9G17G07G08G11G13G26G19G24G28
  -2719014.04347  -2093330.03544  23896852.3054                   23896853.3094
    -74513.26648    -55197.70747  20443596.6334                   20443593.9344
  -2156325.09048  -1664429.24246  20947958.7114                   20947956.7074
  -1269309.16847   -976901.64845  21851409.5394                   21851407.2544
   4875434.37147   3778240.20744  23103475.5474                   23103475.9064
  -1083553.19946   -834838.13743  24017203.1644                   24017202.4734
   4216146.58247   3267798.60945  23084865.7734                   23084861.8754
  -2417994.42246  -1868436.45344  22992940.0234                   22992941.1524
   -894057.55147   -687978.14545  22491501.4064                   22491499.2934
 11  8 12 18 48  0.0000000  0  9G17G07G08G11G13G26G19G24G28
  -2844777.95347  -2191327.78544  23872920.2664                   23872921.1174
   -105679.80148    -79483.34447  20437665.7274                   20437663.2194
  -2239995.08648  -1729626.63746  20932036.7344                   20932034.6024
  -1326689.50447  -1021613.58245  21840490.7584                   21840488.5824
   4956046.15647   3841054.40244  23118815.3914                   23118815.4884
  -1190612.13346   -918260.60543  23996829.8674                   23996830.6134
   4283421.21147   3320220.34445  23097667.5944                   23097663.8524
  -2507906.55947  -1938497.81644  22975830.1094                   22975831.1334
   -950705.62547   -732119.49245  22480721.9774                   22480719.5044
 11  8 12 18 48 30.0000000  0  9G17G07G08G11G13G26G19G24G28
  -2970390.22347  -2289207.37944  23849017.6724                   23849018.0554
   -136467.23048   -103473.56247  20431807.2584                   20431804.6174
  -2323441.76248  -1794650.01246  20916157.6724                   20916155.4264
  -1383600.96947  -1065960.16445  21829660.8524                   21829658.1724
   5036759.62547   3903947.85544  23134175.2424                   23134175.2854
  -1297272.82846  -1001372.76643  23976532.5704                   23976533.2034
   4350900.65647   3372801.67245  23110508.7194                   23110504.6334
  -2597588.33446  -2008379.62144  22958764.0004                   22958765.2974
  -1007298.83247   -776218.09045  22469952.4454                   22469949.8874
 11  8 12 18 49  0.0000000  0  9G17G07G08G11G13G26G19G24G28
  -3095847.25047  -2386965.98844  23825142.9844                   23825143.9964
   -166872.58648   -127166.06647  20426021.3524                   20426018.4774
  -2406660.60248  -1859495.87146  20900321.2584                   20900319.8484
  -1440039.98847  -1109938.59445  21818920.7974                   21818918.3204
   5117572.73047   3966918.91444  23149553.2344                   23149553.1214
  -1403530.90246  -1084171.18443  23956312.2344                   23956313.1484
   4418583.52747   3425541.52745  23123387.8674                   23123384.4844
  -2687034.83246  -2078078.18044  22941742.9534                   22941743.8134
  -1063836.57847   -820273.47745  22459193.9144                   22459191.3094
 11  8 12 18 49 30.0000000  0  9G17G07G08G11G13G26G19G24G28
  -3221148.41447  -2484603.16844  23801299.4304                   23801300.1484
   -196895.49648   -150560.55947  20420307.8524                   20420305.3594
  -2489650.81648  -1924163.57046  20884528.7194                   20884527.0474
  -1496005.91848  -1153548.39545  21808270.8754                   21808268.2814
   5198481.41447   4029964.46544  23164949.8754                   23164950.0044
  -1509385.28546  -1166655.03543  23936169.4454                   23936169.5044
   4486465.91047   3478436.83645  23136306.0394                   23136302.3874
  -2776244.50446  -2147592.16044  22924767.4224                   22924767.9414
  -1120321.03547   -864287.33645  22448445.2814                   22448443.0864
 11  8 12 18 50  0.0000000  0  9G17G07G08G11G13G26G19G24G28
  -3346292.41447  -2582117.86344  23777484.6724                   23777485.5704
   -226535.58648   -173656.75447  20414667.7974                   20414665.2504
  -2572410.37548  -1988651.53546  20868780.5004                   20868778.2814
  -1551497.51247  -1196788.57845  21797711.2424                   21797708.7344
   5279482.08247   4093081.68444  23180363.2664                   23180364.6374
  -1614833.88346  -1248822.71943  23916102.5474                   23916103.0744
   4554544.53147   3531485.06345  23149260.7974                   23149257.7154
  -2865215.27747  -2216919.98444  22907836.5084                   22907837.0984
  -1176753.49248   -908260.66845  22437706.4304                   22437704.1024
 11  8 12 18 50 30.0000000  0  9G17G07G08G11G13G26G19G24G28
  -3471277.16847  -2679508.48044  23753700.8674                   23753701.7704
   -255790.60948   -196452.89547  20409100.9384                   20409098.3054
  -2654936.32848  -2052957.48046  20853075.8524                   20853073.9884
  -1606512.64847  -1239657.50445  21787242.1334                   21787239.8554
   5360572.09847   4156268.50844  23195794.7894                   23195795.3014
  -1719873.89546  -1330672.03143  23896114.1804                   23896114.5164
   4622816.72347   3584684.11345  23162252.3054                   23162249.3244
  -2953943.36347  -2286058.70344  22890952.1484                   22890952.9184
  -1233134.12147   -952193.62545  22426977.5004                   22426975.1684
 11  8 12 18 51  0.0000000  0  9G17G07G08G11G13G26G19G24G28
  -3596102.88747  -2776775.17644  23729946.8444                   23729948.2544
   -284661.64148   -218949.82047  20403606.9304                   20403603.9804
  -2737228.87548  -2117081.54346  20837416.2504                   20837414.7034
  -1661052.09447  -1282155.76245  21776863.3914                   21776860.7234
   5441746.13747   4219520.80944  23211241.8134                   23211242.2304
  -1824504.71546  -1412202.49243  23876203.9534                   23876203.6054
   4691277.46947   3638030.10945  23175280.9844                   23175276.5554
  -3042428.04346  -2355007.76244  22874113.8524                   22874115.3134
  -1289466.33247   -996088.84445  22416257.8204                   22416255.1954
 11  8 12 18 51 30.0000000  0  9G17G07G08G11G13G26G19G24G28
  -3720765.95747  -2873915.10944  23706225.1254                   23706225.4304
   -313145.55148   -241145.09847  20398186.4224                   20398183.6994
  -2819283.71948  -2181020.38346  20821801.8674                   20821800.2934
  -1715112.03947  -1324280.38345  21766576.1724                   21766573.9304
   5523002.77347   4282837.48044  23226704.5164                   23226705.1564
  -1928722.81646  -1493411.33643  23856372.0314                   23856370.9104
   4759926.00447   3691522.42645  23188343.8594                   23188340.1844
  -3130664.68447  -2423763.52044  22857323.0704                   22857324.1684
  -1345749.29747  -1039945.71145  22405547.8594                   22405544.9694
 11  8 12 18 52  0.0000000  0  9G17G07G08G11G13G26G19G24G28
  -3845264.21547  -2970926.63744  23682533.7584                   23682534.3714
   -341240.51248   -263037.30147  20392840.1024                   20392837.5234
  -2901097.73048  -2244771.55546  20806233.0164                   20806231.2344
  -1768690.40647  -1366029.74645  21756380.6644                   21756378.1334
   5604339.39147   4346216.45744  23242182.7734                   23242183.2774
  -2032524.56647  -1574295.79343  23836619.2584                   23836618.2664
   4828759.59447   3745158.94545  23201442.6024                   23201438.6884
  -3218649.82847  -2492323.33644  22840579.8204                   22840580.9614
  -1401983.33247  -1083764.44145  22394846.6414                   22394844.0634
 11  8 12 18 52 30.0000000  0  9G17G07G08G11G13G26G19G24G28
  -3969594.31647  -3067807.11344  23658874.1094                   23658874.8204
   -368943.81248   -284624.31247  20387568.4534                   20387565.6954
  -2982666.98848  -2308332.01246  20790710.8674                   20790709.1174
  -1821784.19147  -1407401.51245  21746277.2664                   21746274.7584
   5685754.69147   4409656.78144  23257675.6334                   23257676.1174
  -2135906.30947  -1654852.96943  23816946.1094                   23816945.9184
   4897776.81346   3798938.55945  23214575.8674                   23214572.3364
  -3306379.20746  -2560683.82844  22823885.3444                   22823885.6024
  -1458167.96947  -1127544.67645  22384155.2584                   22384152.5204
 11  8 12 18 53  0.0000000  0  9G17G07G08G11G13G26G19G24G28
  -4093751.43047  -3164552.82044  23635247.3674                   23635248.5594
   -396251.32048   -305902.91447  20382371.9384                   20382369.4574
  -3063985.90648  -2371697.39846  20775236.4454                   20775234.6914
  -1874388.80547  -1448392.10245  21736266.9224                   21736264.8674
   5767248.59047   4473158.33644  23273183.6724                   23273184.1254
  -2238862.32447  -1735078.38743  23797354.6954                   23797353.5044
   4966978.16846   3852861.63344  23227744.3204                   23227741.2114
  -3393846.60246  -2628840.18744  22807241.0944                   22807242.0124
  -1514300.95747  -1171284.65645  22373472.9694                   22373470.8244
 11  8 12 18 53 30.0000000  0  9G17G07G08G11G13G26G19G24G28
  -4217736.37147  -3261164.35944  23611653.7194                   23611654.7114
   -423164.45347   -326874.21147  20377250.5474                   20377247.9534
  -3145054.87548  -2434868.01246  20759809.3914                   20759807.4344
  -1926504.87147  -1489002.00445  21726349.0004                   21726347.1524
   5848814.80147   4536716.22744  23288705.2274                   23288705.8914
  -2341393.25047  -1814972.58643  23777842.8914                   23777842.9344
   5036358.00046   3906923.79344  23240946.8984                   23240943.7304
  -3481051.89846  -2696792.32044  22790646.7894                   22790647.1374
  -1570385.44147  -1214986.85945  22362800.5944                   22362798.2584
 11  8 12 18 54  0.0000000  0  9G17G07G08G11G13G26G19G24G28
  -4341544.79747  -3357638.37144  23588094.0314                   23588094.3364
   -449678.91048   -347534.85547  20372204.8914                   20372202.8244
  -3225869.03148  -2497840.08246  20744431.0704                   20744429.1644
  -1978128.88347  -1529228.47745  21716525.5474                   21716524.0124
   5930452.91847   4600330.14544  23304240.0164                   23304241.1024
  -2443494.10547  -1894531.68743  23758414.1094                   23758413.6644
   5105916.36346   3961125.07045  23254183.8284                   23254180.6094
  -3567989.60546  -2764535.92644  22774103.0704                   22774103.7234
  -1626420.09847  -1258650.23045  22352137.6094                   22352135.0354
 11  8 12 18 54 30.0000000  0  9G17G07G08G11G13G26G19G24G28
  -4465174.70747  -3453973.27044  23564567.3284                   23564568.6024
   -475793.38348   -367883.82447  20367235.7734                   20367233.1884
  -3306425.88748  -2560611.64846  20729101.6724                   20729099.7664
  -2029258.98047  -1569070.08645  21706795.7734                   21706793.8554
   6012160.25847   4663997.97744  23319788.9534                   23319789.8554
  -2545162.34047  -1973753.67644  23739067.3524                   23739067.3834
   5175650.27746   4015463.12945  23267453.3914                   23267449.7774
  -3654656.87947  -2832068.81644  22757610.6724                   22757611.2974
  -1682405.41847  -1302275.14545  22341484.1954                   22341481.9184
 11  8 12 18 55  0.0000000  0  9G17G07G08G11G13G26G19G24G28
  -4588629.19947  -3550171.48044  23541075.1094                   23541075.9694
   -501511.59847   -387924.02047  20362342.0314                   20362339.1684
  -3386727.75448  -2623184.53946  20713820.6024                   20713818.9694
  -2079898.18448  -1608529.18445  21697159.5164                   21697157.4924
   6093928.94147   4727713.62944  23335348.9924                   23335350.2384
  -2646400.05947  -2052640.17243  23719802.3524                   23719802.4774
   5245552.34046   4069932.21144  23280755.8594                   23280752.8714
  -3741055.30946  -2899392.21944  22741169.3054                   22741170.0434
  -1738347.18048  -1345866.12145  22330838.7034                   22330836.1254
 11  8 12 18 55 30.0000000  0  9G17G07G08G11G13G26G19G24G28
  -4711901.56647  -3646227.77744  23517617.8054                   23517618.0744
   -526827.60548   -407650.80547  20357524.3134                   20357521.8134
  -3466767.05148  -2685552.81246  20698589.5234                   20698587.8484
  -2130039.77748  -1647600.54346  21687618.1884                   21687615.5084
   6175760.58247   4791478.32444  23350921.1724                   23350922.7384
  -2747200.14147  -2131185.64544  23700619.9614                   23700620.6804
   5315624.65247   4124533.96545  23294090.0554                   23294087.0594
  -3827177.09447  -2966500.04744  22724780.7424                   22724781.6604
  -1794241.11747  -1389419.82845  22320202.5084                   22320200.1134
 11  8 12 18 56  0.0000000  0  9G17G07G08G11G13G26G19G24G28
  -4834991.43747  -3742141.88344  23494194.1334                   23494194.4694
   -551741.71948   -427064.43047  20352783.2814                   20352780.7544
  -3546543.30948  -2747716.13746  20683408.8054                   20683406.8524
  -2179684.42248  -1686284.66445  21678170.5864                   21678168.4804
   6257650.39847   4855288.35244  23366504.9224                   23366505.7074
  -2847562.22747  -2209389.82044  23681522.2194                   23681522.2974
   5385862.79347   4179264.91845  23307455.6884                   23307452.6414
  -3913021.20347  -3033391.49644  22708445.0394                   22708445.9104
  -1850089.77047  -1432938.25445  22309575.1174                   22309572.3914
 11  8 12 18 56 30.0000000  0  9G17G07G08G11G13G26G19G24G28
  -4957895.60547  -3837911.27345  23470805.6174                   23470806.6254
   -576251.03548   -446162.62547  20348119.1954                   20348116.8484
  -3626052.31647  -2809671.20346  20668278.7504                   20668276.5084
  -2228828.82847  -1724578.99245  21668819.2114                   21668816.8444
   6339597.59447   4919143.10244  23382098.9224                   23382100.1914
  -2947481.88746  -2287249.25044  23662507.4304                   23662508.2114
   5456265.45746   4234124.07845  23320853.5314                   23320850.0664
  -3998582.96546  -3100062.92644  22692163.6564                   22692164.1524
  -1905892.03147  -1476420.52045  22298955.9694                   22298953.6214
 11  8 12 18 57  0.0000000  0  9G17G07G08G11G13G26G19G24G28
  -5080610.67647  -3933533.32044  23447454.0634                   23447454.4694
   -600352.67648   -464943.14147  20343532.8984                   20343530.6414
  -3705289.85248  -2871414.73446  20653200.4924                   20653198.2544
  -2277469.68747  -1762480.93445  21659563.2114                   21659560.8834
   6421600.80547   4983041.52743  23397703.9144                   23397704.5864
  -3046955.07846  -2364760.76243  23643578.7664                   23643579.3244
   5526831.79746   4289110.77044  23334280.7894                   23334278.3204
  -4083857.64547  -3166510.67644  22675935.6954                   22675937.1094
  -1961647.40247  -1519866.26245  22288346.3984                   22288343.7114
 11  8 12 18 57 30.0000000  0  9G17G07G08G11G13G26G19G24G28
  -5203137.12547  -4029008.39844  23424137.9774                   23424138.0784
   -624047.66048   -483406.79347  20339023.7504                   20339021.2544
  -3784255.80148  -2932946.64546  20638173.4844                   20638171.6804
  -2325608.27347  -1799991.50045  21650402.3914                   21650400.4384
   6503654.23447   5046979.07043  23413317.7194                   23413319.0784
  -3145982.03546  -2441924.59443  23624734.6174                   23624735.5234
   5597556.15647   4344220.58644  23347740.0004                   23347736.4224
  -4168844.86346  -3232734.42244  22659763.5634                   22659764.1174
  -2017359.06648  -1563277.93745  22277744.4774                   22277741.9574
 11  8 12 18 58  0.0000000  0  9G17G07G08G11G13G26G19G24G28
  -5325469.44147  -4124332.21544  23400858.6334                   23400859.0354
   -647331.06648   -501549.74247  20334593.1024                   20334590.8204
  -3862943.94948  -2994262.07446  20623199.6644                   20623197.9414
  -2373239.02047  -1837106.34845  21641338.5314                   21641336.6294
   6585758.75047   5110956.41443  23428941.9454                   23428943.0824
  -3244556.51646  -2518735.82043  23605975.6644                   23605977.0234
   5668440.34446   4399454.95744  23361228.8754                   23361225.8444
  -4253537.84046  -3298728.89544  22643646.7584                   22643647.3054
  -2073023.72747  -1606652.98845  22267152.1024                   22267149.5084
 11  8 12 18 58 30.0000000  0  9G17G07G08G11G13G26G19G24G28
  -5447608.33647  -4219505.30144  23377616.8834                   23377617.0004
   -670204.44548   -519373.18047  20330240.5004                   20330238.0434
  -3941354.40648  -3055361.14146  20608278.8594                   20608277.0904
  -2420363.37947  -1873826.61345  21632371.2664                   21632369.0744
   6667908.89547   5174969.29743  23444575.2894                   23444576.2934
  -3342678.80946  -2595194.70744  23587304.6954                   23587304.4534
   5739478.66047   4454809.44144  23374746.9694                   23374743.6174
  -4337936.46547  -3364493.99644  22627586.2194                   22627587.0474
  -2128645.04747  -1649994.26645  22256567.3834                   22256564.9804
 11  8 12 18 59  0.0000000  0  9G17G07G08G11G13G26G19G24G28
  -5569550.88347  -4314525.40645  23354411.6564                   23354412.0984
   -692665.31648   -536875.18447  20325966.6174                   20325964.4574
  -4019483.16048  -3116240.68746  20593411.2424                   20593409.6684
  -2466978.45348  -1910150.03145  21623500.8594                   21623498.2424
   6750102.47747   5239016.00843  23460216.2734                   23460217.1954
  -3440345.37947  -2671298.46544  23568719.5634                   23568719.5004
   5810669.80947   4510283.03544  23388294.1254                   23388291.0784
  -4422036.53146  -3430026.45744  22611582.4064                   22611582.9844
  -2184222.42647  -1693301.31245  22245991.5394                   22245988.8634
 11  8 12 18 59 30.0000000  0  9G17G07G08G11G13G26G19G24G28
  -5691298.73047  -4409393.78145  23331243.5004                   23331244.1254
   -714715.97348   -554057.54347  20321770.3054                   20321767.7274
  -4097331.41848  -3176901.67646  20578597.3284                   20578595.6024
  -2513086.36347  -1946078.26245  21614726.8054                   21614724.4344
   6832333.46947   5303091.90644  23475864.4774                   23475865.5984
  -3537557.48446  -2747048.11743  23550220.8754                   23550220.0984
   5882007.25447   4565870.62544  23401869.4454                   23401866.0084
  -4505838.59446  -3495326.71144  22595635.2274                   22595635.9454
  -2239760.02747  -1736577.34845  22235423.0704                   22235420.4694
 11  8 12 19  0  0.0000000  0  9G17G07G08G11G13G26G19G24G28
  -5812847.84047  -4504107.30544  23308113.6724                   23308114.4454
   -736353.16048   -570917.71147  20317653.0084                   20317650.5514
  -4174894.77048  -3237340.65646  20563837.4454                   20563835.5554
  -2558683.49648  -1981608.48845  21606049.6484                   21606047.5474
   6914601.12547   5367196.34444  23491519.9384                   23491521.0704
  -3634310.59047  -2822440.09444  23531809.0394                   23531808.6094
   5953490.71547   4621571.98044  23415472.1024                   23415468.3834
  -4589337.51247  -3560390.73844  22579745.8914                   22579746.8204
  -2295256.40247  -1779821.27745  22224862.4144                   22224859.9844
 11  8 12 19  0 30.0000000  0  9G17G07G08G11G13G26G19G24G28
  -5934192.87947  -4598661.80145  23285022.2734                   23285022.5984
   -757571.98048   -587451.88347  20313615.3134                   20313612.8094
  -4252166.61748  -3297552.48046  20549133.3674                   20549131.2974
  -2603765.07448  -2016736.98445  21597470.9534                   21597468.4494
   6996906.09047   5431329.88744  23507181.4694                   23507183.5664
  -3730598.76647  -2897469.81644  23513485.7664                   23513485.5744
   6025121.17647   4677387.89144  23429103.0394                   23429099.9304
  -4672526.69947  -3625213.42244  22563915.9774                   22563916.2854
  -2350708.49648  -1823030.69545  22214309.8914                   22214307.7774
 11  8 12 19  1  0.0000000  0  9G17G07G08G11G13G26G19G24G28
  -6055333.46147  -4693057.01245  23261970.3134                   23261970.1764
   -778372.49648   -603660.10247  20309657.1954                   20309654.8984
  -4329145.57448  -3357536.08246  20534484.4304                   20534482.6484
  -2648330.73848  -2051463.46545  21588990.5474                   21588987.9654
   7079243.78947   5495488.89843  23522850.6954                   23522852.0474
  -3826421.19147  -2972136.61344  23495251.8984                   23495250.9654
   6096894.94146   4733315.46144  23442761.0394                   23442757.8634
  -4755404.72347  -3689793.64544  22548144.4144                   22548144.8324
  -2406118.30948  -1866207.17245  22203765.7114                   22203763.5204
 11  8 12 19  1 30.0000000  0  9G17G07G08G11G13G26G19G24G28
  -6176268.04347  -4787291.68445  23238957.0634                   23238957.1334
   -798753.80548   -619541.67247  20305778.8524                   20305776.5124
  -4405829.63348  -3417289.89846  20519891.9534                   20519890.0594
  -2692379.68448  -2085787.30145  21580608.1804                   21580605.8594
   7161611.31647   5559671.18843  23538524.9534                   23538525.8524
  -3921775.72747  -3046438.82444  23477106.3754                   23477105.8444
   6168808.20346   4789351.71144  23456445.5234                   23456442.6914
  -4837968.97747  -3754129.38344  22532433.1174                   22532433.4144
  -2461487.12147  -1909351.69545  22193229.6334                   22193227.1684
 11  8 12 19  2  0.0000000  0  9G17G07G08G11G13G26G19G24G28
  -6296992.70347  -4881362.78945  23215983.8984                   23215983.9264
   -818713.10948   -635094.40247  20301980.5234                   20301978.1134
  -4482214.70348  -3476810.73446  20505356.6804                   20505354.5164
  -2735908.88348  -2119706.14845  21572324.6094                   21572322.6804
   7244007.44947   5623875.73843  23554204.0474                   23554205.5634
  -4016658.38347  -3120373.35244  23459050.8284                   23459050.4184
   6240861.16447   4845496.82444  23470156.8984                   23470154.2584
  -4920214.77347  -3818216.94944  22516782.3674                   22516782.7424
  -2516813.58647  -1952463.22345  22182701.2734                   22182698.8444
 11  8 12 19  2 30.0000000  0  9G17G07G08G11G13G26G19G24G28
  -6417505.82847  -4975269.04745  23193050.8284                   23193051.1134
   -838249.13348   -650317.30147  20298263.0784                   20298260.3954
  -4558298.30548  -3536096.65246  20490878.1414                   20490876.5274
  -2778916.79348  -2153218.79345  21564140.5394                   21564138.2344
   7326429.25447   5688100.30543  23569888.6484                   23569889.9384
  -4111066.76247  -3193938.28543  23441085.0394                   23441085.1024
   6313050.91846   4901748.52744  23483894.4534                   23483891.2154
  -5002139.20747  -3882054.12144  22501192.4774                   22501192.7114
  -2572098.45748  -1995542.34045  22172181.0784                   22172179.0554
 11  8 12 19  3  0.0000000  0  9G17G07G08G11G13G26G19G24G28
  -6537803.37947  -5069007.32045  23170158.8204                   23170159.4224
   -857358.42648   -665207.68447  20294626.4304                   20294624.3954
  -4634075.37148  -3595143.71546  20476458.4144                   20476456.1524
  -2821399.69148  -2186322.33646  21556056.2584                   21556053.9734
   7408876.39847   5752344.60243  23585578.2584                   23585579.6914
  -4204996.30947  -3267130.12144  23423210.7584                   23423210.6684
   6385377.37547   4958106.76244  23497657.5234                   23497654.7974
  -5083736.94147  -3945636.72344  22485664.8594                   22485665.2154
  -2627339.75447  -2038587.50445  22161668.9774                   22161666.7154
 11  8 12 19  3 30.0000000  0  9G17G07G08G11G13G26G19G24G28
  -6657881.01647  -5162574.22345  23147308.3984                   23147308.7424
   -876037.33248   -679762.70346  20291072.0474                   20291069.8794
  -4709540.53548  -3653947.74246  20462097.7814                   20462096.3054
  -2863353.71948  -2219013.78146  21548072.8284                   21548070.3244
   7491348.61747   5816608.42243  23601272.4144                   23601274.1914
  -4298442.30147  -3339945.16843  23405428.2664                   23405428.3094
   6457840.20746   5014571.25844  23511447.0314                   23511443.4804
  -5165002.32847  -4008960.32844  22470200.3594                   22470201.0864
  -2682535.44548  -2081597.12945  22151165.5084                   22151163.2034
 11  8 12 19  4  0.0000000  0  9G17G07G08G11G13G26G19G24G28
  -6777738.46947  -5255969.55145  23124500.6254                   23124500.8914
   -894286.24648   -693982.65247  20287599.3984                   20287596.9804
  -4784692.68748  -3712507.85546  20447796.7274                   20447794.8594
  -2904779.46148  -2251293.58245  21540189.5554                   21540187.4964
   7573841.65647   5880888.50843  23616971.0234                   23616972.2624
  -4391403.93747  -3412382.77343  23387738.2584                   23387738.2624
   6530435.41847   5071138.92244  23525261.6644                   23525257.9494
  -5245934.16447  -4072024.03144  22454799.7504                   22454799.9494
  -2737687.90648  -2124573.06646  22140670.2974                   22140668.0354
 11  8 12 19  4 30.0000000  0  9G17G07G08G11G13G26G19G24G28
  -6897372.78147  -5349191.02345  23101734.8364                   23101735.1254
   -912102.75848   -707865.67647  20284209.3984                   20284207.1024
  -4859528.09448  -3770821.15646  20433556.0004                   20433554.0634
  -2945674.04348  -2283159.47745  21532407.5084                   21532405.2664
   7656353.57847   5945183.28144  23632672.1804                   23632673.7814
  -4483877.68047  -3484440.21144  23370141.3834                   23370141.0864
   6603161.48046   5127808.55544  23539100.8524                   23539097.6764
  -5326528.40647  -4134824.67645  22439463.1094                   22439463.6094
  -2792796.41847  -2167514.76246  22130183.5004                   22130181.2154
 11  8 12 19  5  0.0000000  0  9G17G07G08G11G13G26G19G24G28
  -7016783.72747  -5442238.43445  23079011.3284                   23079012.4144
   -929487.83648   -721412.50847  20280901.0164                   20280898.4304
  -4934046.34848  -3828887.34046  20419375.6644                   20419373.8874
  -2986038.09848  -2314611.98445  21524726.7194                   21524724.7274
   7738879.79747   6009489.16443  23648376.4614                   23648377.8674
  -4575863.53146  -3556117.46543  23352636.8204                   23352637.1644
   6676014.48047   5184577.07044  23552964.3834                   23552961.0594
  -5406784.03147  -4197361.46944  22424190.3914                   22424191.4924
  -2847863.57447  -2210424.22745  22119704.7814                   22119702.1174
 11  8 12 19  5 30.0000000  0  9G17G07G08G11G13G26G19G24G28
  -7135966.84447  -5535108.30545  23056331.7974                   23056332.0314
   -946437.73048   -734620.24247  20277675.5004                   20277673.2704
  -5008241.98048  -3886702.11746  20405256.8674                   20405254.9024
  -3025868.12548  -2345648.36345  21517147.5234                   21517145.0394
   7821420.02046   6073805.98043  23664083.2664                   23664085.0514
  -4667356.59046  -3627410.73044  23335226.6724                   23335225.8284
   6748994.19947   5241444.35244  23566852.0314                   23566848.8954
  -5486695.43447  -4259630.03144  22408983.8984                   22408984.9884
  -2902887.21948  -2253299.78945  22109233.8134                   22109231.1644
 11  8 12 19  6  0.0000000  0  9G17G07G08G11G13G26G19G24G28
  -7254920.99647  -5627799.76645  23033695.4694                   23033695.8634
   -962951.50048   -747488.13347  20274533.2274                   20274530.7154
  -5082112.52348  -3944263.58646  20391199.7114                   20391197.7504
  -3065163.09047  -2376267.82045  21509669.4304                   21509667.5004
   7903971.29346   6138131.39843  23679792.1954                   23679794.4844
  -4758354.81246  -3698318.40643  23317910.2734                   23317909.6524
   6822097.92246   5298408.23044  23580763.3444                   23580760.3244
  -5566260.06247  -4321628.38744  22393843.7344                   22393843.8874
  -2957868.46947  -2296142.32445  22098771.4224                   22098769.1644
 11  8 12 19  6 30.0000000  0  9G17G07G08G11G13G26G19G24G28
  -7373645.32047  -5720312.14545  23011102.9694                   23011103.0354
   -979029.14148   -760016.18447  20271473.7114                   20271471.0984
  -5155656.62948  -4001570.68046  20377204.8674                   20377202.5944
  -3103922.98448  -2406470.33246  21502293.8984                   21502291.5634
   7986529.82046   6202462.45743  23695503.1024                   23695505.0204
  -4848857.19546  -3768839.71144  23300687.8054                   23300687.8444
   6895322.18846   5355466.03944  23594697.4614                   23594694.0124
  -5645476.09847  -4383355.10244  22378769.1644                   22378769.4414
  -3012808.37548  -2338952.63345  22088317.0164                   22088314.4804
 11  8 12 19  7  0.0000000  0  9G17G07G08G11G13G26G19G24G28
  -7492136.62147  -5812642.94945  22988554.5164                   22988554.9964
   -994667.84048   -772202.19947  20268497.9064                   20268495.3984
  -5228870.33248  -4058620.32046  20363272.7734                   20363270.8484
  -3142144.87948  -2436253.61345  21495020.5784                   21495018.1804
   8069094.23446   6266798.10243  23711214.1094                   23711216.8444
  -4938859.99646  -3838971.73044  23283560.7974                   23283560.7074
   6968665.91846   5412616.94544  23608654.0394                   23608651.0204
  -5724339.43447  -4444806.98845  22363762.1334                   22363762.2234
  -3067706.40247  -2381730.31646  22077870.0394                   22077867.6374
 11  8 12 19  7 30.0000000  0  9G17G07G08G11G13G26G19G24G28
  -7610391.43046  -5904789.46545  22966051.5864                   22966051.6254
  -1009865.30148   -784044.38747  20265605.6804                   20265603.3914
  -5301749.10548  -4115408.97746  20349404.3204                   20349402.2464
  -3179826.24648  -2465615.71545  21487850.3054                   21487847.7274
   8151663.50047   6331137.55143  23726927.2344                   23726928.8134
  -5028359.46146  -3908711.55544  23266529.7114                   23266529.6094
   7042128.13346   5469860.16844  23622633.3834                   23622630.5864
  -5802845.23847  -4505980.27744  22348822.8914                   22348822.5594
  -3122561.22748  -2424474.33645  22067431.3364                   22067429.0204
 11  8 12 19  8  0.0000000  0  9G17G07G08G11G13G26G19G24G28
  -7728409.77047  -5996751.71545  22943593.5004                   22943593.4534
  -1024622.25048   -795543.33647  20262797.4304                   20262794.9454
  -5374292.51648  -4171936.30546  20335599.4454                   20335597.6484
  -3216967.76648  -2494557.15245  21480782.3594                   21480779.6564
   8234232.71146   6395476.99243  23742640.1334                   23742641.5044
  -5117355.50846  -3978059.08644  23249594.3984                   23249594.4184
   7115704.50447   5527192.35244  23636634.9454                   23636631.9144
  -5880992.72747  -4566874.36344  22333951.4454                   22333951.6644
  -3177375.31247  -2467186.60945  22057000.5004                   22056998.5554
 11  8 12 19  8 30.0000000  0  9G17G07G08G11G13G26G19G24G28
  -7846190.74247  -6088529.02345  22921180.1254                   22921180.6214
  -1038938.37148   -806698.77747  20260073.3134                   20260070.9024
  -5446498.57448  -4228200.77046  20321859.5394                   20321857.4264
  -3253569.08248  -2523077.65645  21473817.3524                   21473815.0124
   8316798.09047   6459813.38343  23758351.9304                   23758353.3914
  -5205846.93746  -4047013.43444  23232754.2814                   23232755.0084
   7189392.02346   5584611.15644  23650657.0314                   23650653.8444
  -5958779.80147  -4627487.60244  22319149.4534                   22319149.2544
  -3232150.20748  -2509868.34845  22046577.2114                   22046575.0824
 11  8 12 19  9  0.0000000  0  9G17G07G08G11G13G26G19G24G28
  -7963733.72347  -6180120.85545  22898812.5784                   22898812.7234
  -1052813.68048   -817510.73047  20257433.1254                   20257430.4574
  -5518365.77348  -4284201.19546  20308183.3674                   20308181.3874
  -3289630.24648  -2551177.25845  21466955.0634                   21466952.6024
   8399356.61347   6524144.44143  23774062.0474                   23774064.2034
  -5293832.23846  -4115573.39144  23216012.2504                   23216012.1294
   7263187.41846   5642114.00844  23664699.4224                   23664696.4804
  -6036204.65647  -4687818.60244  22304415.5084                   22304415.9574
  -3286887.18048  -2552520.53146  22036161.1094                   22036158.6914
 11  8 12 19  9 30.0000000  0  9G17G07G08G11G13G26G19G24G28
  -8081036.56247  -6271525.57445  22876490.4304                   22876490.5474
  -1066246.94548   -827978.23447  20254876.8444                   20254874.3204
  -5589891.18048  -4339935.28146  20294572.7274                   20294570.8054
  -3325149.84448  -2578854.85545  21460195.9844                   21460193.5864
   8481905.53547   6588468.03143  23789771.4384                   23789772.9264
  -5381309.31247  -4183737.34044  23199365.3594                   23199365.2584
   7337088.31346   5699699.09444  23678762.3364                   23678759.6174
  -6113263.88347  -4747864.68744  22289751.9224                   22289752.0594
  -3341586.49647  -2595143.38346  22025752.1174                   22025749.6054
 11  8 12 19 10  0.0000000  0  9G17G07G08G11G13G26G19G24G28
  -8198097.69147  -6362741.94145  22854214.2814                   22854214.5434
  -1079237.45348   -838100.72747  20252404.6724                   20252402.2114
  -5661072.12148  -4395400.96146  20281027.3984                   20281025.4884
  -3360126.94948  -2606109.73045  21453540.1094                   21453537.9734
   8564441.99646   6652781.85243  23805477.5394                   23805480.6024
  -5468276.05946  -4251503.59044  23182816.1334                   23182815.8014
   7411092.16046   5757364.37144  23692845.1564                   23692841.9344
  -6189955.05947  -4807623.98845  22275157.7584                   22275158.0124
  -3396248.61748  -2637737.23045  22015349.9774                   22015347.9104
 11  8 12 19 10 30.0000000  0  9G17G07G08G11G13G26G19G24G28
  -8314914.11347  -6453767.64545  22831984.7274                   22831985.2154
  -1091783.00448   -847876.51247  20250017.2274                   20250015.0434
  -5731905.26648  -4450595.62146  20267548.1644                   20267546.2384
  -3394559.62548  -2632940.38345  21446987.2194                   21446985.2344
   8646964.35246   6717084.68843  23821181.0004                   23821183.7504
  -5554729.57046  -4318869.93044  23166364.9774                   23166364.8674
   7485197.28947   5815108.57444  23706946.7974                   23706943.6294
  -6266274.38747  -4867093.53545  22260634.6484                   22260634.9304
  -3450873.23447  -2680301.87146  22004955.7424                   22004953.7274
 11  8 12 19 11  0.0000000  0  9G17G07G08G11G13G26G19G24G28
  -8431479.66047  -6544597.84445  22809802.9694                   22809803.3444
  -1103877.93748   -857301.16047  20247716.0474                   20247713.0704
  -5802383.22348  -4505513.51246  20254136.6254                   20254135.1414
  -3428442.32048  -2659342.47745  21440539.6334                   21440537.4264
   8729474.42246   6781377.94943  23836882.2734                   23836885.1564
  -5640663.19546  -4385831.16044  23150011.9224                   23150012.4844
   7559406.06647   5872933.54744  23721068.2274                   23721065.2774
  -6342214.38347  -4926267.51244  22246184.0784                   22246184.3134
  -3505456.10248  -2722833.97345  21994568.7344                   21994566.7584
 11  8 12 19 11 30.0000000  0  9G17G07G08G11G13G26G19G24G28
  -8547794.56647  -6635232.75845  22787668.7734                   22787669.3444
  -1115523.68747   -866375.79346  20245499.7664                   20245497.2074
  -5872505.44548  -4560154.21546  20240792.9614                   20240791.0474
  -3461775.99648  -2685316.74645  21434196.6334                   21434194.3164
   8811967.39146   6845657.88343  23852580.2894                   23852583.5784
  -5726077.03947  -4452387.37144  23133758.2974                   23133758.1524
   7633714.32847   5930836.04344  23735209.1484                   23735205.6214
  -6417774.36747  -4985145.37545  22231804.9224                   22231805.3204
  -3559999.82047  -2765335.56645  21984189.8594                   21984187.4344
 11  8 12 19 12  0.0000000  0  9G17G07G08G11G13G26G19G24G28
  -8663852.50847  -6725667.42245  22765583.7194                   22765584.2704
  -1126714.27348   -875095.75847  20243370.2584                   20243367.7814
  -5942264.77748  -4614512.14146  20227518.0394                   20227516.2734
  -3494555.09848  -2710858.89545  21427958.8444                   21427956.3754
   8894445.66446   6909926.35943  23868275.7114                   23868278.7774
  -5810964.18747  -4518533.15644  23117604.8054                   23117604.9574
   7708124.45347   5988817.91844  23749368.8364                   23749365.5824
  -6492946.88347  -5043721.30945  22217500.3444                   22217500.8284
  -3614499.97348  -2807803.23046  21973818.5084                   21973815.9804
 11  8 12 19 12 30.0000000  0  9G17G07G08G11G13G26G19G24G28
  -8779653.94147  -6815902.21945  22743547.3754                   22743547.6604
  -1137451.24648   -883462.25846  20241327.0944                   20241324.3954
  -6011660.84848  -4668587.00046  20214312.6174                   20214310.9964
  -3526780.90247  -2735969.89145  21421826.2734                   21421824.1414
   8976903.77346   6974179.12143  23883967.6954                   23883970.5274
  -5895325.42247  -4584269.16044  23101551.7664                   23101551.1684
   7782631.37147   6046875.21544  23763546.5784                   23763544.3444
  -6567731.70347  -5101995.14545  22203269.0944                   22203269.8094
  -3668959.36747  -2850239.12145  21963455.3984                   21963452.9534
 11  8 12 19 13  0.0000000  0  9G17G07G08G11G13G26G19G24G28
  -8895195.64547  -6905934.62545  22721560.5474                   22721560.6804
  -1147731.86747   -891473.15646  20239370.4844                   20239368.1804
  -6080689.03547  -4722375.20746  20201177.0394                   20201175.1024
  -3558450.98848  -2760647.86345  21415799.8524                   21415797.3054
   9059340.69946   7038415.39543  23899654.8444                   23899658.3954
  -5979156.75046  -4649592.25044  23085598.7584                   23085598.5664
   7857234.48847   6105007.45344  23777743.6954                   23777740.9104
  -6642124.16847  -5159963.25445  22189112.6564                   22189112.9964
  -3723376.55947  -2892642.13746  21953099.8524                   21953097.9534
 11  8 12 19 13 30.0000000  0  9G17G07G08G11G13G26G19G24G28
  -9010474.46947  -6995762.19545  22699623.5784                   22699623.6024
  -1157553.98048   -899126.78547  20237501.8524                   20237499.0784
  -6149345.66848  -4775873.88746  20188111.9384                   20188110.1484
  -3589563.02348  -2784891.00045  21409879.5084                   21409877.0394
   9141755.63346   7102634.55543  23915337.9534                   23915340.9844
  -6062454.82046  -4714499.80544  23069747.5554                   23069747.4774
   7931933.18847   6163214.18044  23791958.3984                   23791955.7424
  -6716120.00847  -5217622.30545  22175031.7584                   22175031.7034
  -3777750.62147  -2935011.53946  21942752.5004                   21942750.4804
 11  8 12 19 14  0.0000000  0  9G17G07G08G11G13G26G19G24G28
  -7550065.89847  -5857781.40645  22977530.1884                   22977530.2194
    408502.57447    321177.00047  20535512.4844                   20535509.9734
  -4642207.09448  -3601480.19146  20474910.8524                   20474908.9964
  -2044695.98048  -1581098.48045  21703857.8444                   21703855.4024
  10799561.69146   8394431.22743  24230808.3054                   24230811.3284
  -4569796.18047  -3551389.12944  23353791.2974                   23353790.8834
   9582141.40647   7449090.66444  24105982.8754                   24105979.5784
  -5214295.21547  -4047369.18445  22460819.1884                   22460819.8754
  -2256661.48447  -1749747.28146  22232206.5004                   22232204.2504
 11  8 12 19 14 30.0000000  0  9G17G07G08G11G13G26G19G24G28
  -7664812.60247  -5947194.34045  22955694.7274                   22955694.6374
    399601.24648    314240.86347  20533818.5234                   20533816.0314
  -4710111.74248  -3654392.91046  20461989.1024                   20461987.4224
  -2074688.19547  -1604469.02745  21698150.6484                   21698148.0744
  10881925.19546   8458610.25843  24246482.3984                   24246484.7544
  -4652021.23847  -3615460.59444  23338143.9844                   23338143.7424
   9657025.07447   7507441.55144  24120232.1804                   24120229.7814
  -5287488.67647  -4104403.02345  22446891.2194                   22446891.3364
  -2310949.75448  -1792049.82845  22221875.8524                   22221873.6414
 11  8 12 19 15  0.0000000  0  9G17G07G08G11G13G26G19G24G28
  -7779288.14547  -6036395.98045  22933910.3054                   22933910.1914
    391164.16047    307666.48447  20532212.5784                   20532210.5004
  -4777633.60548  -3707007.35246  20449140.0474                   20449138.1764
  -2104116.59447  -1627400.23445  21692550.6094                   21692548.0824
  10964262.09446   8522768.58643  24262149.9534                   24262153.8594
  -4733704.05947  -3679109.52344  23322600.5864                   23322600.0124
   9732000.66446   7565864.02344  24134499.3204                   24134496.9654
  -5360274.04347  -4161118.86745  22433040.7424                   22433040.9964
  -2365192.81248  -1834317.15646  22211553.5634                   22211551.3984
 11  8 12 19 15 30.0000000  0  9G17G07G08G11G13G26G19G24G28
  -7893492.59447  -6125386.37945  22912178.1564                   22912178.5084
    383190.21548    301452.98447  20530695.5704                   20530692.9224
  -4844772.64848  -3759323.48846  20436363.8284                   20436361.8554
  -2132982.36747  -1649893.04745  21687057.6804                   21687055.1054
  11046567.36746   8586902.26243  24277813.2894                   24277815.6334
  -4814845.11347  -3742336.29344  23307159.6024                   23307159.6254
   9807063.83246   7624354.75844  24148784.1724                   24148780.6334
  -5432651.00447  -4217516.47745  22419267.6564                   22419268.0824
  -2419393.23448  -1876551.25846  22201239.8364                   22201237.5864
 11  8 12 19 16  0.0000000  0  9G17G07G08G11G13G26G19G24G28
  -8007420.63747  -6214161.39545  22890497.8284                   22890497.9264
    375684.31347    295604.19547  20529267.3674                   20529265.0044
  -4911521.85548  -3811335.85546  20423662.2504                   20423660.1724
  -2161280.96547  -1671943.89145  21681672.6094                   21681669.8284
  11128842.48846   8651012.43843  24293469.0084                   24293472.8954
  -4895438.39547  -3805136.23844  23291823.5084                   23291822.9414
   9882215.86346   7682914.72344  24163084.7344                   24163082.0744
  -5504612.75847  -4273590.54745  22405573.7974                   22405574.1684
  -2473547.34848  -1918749.26646  22190934.6644                   22190931.9494
 11  8 12 19 16 30.0000000  0  9G17G07G08G11G13G26G19G24G28
  -8121071.38747  -6302720.34045  22868871.0864                   22868871.2074
    368646.38348    290120.05947  20527928.2034                   20527925.5744
  -4977879.67248  -3863043.25046  20411034.5634                   20411032.7624
  -2189012.44947  -1693552.83645  21676395.1644                   21676392.9224
  11211083.97346   8715096.44943  24309119.4304                   24309122.7584
  -4975483.13747  -3867508.76244  23276590.8984                   23276590.8404
   9957453.78547   7741541.63744  24177402.3134                   24177399.1414
  -5576157.48447  -4329339.66445  22391958.9144                   22391959.5634
  -2527656.28948  -1960912.09046  22180637.8204                   22180635.2234
 11  8 12 19 17  0.0000000  0  9G17G07G08G11G13G26G19G24G28
  -8234441.71147  -6391060.77045  22847297.6334                   22847297.6134
    362078.57448    285002.25447  20526678.2584                   20526675.9454
  -5043842.08248  -3914442.53146  20398482.3594                   20398480.4734
  -2216174.73047  -1714718.25045  21671226.4694                   21671224.1454
  11293290.55546   8779153.20743  24324763.4384                   24324766.7154
  -5054976.08647  -3929451.30544  23261464.2034                   23261464.1804
  10032776.97346   7800234.95344  24191735.9384                   24191733.2034
  -5647281.03947  -4384760.60245  22378424.9924                   22378425.0594
  -2581719.26248  -2003039.09045  22170350.2114                   22170347.9304
 11  8 12 19 17 30.0000000  0  9G17G07G08G11G13G26G19G24G28
  -8347529.68747  -6479181.19545  22825777.1564                   22825777.1724
    355982.20348    280251.80947  20525518.3914                   20525515.9384
  -5109405.69548  -3965531.06246  20386005.7894                   20386004.1024
  -2242766.64547  -1735439.21945  21666166.3054                   21666163.7304
  11375460.43046   8843181.33243  24340399.5084                   24340403.5044
  -5133914.98847  -3990962.12144  23246442.6724                   23246442.1334
  10108183.34446   7858993.10544  24206085.4844                   24206082.6764
  -5717980.36347  -4439850.96145  22364971.3204                   22364971.6954
  -2635735.89148  -2045129.96546  22160071.0394                   22160068.6724
 11  8 12 19 18  0.0000000  0  9G17G07G08G11G13G26G19G24G28
  -8460330.69947  -6567078.02045  22804311.9304                   22804312.0744
    350360.69548    275871.37946  20524448.6804                   20524446.0594
  -5174565.64548  -4016305.05146  20373606.2504                   20373604.7194
  -2268784.63747  -1755712.97745  21661215.0634                   21661212.8554
  11457594.06346   8907181.27043  24356029.4064                   24356033.0944
  -5212295.30547  -4052037.66844  23231527.9064                   23231527.5944
  10183673.58246   7917816.60244  24220450.3204                   24220447.3874
  -5788249.97347  -4494606.47745  22351599.1724                   22351599.8834
  -2689703.94948  -2087183.00846  22149801.3674                   22149798.8364
 11  8 12 19 18 30.0000000  0  9G17G07G08G11G13G26G19G24G28
  -8572842.26647  -6654749.29345  22782901.8054                   22782901.8874
    345215.61348    271862.19947  20523469.3594                   20523466.8364
  -5239318.39148  -4066761.73446  20361284.4454                   20361282.4844
  -2294227.15247  -1775538.30545  21656373.3284                   21656370.9804
  11539688.79346   8971150.87143  24371652.0234                   24371655.7584
  -5290114.21947  -4112675.77044  23216719.2734                   23216718.5634
  10259246.46546   7976704.49644  24234831.4304                   24234829.1454
  -5858086.41847  -4549024.46145  22338310.1024                   22338310.1884
  -2743622.83647  -2129197.72746  22139540.9694                   22139538.5204
 11  8 12 19 19  0.0000000  0  9G17G07G08G11G13G26G19G24G28
  -8685063.06647  -6742194.00845  22761546.8284                   22761546.7034
    340547.52748    268224.69946  20522581.2894                   20522578.8164
  -5303661.50048  -4116899.23446  20349040.0634                   20349038.4414
  -2319093.99647  -1794915.07045  21651641.6174                   21651639.3754
  11621742.12546   9035088.23443  24387266.4454                   24387270.6294
  -5367370.62947  -4172875.54344  23202017.2424                   23202017.0514
  10334899.51647   8035654.85544  24249228.2344                   24249225.2114
  -5927487.35947  -4603103.08645  22325103.3524                   22325103.4104
  -2797492.96547  -2171174.45746  22129289.7034                   22129287.1644
 11  8 12 19 19 30.0000000  0  9G17G07G08G11G13G26G19G24G28
  -8796986.63747  -6829407.11745  22740248.0864                   22740248.1374
    336362.12548    264963.31347  20521784.7424                   20521782.4884
  -5367587.93748  -4166712.04746  20336875.5634                   20336873.9414
  -2343379.78148  -1813839.04345  21647019.8364                   21647017.8444
  11703756.54346   9098995.25043  24402873.3444                   24402877.5314
  -5444057.89147  -4232631.83644  23187424.3834                   23187424.2814
  10410634.84447   8094669.35244  24263640.0554                   24263637.2584
  -5996445.41847  -4656836.61745  22311981.1174                   22311981.0864
  -2851309.99648  -2213109.80146  22119048.9844                   22119046.4614
 11  8 12 19 20  0.0000000  0  9G17G07G08G11G13G26G19G24G28
  -8908608.84047  -6916385.38745  22719007.0864                   22719007.4454
    332662.10248    262080.14547  20521080.8444                   20521078.6454
  -5431091.96148  -4216195.71546  20324791.0394                   20324789.4024
  -2367081.25848  -1832307.71145  21642510.0314                   21642507.7974
  11785732.05146   9162871.94143  24418473.6254                   24418477.2274
  -5520171.73047  -4291941.30544  23172940.7274                   23172939.9304
  10486452.64547   8153748.09444  24278067.7894                   24278064.4614
  -6064955.50047  -4710221.06245  22298944.1094                   22298944.0944
  -2905071.52348  -2255001.90245  22108818.2894                   22108815.9104
 11  8 12 19 20 30.0000000  0  9G17G07G08G11G13G26G19G24G28
  -9019931.56647  -7003130.30945  22697823.0554                   22697822.8164
    329445.26248    259573.48446  20520468.5944                   20520465.9494
  -5494174.83648  -4265351.20346  20312787.1484                   20312785.1454
  -2390201.25447  -1850323.27745  21638110.2344                   21638108.3874
  11867662.89846   9226713.84443  24434064.4384                   24434068.5314
  -5595713.79747  -4350805.23844  23158565.5704                   23158565.1294
  10562348.71147   8212887.85244  24292510.1564                   24292507.1724
  -6133018.23047  -4763256.92645  22285991.8984                   22285992.1804
  -2958781.32448  -2296853.69546  22098597.6174                   22098595.0784
 11  8 12 19 21  0.0000000  0  9G17G07G08G11G13G26G19G24G28
  -9130949.55547  -7089637.75845  22676697.1334                   22676696.9344
    326715.76248    257446.57447  20519948.9224                   20519946.8364
  -5556830.17248  -4314173.55546  20300864.0554                   20300862.0634
  -2412735.88347  -1867882.71145  21633822.0784                   21633819.9144
  11949550.11346   9290521.74243  24449647.4454                   24449651.4224
  -5670679.20747  -4409219.82444  23144300.0084                   23144299.7544
  10638323.82447   8272089.16044  24306967.8284                   24306965.2154
  -6200627.59047  -4815939.51645  22273126.5314                   22273126.5634
  -3012436.07048  -2338662.58246  22088387.5704                   22088385.3134
 11  8 12 19 21 30.0000000  0  9G17G07G08G11G13G26G19G24G28
  -9241664.57047  -7175909.13745  22655628.8364                   22655628.2664
    324470.87948    255697.28146  20519521.8984                   20519519.6764
  -5619059.02748  -4362663.58246  20289022.2734                   20289020.3554
  -2434687.89147  -1884988.15245  21629644.7194                   21629642.4344
  12031387.82046   9354291.03943  24465220.7974                   24465224.7274
  -5745069.40247  -4467186.18444  23130144.1804                   23130143.5904
  10714372.06347   8331347.49243  24321439.5084                   24321436.1024
  -6267784.44147  -4868269.49245  22260346.8834                   22260347.0864
  -3066039.10548  -2380431.18746  22078187.0314                   22078184.7814
 11  8 12 19 22  0.0000000  0  9G17G07G08G11G13G26G19G24G28
  -9352069.80947  -7261939.12145  22634619.1254                   22634618.8444
    322716.03948    254329.84846  20519187.8754                   20519185.6134
  -5680854.10948  -4410815.59446  20277262.8914                   20277261.4224
  -2456051.78548  -1901635.32445  21625579.3524                   21625577.0354
  12113178.10946   9418023.40243  24480785.6724                   24480789.5314
  -5818878.07447  -4524699.40244  23116098.4384                   23116098.1254
  10790496.40247   8390665.10944  24335925.4144                   24335921.9574
  -6334481.53147  -4920241.21145  22247655.2034                   22247654.7114
  -3119586.25048  -2422156.23046  22067997.3914                   22067995.3754
 11  8 12 19 22 30.0000000  0  9G17G07G08G11G13G26G19G24G28
  -9462161.85247  -7347725.06645  22613669.3674                   22613669.1334
    321454.16448    253346.54346  20518947.8674                   20518945.6684
  -5742210.41848  -4458625.71546  20265587.3134                   20265585.6884
  -2476824.83248  -1917822.10945  21621626.4224                   21621624.2704
  12194921.18446   9481718.98043  24496339.8914                   24496344.9344
  -5892101.35547  -4581756.48844  23102164.3674                   23102164.4344
  10866697.07846   8450042.18843  24350426.0004                   24350423.3054
  -6400714.05147  -4971850.91845  22235050.9844                   22235050.3014
  -3173075.36748  -2463836.06246  22057818.7504                   22057816.6174
 11  8 12 19 23  0.0000000  0  9G17G07G08G11G13G26G19G24G28
  -9571941.14847  -7433267.30545  22592778.9774                   22592779.0004
    320683.98848    252746.38346  20518801.3444                   20518799.1914
  -5803127.48048  -4506093.55946  20253995.1564                   20253993.5634
  -2497008.83248  -1933549.89145  21617785.3444                   21617783.3484
  12276612.21946   9545373.97343  24511886.5084                   24511890.4304
  -5964739.80947  -4638357.85944  23088342.1724                   23088342.0004
  10942969.84447   8509475.49643  24364939.7034                   24364937.5984
  -6466481.37147  -5023098.13745  22222535.8674                   22222535.9884
  -3226508.47348  -2505472.24246  22047651.0784                   22047648.6254
 11  8 12 19 23 30.0000000  0  9G17G07G08G11G13G26G19G24G28
  -9681408.23847  -7518566.26645  22571947.3284                   22571947.6954
    320403.74248    252527.97746  20518747.8834                   20518745.6644
  -5863604.96948  -4553218.87946  20242486.6414                   20242485.3054
  -2516605.30948  -1948819.85945  21614056.6644                   21614054.1884
  12358246.89846   9608985.07842  24527420.5474                   24527424.6374
  -6036793.84847  -4694503.85944  23074630.3674                   23074630.6294
  11019310.57846   8568961.73843  24379466.9224                   24379464.1414
  -6531782.87547  -5073982.37945  22210109.5234                   22210109.5634
  -3279888.13748  -2547066.78545  22037493.0554                   22037490.7074
 11  8 12 19 24  0.0000000  0  9G17G07G08G11G13G26G19G24G28
  -9790559.09847  -7603618.81645  22551177.2344                   22551177.1024
    320616.39148    252693.64546  20518788.4774                   20518786.6804
  -5923637.94948  -4599997.83246  20231062.7814                   20231060.8244
  -2535611.75848  -1963630.06645  21610439.8834                   21610437.2384
  12439824.74646   9672551.84442  24542945.0394                   24542949.7934
  -6108259.77047  -4750191.56644  23061030.9224                   23061030.9734
  11095719.59846   8628501.19943  24394007.6564                   24394004.6134
  -6596614.02347  -5124500.10245  22197772.2584                   22197772.5944
  -3333212.23448  -2588618.03146  22027345.8594                   22027343.5164
 11  8 12 19 24 30.0000000  0  9G17G07G08G11G13G26G19G24G28
  -9899393.01647  -7688424.40245  22530466.9774                   22530466.5784
    321322.09448    253243.51246  20518922.8134                   20518920.7384
  -5983224.61748  -4646429.00446  20219723.7584                   20219721.9064
  -2554028.24648  -1977980.57845  21606935.0004                   21606932.6994
  12521343.09846   9736072.30542  24558457.0864                   24558462.3754
  -6179136.60547  -4805420.26644  23047543.2344                   23047543.2464
  11172194.11346   8688091.66843  24408560.2894                   24408557.0554
  -6660972.92247  -5174649.83645  22185525.0634                   22185525.1094
  -3386481.40248  -2630126.46945  22017209.0634                   22017206.6054
 11  8 12 19 25  0.0000000  0  9G17G07G08G11G13G26G19G24G28
 -10007907.99247  -7772981.46545  22509817.0944                   22509817.0944
    322521.41448    254178.01646  20519150.7584                   20519148.8484
  -6042362.23848  -4692510.27047  20208470.0554                   20208468.6054
  -2571853.99248  -1991870.77045  21603542.3834                   21603540.4924
  12602799.81646   9799544.71943  24573958.1094                   24573963.0984
  -6249422.70347  -4860188.62944  23034168.5474                   23034168.0394
  11248731.93046   8747731.45744  24423124.8364                   24423121.9264
  -6724856.92647  -5224429.52745  22173368.4144                   22173368.4774
  -3439695.73448  -2671592.18046  22007082.6094                   22007079.9454
 11  8 12 19 25 30.0000000  0  9G17G07G08G11G13G26G19G24G28
 -10116105.18747  -7857290.90245  22489228.0004                   22489227.4264
    324212.39148    255495.62146  20519473.0474                   20519471.1054
  -6101050.87948  -4738241.69147  20197302.2974                   20197300.5084
  -2589091.62148  -2005302.68445  21600262.3594                   21600260.4734
  12684189.68446   9862965.05943  24589446.4774                   24589451.8014
  -6319119.25447  -4914497.61744  23020906.1484                   23020905.2274
  11325329.14146   8807417.52344  24437701.1414                   24437697.7234
  -6788266.22347  -5273839.31645  22161301.9454                   22161302.1334
  -3492857.74648  -2713017.12546  21996966.3284                   21996963.7464
 11  8 12 19 26  0.0000000  0  9G17G07G08G11G13G26G19G24G28
 -10223984.32047  -7941352.48845  22468699.3204                   22468698.8284
    326394.44148    257195.89147  20519888.1884                   20519886.0784
  -6159288.76648  -4783621.86746  20186219.6884                   20186218.0594
  -2605741.85248  -2018276.88745  21597094.1024                   21597091.7114
  12765509.03946   9926330.40243  24604921.9144                   24604926.8984
  -6388225.88347  -4968346.92644  23007755.2424                   23007754.9304
  11401982.35246   8867147.25043  24452287.5784                   24452285.6804
  -6851199.50847  -5322878.19545  22149326.5704                   22149326.1684
  -3545968.89848  -2754402.44546  21986859.6254                   21986857.2344
 11  8 12 19 26 30.0000000  0  9G17G07G08G11G13G26G19G24G28
 -10331540.61347  -8025162.52345  22448231.8134                   22448231.3714
    329071.14548    259281.59846  20520397.4844                   20520395.2424
  -6217070.77048  -4828646.82446  20175224.3134                   20175222.3714
  -2621801.48047  -2030790.89145  21594038.0084                   21594035.5044
  12846758.57447   9989641.38343  24620383.0944                   24620388.4344
  -6456738.31247  -5021733.23444  22994717.6644                   22994717.2814
  11478692.30146   8926921.17243  24466885.0554                   24466882.6294
  -6913651.45747  -5371542.00045  22137441.7664                   22137441.8284
  -3599026.53948  -2795746.06246  21976763.2814                   21976760.6994
 11  8 12 19 27  0.0000000  0  9G17G07G08G11G13G26G19G24G28
 -10438775.76247  -8108722.31645  22427825.5004                   22427825.3014
    332239.78148    261750.62946  20521000.4304                   20520998.6604
  -6274397.79348  -4873317.23046  20164315.2274                   20164313.6604
  -2637273.05547  -2042846.66845  21591094.3054                   21591091.5904
  12927933.10546  10052893.86743  24635830.2974                   24635835.6644
  -6524658.20747  -5074657.82044  22981793.1024                   22981792.7814
  11555454.02346   8986735.44543  24481492.1954                   24481489.7274
  -6975622.57447  -5419831.12945  22125649.4384                   22125649.1884
  -3652033.67648  -2837050.31646  21966676.1334                   21966673.6684
 11  8 12 19 27 30.0000000  0  9G17G07G08G11G13G26G19G24G28
 -10545687.32047  -8192029.96145  22407480.8364                   22407480.4264
    335901.60248    264603.95746  20521697.8204                   20521695.1174
  -6331266.11348  -4917630.22346  20153493.8204                   20153491.5744
  -2652155.47748  -2054443.36345  21588261.9384                   21588259.5314
  13009031.35546  10116086.91043  24651263.3834                   24651268.6374
  -6591983.20347  -5127118.85944  22968981.7504                   22968981.6024
  11632266.56646   9046589.30543  24496109.7734                   24496106.8364
  -7037109.47747  -5467742.97745  22113948.5314                   22113948.8594
  -3704989.19148  -2878314.35546  21956599.2114                   21956596.6094
 11  8 12 19 28  0.0000000  0  9G17G07G08G11G13G26G19G24G28
 -10652273.39547  -8275083.99645  22387198.3364                   22387198.1214
    340057.74248    267842.47746  20522488.4144                   20522486.2234
  -6387672.79348  -4961583.48446  20142759.9144                   20142757.9144
  -2666448.35248  -2065580.66845  21585542.0634                   21585539.5824
  13090050.97346  10179218.67643  24666681.6884                   24666686.1644
  -6658711.54347  -5179114.96944  22956283.5164                   22956283.0084
  11709128.19546   9106481.44543  24510735.3834                   24510732.6414
  -7098109.75447  -5515275.60945  22102340.8674                   22102340.6804
  -3757893.21947  -2919538.27046  21946531.6724                   21946529.4574
 11  8 12 19 28 30.0000000  0  8G17G07G08G11G26G19G24G28
 -10758533.79347  -8357884.25045  22366977.5864                   22366976.5944
    344707.32048    271465.49246  20523373.2344                   20523370.9844
  -6443616.56648  -5005176.05146  20132114.3754                   20132112.4654
  -2680152.62948  -2076259.31645  21582934.5554                   21582931.8594
  -6724843.20347  -5230646.14844  22943698.8364                   22943698.8164
  11786035.91446   9166409.48844  24525370.6414                   24525368.0784
  -7158621.94947  -5562427.91845  22090825.2894                   22090825.3984
  -3810747.06248  -2960723.08646  21936474.0704                   21936471.3594
 11  8 12 19 29  0.0000000  0  8G17G07G08G11G26G19G24G28
 -10864462.07047  -8440425.70345  22346819.5704                   22346819.4494
    349855.65247    275477.14546  20524352.9534                   20524350.6724
  -6499090.33648  -5048402.37546  20121558.0474                   20121556.3714
  -2693263.25848  -2086475.38345  21580439.7504                   21580437.2034
  -6790372.12147  -5281707.64544  22931229.0004                   22931229.1054
  11862992.41446   9226375.53943  24540015.3524                   24540011.6844
  -7218638.89547  -5609194.32845  22079404.6094                   22079404.7304
  -3863545.63748  -3001864.82446  21926426.6254                   21926424.2544
 11  8 12 19 29 30.0000000  0  8G17G07G08G11G26G19G24G28
 -10970049.35547  -8522701.45345  22326727.1414                   22326726.6294
    355510.33648    279883.35946  20525428.9924                   20525426.6884
  -6554084.15248  -5091254.71546  20111092.8674                   20111091.1024
  -2705772.55148  -2096222.89145  21578059.2664                   21578056.8244
  -6855289.35547  -5332292.49644  22918876.0554                   22918875.4694
  11940003.33646   9286383.99243  24554670.2894                   24554666.7114
  -7278150.79347  -5655567.20345  22068079.8364                   22068079.5824
  -3916282.06247  -3042958.14546  21916391.3054                   21916388.9924
 11  8 12 19 30  0.0000000  0  8G17G07G08G11G26G19G24G28
 -11075289.39848  -8604706.61745  22306700.7344                   22306700.4184
    361677.17647    284688.65646  20526602.5394                   20526600.4224
  -6608590.73047  -5133727.39146  20100720.7894                   20100718.8204
  -2717675.28148  -2105497.73845  21575793.9774                   21575791.5314
  -6919588.89547  -5382396.02744  22906640.2504                   22906639.9264
  12017071.85546   9346437.32043  24569335.8524                   24569332.3284
  -7337150.50047  -5701540.96945  22056853.0164                   22056852.4574
  -3968951.16447  -3083998.99646  21906368.7504                   21906366.3594
 11  8 12 19 30 30.0000000  0  8G17G07G08G11G26G19G24G28
 -11180187.69947  -8686445.48845  22286738.9454                   22286738.8794
    368349.13348    289887.54346  20527871.9774                   20527869.6334
  -6662614.67647  -5175823.98446  20090440.2504                   20090438.5474
  -2728978.88348  -2114305.73445  21573642.7734                   21573640.6174
  -6983276.72747  -5432022.90244  22894520.7424                   22894520.6054
  12094188.40646   9406528.10243  24584010.3524                   24584007.5084
  -7395643.04347  -5747119.54745  22045722.2274                   22045721.7734
  -4021560.18747  -3124993.04346  21896357.2974                   21896355.0634
 11  8 12 19 31  0.0000000  0  8G17G07G08G11G26G19G24G28
 -11284746.84048  -8767920.07845  22266842.0474                   22266841.9734
    375522.85547    295477.43046  20529237.5704                   20529235.3524
  -6716157.57847  -5217545.73846  20080251.3054                   20080249.5314
  -2739687.02348  -2122649.73045  21571605.3754                   21571603.1564
  -7046355.37547  -5481175.10944  22882517.4924                   22882516.5474
  12171347.78946   9466652.22343  24598693.2114                   24598690.4734
  -7453630.05947  -5792304.22745  22034687.6094                   22034687.1914
  -4074113.11347  -3165943.37146  21886356.5704                   21886354.6214
 11  8 12 19 31 30.0000000  0  8G17G07G08G11G26G19G24G28
 -11388965.67647  -8849129.50445  22247009.6954                   22247009.3874
    383197.93048    301457.95746  20530697.5084                   20530695.6174
  -6769217.41047  -5258891.07846  20070154.7034                   20070152.9344
  -2749800.08248  -2130530.03945  21569680.7504                   21569678.4734
  -7108824.25847  -5529852.14544  22870629.8914                   22870629.2274
  12248547.32446   9526807.64843  24613383.9844                   24613381.2584
  -7511109.71147  -5837093.53145  22023749.2894                   22023748.9344
  -4126610.26247  -3206850.24246  21876367.2034                   21876364.8244
 11  8 12 19 32  0.0000000  0  8G17G07G08G11G26G19G24G28
 -11492847.93447  -8930076.67245  22227241.6094                   22227241.3364
    391369.76647    307825.59046  20532253.1174                   20532250.8364
  -6821796.67648  -5299861.94946  20060149.2894                   20060147.3984
  -2759323.02748  -2137950.52045  21567868.6484                   21567866.5784
  -7170687.24247  -5578057.05144  22858857.5084                   22858857.1254
  12325780.19946   9586989.07043  24628080.8984                   24628077.8204
  -7568084.80547  -5881489.68045  22012907.3594                   22012907.4224
  -4179056.78547  -3247717.66046  21866386.4454                   21866384.2814
 11  8 12 19 32 30.0000000  0  8G17G07G08G11G26G19G24G28
 -11596395.91848  -9010763.34445  22207537.1334                   22207536.6804
    400034.92247    314577.63346  20533901.7344                   20533899.6414
  -6873896.80947  -5340459.47346  20050234.8284                   20050233.0594
  -2768259.72348  -2144914.18445  21566168.0634                   21566165.9224
  -7231946.97747  -5625791.90244  22847199.8594                   22847200.1914
  12403040.87146   9647192.15243  24642782.9924                   24642779.7274
  -7624556.75047  -5925493.75845  22002160.7894                   22002160.7704
  -4231456.67247  -3288548.73446  21856415.5634                   21856413.0234
 11  8 12 19 33  0.0000000  0  8G17G07G08G11G26G19G24G28
 -11699605.32048  -9091186.19945  22187896.9224                   22187896.8204
    409196.77347    321716.69546  20535645.1884                   20535643.2974
  -6925512.65647  -5380679.62546  20040412.5084                   20040410.6484
  -2776607.16848  -2151418.69945  21564579.7664                   21564577.1134
  -7292599.56247  -5673053.65644  22835658.4064                   22835658.1374
  12480330.52046   9707417.73843  24657491.2344                   24657488.0634
  -7680520.40647  -5969101.77345  21991511.8524                   21991511.3164
  -4283806.84447  -3329341.07446  21846453.8204                   21846451.2544
 11  8 12 19 33 30.0000000  0  8G17G07G08G11G26G19G24G28
 -11802477.93748  -9171346.62146  22168320.8364                   22168320.4304
    418852.36748    329240.50446  20537482.8284                   20537481.0434
  -6976644.68447  -5420522.77746  20030682.6724                   20030680.7544
  -2784368.61348  -2157466.58645  21563102.9304                   21563100.4414
  -7352646.53947  -5719843.50444  22824232.2344                   22824231.7974
  12557643.99246   9767661.96143  24672202.9694                   24672200.7234
  -7735976.85947  -6012314.56645  21980958.5474                   21980958.1374
  -4336110.30547  -3370097.01246  21836500.4534                   21836498.2424
 11  8 12 19 34  0.0000000  0  8G17G07G08G11G26G19G24G28
 -11905010.56648  -9251242.12546  22148809.6644                   22148809.0904
    429003.84447    337150.69546  20539414.4064                   20539412.3014
  -7027288.88348  -5459985.80146  20021044.9844                   20021042.8594
  -2791542.04748  -2163056.28945  21561737.5394                   21561735.0514
  -7412085.57047  -5766159.63744  22812920.8524                   22812920.3524
  12634981.22346   9827924.68843  24686920.5784                   24686917.4734
  -7790922.27047  -6055129.13745  21970502.9144                   21970502.3874
  -4388365.28948  -3410815.17246  21826556.7814                   21826554.0784
 11  8 12 19 34 30.0000000  0  8G17G07G08G11G26G19G24G28
 -12007203.31648  -9330872.78145  22129362.8524                   22129362.3284
    439649.78948    345446.21146  20541440.5004                   20541438.2774
  -7077444.48848  -5499068.10546  20011501.0704                   20011499.2504
  -2798129.13748  -2168189.09045  21560484.1564                   21560481.5394
  -7470917.03147  -5812002.30944  22801725.8754                   22801724.8794
  12712339.07446   9888203.49243  24701640.8914                   24701638.7624
  -7845355.75047  -6097544.80945  21960144.3204                   21960144.2894
  -4440573.45347  -3451496.85246  21816621.7664                   21816619.5704
 11  8 12 19 35  0.0000000  0  8G17G07G08G11G26G19G24G28
 -12109052.98848  -9410236.10946  22109981.4614                   22109980.8874
    450792.51247    354128.80146  20543560.7734                   20543558.7304
  -7127107.51248  -5537766.57846  20002050.5234                   20002048.2034
  -2804128.43048  -2172863.87545  21559342.6024                   21559339.9024
  -7529137.87147  -5857369.20344  22790646.8834                   22790646.2704
  12789717.64846   9948498.44143  24716365.8754                   24716363.8244
  -7899273.32847  -6139558.48445  21949884.1174                   21949884.1054
  -4492732.72748  -3492140.43046  21806696.3524                   21806693.7734
 11  8 12 19 35 30.0000000  0  7G17G07G08G11G26G24G28
 -12210561.54347  -9489333.62546  22090665.4844                   22090664.7664
    462428.78548    363195.98446  20545775.2344                   20545773.2344
  -7176278.92248  -5576081.98047  19992693.6724                   19992691.3404
  -2809543.30548  -2177083.26645  21558312.1564                   21558310.0704
  -7586750.62147  -5902262.23444  22779683.2584                   22779682.9654
  -7952676.68447  -6181171.46545  21939721.6724                   21939721.7384
  -4544846.57848  -3532748.62546  21796779.5004                   21796777.0474
 11  8 12 19 36  0.0000000  0  7G17G07G08G11G26G24G28
 -12311720.00048  -9568158.34445  22071414.9144                   22071414.5314
    474566.16448    372653.64846  20548084.8524                   20548082.8164
  -7224948.43048  -5614006.28946  19983431.7504                   19983429.9384
  -2814365.89848  -2180841.12945  21557394.2034                   21557392.0044
  -7643746.57847  -5946674.66844  22768837.3984                   22768837.1294
  -8005555.55547  -6222375.76645  21929659.2424                   21929659.0784
  -4596906.94547  -3573315.14146  21786872.3914                   21786869.9414
 11  8 12 19 36 30.0000000  0  7G17G07G08G11G26G24G28
 -12412518.94948  -9646702.92646  22052234.0164                   22052233.2734
    487213.19147    382508.42646  20550491.5394                   20550489.5984
  -7273105.93048  -5651531.62946  19974267.9534                   19974265.9264
  -2818588.57448  -2184131.52745  21556591.2344                   21556588.3284
  -7700116.77347  -5990599.48844  22758110.4454                   22758110.2974
  -8057899.87147  -6263163.51245  21919698.1644                   21919698.1804
  -4648905.81648  -3613833.73046  21776977.7344                   21776975.2664
 11  8 12 19 37  0.0000000  0  7G17G07G08G11G26G24G28
 -12512957.94148  -9724967.03546  22033121.0004                   22033119.8874
    500369.10548    392759.74246  20552995.1174                   20552993.2894
  -7320750.01248  -5688656.90246  19965201.7664                   19965199.2704
  -2822212.43447  -2186955.31245  21555901.4614                   21555898.7584
  -7755861.28547  -6034036.77044  22747502.5554                   22747502.1644
  -8109708.77047  -6303534.05145  21909839.4774                   21909839.3754
  -4700844.00047  -3654305.04346  21767093.6884                   21767091.6134
 11  8 12 19 37 30.0000000  0  7G17G07G08G11G26G24G28
 -12613039.16448  -9802952.36346  22014075.7194                   22014075.5274
    514030.32848    403404.81346  20555594.7504                   20555592.7894
  -7367881.75048  -5725382.94546  19956232.9844                   19956230.5824
  -2825241.16047  -2189315.35245  21555324.9384                   21555322.6094
  -7810982.73847  -6076988.55544  22737013.5784                   22737012.8874
  -8160983.66047  -6343488.46545  21900082.2504                   21900082.0474
  -4752724.93447  -3694731.73446  21757221.2424                   21757218.7664
 11  8 12 19 38  0.0000000  0  7G17G07G08G11G26G24G28
 -12712766.04348  -9880661.57046  21995098.7274                   21995098.0204
    528192.60948    414440.30546  20558289.6644                   20558287.9144
  -7414503.65648  -5761711.71946  19947360.7584                   19947358.9654
  -2827679.89848  -2191215.66045  21554860.9774                   21554858.4064
  -7865485.04347  -6119457.87144  22726641.9454                   22726641.6334
  -8211727.16447  -6383028.84045  21890425.8364                   21890425.7734
  -4804553.58648  -3735117.69146  21747358.6484                   21747356.2814
 11  8 12 19 38 30.0000000  0  7G17G07G08G11G26G24G28
 -12812141.19548  -9958096.71146  21976188.1334                   21976187.5354
    542851.61748    425862.85946  20561079.1884                   20561077.4454
  -7460617.32448  -5797644.44946  19938585.5004                   19938583.6764
  -2829532.82048  -2192659.48445  21554508.6414                   21554506.0984
  -7919371.52347  -6161447.34444  22716388.0554                   22716387.5554
  -8261941.41047  -6422156.78945  21880870.2734                   21880869.9694
  -4856333.75048  -3775465.86346  21737505.1174                   21737502.7704
 11  8 12 19 39  0.0000000  0  7G17G07G08G11G26G24G28
 -12911167.89548 -10035260.33246  21957343.9534                   21957343.6294
    558003.25048    437669.28146  20563962.6884                   20563960.6994
  -7506225.23848  -5833183.09046  19929906.7734                   19929904.6254
  -2830804.43047  -2193650.35945  21554266.3754                   21554263.8794
  -7972645.26247  -6202959.34844  22706250.0944                   22706250.2344
  -8311628.70747  -6460874.13345  21871415.1954                   21871415.0704
  -4908069.14548  -3815779.14846  21727660.4774                   21727657.8014
 11  8 12 19 39 30.0000000  0  7G17G07G08G11G26G24G28
 -13009847.26648 -10112153.31246  21938566.1254                   21938565.0394
    573645.41048    449857.93446  20566939.4224                   20566937.3984
  -7551327.55548  -5868327.75846  19921324.2894                   19921322.0234
  -2831497.57047  -2194190.46545  21554134.3754                   21554132.2114
  -8025308.22347  -6243995.42644  22696228.8204                   22696228.4844
  -8360789.46147  -6499181.18445  21862060.2734                   21862060.1174
  -4959762.38348  -3856059.59046  21717823.5084                   21717820.9654
 11  8 12 19 40  0.0000000  0  7G17G07G08G11G26G24G28
 -13108180.83648 -10188776.83246  21919853.7194                   21919852.7894
    589775.17248    462426.52746  20570008.8914                   20570006.8284
  -7595925.20748  -5903079.18046  19912837.5634                   19912835.4064
  -2831615.56247  -2194282.41045  21554111.8984                   21554109.5904
  -8077362.67647  -6284557.34844  22686322.6724                   22686322.5514
  -8409424.70347  -6537078.75045  21852805.0554                   21852805.0984
  -5011416.51648  -3896309.55946  21707993.8834                   21707991.5004
 11  8 12 19 40 30.0000000  0  7G17G07G08G11G26G24G28
 -13206168.59447 -10265130.89146  21901207.1254                   21901206.5044
    606391.48447    475374.24646  20573170.6414                   20573168.7274
  -7640016.31248  -5937435.89546  19904447.5004                   19904445.3754
  -2831159.61347  -2193927.12945  21554198.8284                   21554196.6684
  -8128808.64147  -6324645.10944  22676533.3364                   22676532.8874
  -8457533.68047  -6574566.23045  21843650.0554                   21843650.1994
  -5063031.99247  -3936529.40646  21698171.9384                   21698169.6884
 11  8 12 19 41  0.0000000  0  7G17G07G08G11G26G24G28
 -11728385.04748  -9113611.19946  22182419.9534                   22182419.2894
   2198914.46948   1716301.20746  20876217.7194                   20876215.7194
  -6108176.60248  -4743794.56246  20195946.2504                   20195944.4344
  -1254709.50848   -965524.44945  21854187.2504                   21854184.9344
  -6604223.13747  -5136656.41844  22966652.1414                   22966651.8484
  -6929692.19947  -5384040.37145  22134388.8204                   22134388.8594
  -3539186.16448  -2749117.07045  21988150.1884                   21988147.6764
 11  8 12 19 41 30.0000000  0  7G17G07G08G11G26G24G28
 -11825677.36348  -9189423.34846  22163905.4774                   22163904.8594
   2216503.43048   1730006.84846  20879564.8444                   20879562.9654
  -6151249.05148  -4777357.51646  20187750.3134                   20187748.2584
  -1253107.25447   -964275.95745  21854491.9534                   21854489.7384
  -6654450.83247  -5175794.88744  22957094.6414                   22957093.8754
  -6976743.23047  -5420703.49245  22125435.3364                   22125434.8754
  -3590724.21948  -2789276.59846  21978342.6804                   21978340.4884
 11  8 12 19 42  0.0000000  0  7G17G07G08G11G26G24G28
 -11922624.20348  -9264966.29346  22145457.3284                   22145456.7704
   2234574.87548   1744088.44146  20883003.8984                   20883002.0474
  -6193813.41848  -4810524.55547  20179650.5864                   20179648.5084
  -1250936.28547   -962584.29345  21854905.1644                   21854903.1024
  -6704072.32447  -5214460.98444  22947651.1174                   22947651.1174
  -7023266.21148  -5456955.14145  22116582.3594                   22116582.3674
  -3642227.37148  -2829408.92246  21968541.9304                   21968539.5944
 11  8 12 19 42 30.0000000  0  7G17G07G08G11G26G24G28
 -12019218.88748  -9340234.83246  22127075.5944                   22127075.2464
   2253133.88348   1758549.96546  20886535.6954                   20886533.8094
  -6235861.62148  -4843289.39547  20171648.8204                   20171647.2234
  -1248191.74248   -960445.69945  21855427.5164                   21855425.4734
  -6753081.38747  -5252649.86744  22938325.3914                   22938324.8284
  -7069254.28948  -5492789.98845  22107831.1414                   22107830.8714
  -3693690.04348  -2869509.70746  21958749.2344                   21958746.5554
 11  8 12 19 43  0.0000000  0  7G17G07G08G11G26G24G28
 -12115464.30948  -9415231.21146  22108761.0004                   22108760.3594
   2272176.67248   1773388.46146  20890159.3134                   20890157.4414
  -6277395.71948  -4875653.63346  20163745.3524                   20163743.4844
  -1244878.27048   -957863.77745  21856058.0164                   21856055.5864
  -6801481.78147  -5290364.47744  22929114.7194                   22929114.8014
  -7114709.63748  -5528209.73445  22099181.1724                   22099181.0164
  -3745115.93748  -2909581.82846  21948962.9844                   21948960.5514
 11  8 12 19 43 30.0000000  0  7G17G07G08G11G26G24G28
 -12211358.73848  -9489954.09046  22090512.8914                   22090512.3754
   2291703.77747   1788604.34046  20893875.2504                   20893873.6524
  -6318412.74648  -4907614.96146  20155940.2664                   20155937.8014
  -1240995.68447   -954838.40245  21856797.1644                   21856794.6684
  -6849271.91847  -5327603.53544  22920021.0084                   22920020.6094
  -7159629.83247  -5563212.46945  22090632.8674                   22090632.9924
  -3796504.21948  -2949624.64146  21939183.7974                   21939181.9264
 11  8 12 19 44  0.0000000  0  7G17G07G08G11G26G24G28
 -12306903.83248  -9564404.76646  22072331.0314                   22072329.9144
   2311712.05148   1804195.17246  20897682.5704                   20897680.8444
  -6358913.90648  -4939174.31646  20148232.9694                   20148231.2074
  -1236547.41047   -951372.22745  21857643.3674                   21857641.1254
  -6896454.68747  -5364369.33244  22911042.0554                   22911042.0864
  -7204016.23047  -5597799.25445  22082186.6724                   22082186.7034
  -3847857.89548  -2989640.49246  21929411.8674                   21929409.6484
 11  8 12 19 44 30.0000000  0  7G17G07G08G11G26G24G28
 -12402099.79748  -9638583.38346  22054215.9694                   22054215.2894
   2332200.12948   1820159.86346  20901581.5234                   20901579.5554
  -6398898.31248  -4970331.01246  20140624.2034                   20140622.1684
  -1231535.39148   -947466.76645  21858597.1174                   21858594.5594
  -6943030.66447  -5400662.30544  22902178.8834                   22902178.8594
  -7247868.03947  -5631969.48045  22073841.7894                   22073841.8594
  -3899177.49248  -3029629.77346  21919645.9924                   21919643.5984
 11  8 12 19 45  0.0000000  0  7G17G07G08G11G26G24G28
 -12496947.18048  -9712490.37546  22036167.2584                   22036166.3404
   2353165.96148   1836496.82446  20905571.3284                   20905569.4414
  -6438365.53548  -5001084.70347  20133113.8284                   20133111.7384
  -1225961.82847   -943123.74245  21859657.9144                   21859655.3954
  -6989001.17647  -5436483.48044  22893431.1414                   22893431.2344
  -7291185.31647  -5665723.19145  22065599.3524                   22065598.7704
  -3950464.73848  -3069593.85546  21909886.3444                   21909884.1564
 11  8 12 19 45 30.0000000  0  7G17G07G08G11G26G24G28
 -12591442.37948  -9786122.93446  22018185.3284                   22018184.2384
   2374611.98848   1853207.98446  20909652.2664                   20909650.1254
  -6477311.41848  -5031432.16046  20125702.8524                   20125700.8634
  -1219824.87547   -938341.69945  21860825.3284                   21860823.3364
  -7034363.41447  -5471830.68744  22884799.3134                   22884798.7774
  -7333964.31648  -5699057.45745  22057458.7034                   22057458.0704
  -4001717.10948  -3109530.75446  21900133.4454                   21900131.1914
 11  8 12 19 46  0.0000000  0  7G17G07G08G11G26G24G28
 -12685585.22747  -9859480.93446  22000270.4924                   22000269.6024
   2396537.14148   1870292.48446  20913824.3134                   20913822.4614
  -6515734.39848  -5061372.15646  20118391.1804                   20118388.9304
  -1213125.80547   -933121.65645  21862100.4774                   21862098.2664
  -7079117.46147  -5506703.97744  22876283.0164                   22876282.8014
  -7376204.04348  -5731971.51245  22049420.3204                   22049420.3134
  -4052935.17248  -3149440.92646  21890386.9144                   21890384.6994
 11  8 12 19 46 30.0000000  0  7G17G07G08G11G26G24G28
 -12779377.02348  -9932565.39146  21982422.2814                   21982421.3634
   2418939.22748   1887748.61746  20918087.1954                   20918085.4804
  -6553635.37948  -5090905.40646  20111178.6254                   20111176.7154
  -1205867.80947   -927466.08645  21863481.5474                   21863479.4774
  -7123265.50047  -5541105.06645  22867881.5944                   22867881.5394
  -7417905.24647  -5764465.93745  22041485.1954                   22041484.7934
  -4104120.82047  -3189325.82846  21880646.5864                   21880644.3594
 11  8 12 19 47  0.0000000  0  7G17G07G08G11G26G24G28
 -12872816.43048 -10005375.26646  21964641.2734                   21964640.3714
   2441817.62948   1905575.90246  20922440.9694                   20922439.3054
  -6591011.57048  -5120029.73046  20104066.4144                   20104064.4304
  -1198051.44147   -921375.43045  21864968.6724                   21864966.7384
  -7166807.23047  -5575033.70344  22859596.2424                   22859595.9734
  -7459066.44947  -5796539.57845  22033652.1484                   22033652.0664
  -4155273.87148  -3229185.33646  21870912.2504                   21870909.7814
 11  8 12 19 47 30.0000000  0  7G17G07G08G11G26G24G28
 -12965901.19948 -10077908.78546  21946927.6334                   21946927.0274
   2465173.52348   1923775.26246  20926885.7034                   20926884.2734
  -6627860.12148  -5148742.90647  20097054.5864                   20097052.5864
  -1189676.19948   -914849.28545  21866562.6334                   21866560.4534
  -7209741.07847  -5608488.66444  22851426.0314                   22851426.3204
  -7499684.59047  -5828190.05145  22025922.8524                   22025922.6254
  -4206392.81648  -3269018.27046  21861185.0004                   21861182.1214
 11  8 12 19 48  0.0000000  0  7G17G07G08G11G26G24G28
 -13058631.70348 -10150166.26246  21929281.8364                   21929280.8364
   2489005.44948   1942345.55546  20931420.6094                   20931419.0164
  -6664180.50848  -5177044.52046  20090142.5234                   20090140.7664
  -1180743.95747   -907889.11745  21868262.4304                   21868260.4534
  -7252067.68747  -5641470.45344  22843371.2814                   22843371.3364
  -7539759.28947  -5859417.06645  22018297.1174                   22018296.4574
  -4257478.46548  -3308825.24646  21851463.5084                   21851461.3204
 11  8 12 19 48 30.0000000  0  7G17G07G08G11G26G24G28
 -13151005.66847 -10222145.91846  21911703.6644                   21911702.7114
   2513314.06648   1961287.28946  20936046.4304                   20936045.1524
  -6699969.90248  -5204932.37946  20083332.4924                   20083330.4654
  -1171254.67647   -900494.88745  21870068.5164                   21870066.5594
  -7293786.18747  -5673978.38744  22835432.6024                   22835432.4694
  -7579288.10547  -5890218.71945  22010774.3984                   22010774.2894
  -4308529.75048  -3348605.46546  21841748.7664                   21841746.4224
 11  8 12 19 49  0.0000000  0  7G17G07G08G11G26G24G28
 -13243025.39848 -10293849.54746  21894192.9844                   21894191.7774
   2538095.62947   1980597.55546  20940761.8674                   20940760.9184
  -6735229.47348  -5232407.39146  20076622.9064                   20076620.6844
  -1161212.20347   -892669.59845  21871979.3134                   21871976.9884
  -7334899.45347  -5706014.71544  22827609.3284                   22827609.2854
  -7618272.80547  -5920596.38345  22003356.1644                   22003355.5864
  -4359549.58248  -3388361.15246  21832040.1254                   21832037.6454
 11  8 12 19 49 30.0000000  0  7G17G07G08G11G26G24G28
 -13334687.10948 -10365274.20346  21876750.1644                   21876749.2774
   2563353.11347   2000278.66846  20945568.6954                   20945567.2584
  -6769954.49248  -5259465.85946  20070014.6484                   20070012.5744
  -1150614.22747   -884411.45345  21873995.7344                   21873994.1374
  -7375404.25047  -5737576.90645  22819900.9384                   22819901.5744
  -7656708.91847  -5950546.57445  21996042.2114                   21996041.5354
  -4410534.38348  -3428089.54746  21822337.7974                   21822335.7074
 11  8 12 19 50  0.0000000  0  7G17G07G08G11G26G24G28
 -13425991.12148 -10436420.12946  21859375.5314                   21859374.5234
   2589084.89847   2020329.36346  20950465.1024                   20950463.3674
  -6804144.41048  -5286107.36746  20063508.6724                   20063506.9064
  -1139462.72348   -875721.98045  21876117.8674                   21876115.9344
  -7415301.30147  -5768665.52745  22812309.1094                   22812309.0944
  -7694596.52347  -5980069.35245  21988832.1804                   21988831.8094
  -4461485.12548  -3467791.42246  21812642.3134                   21812639.9884
 11  8 12 19 50 30.0000000  0  7G17G07G08G11G26G24G28
 -13516940.33247 -10507289.59046  21842068.2894                   21842067.5314
   2615286.32447   2040746.00846  20955451.1724                   20955449.4384
  -6837801.52048  -5312333.69946  20057103.8054                   20057101.9454
  -1127762.78948   -866605.17245  21878344.3914                   21878342.2624
  -7454595.15247  -5799284.11744  22804831.6094                   22804831.6024
  -7731938.12148  -6009166.67645  21981726.6564                   21981726.2274
  -4512405.98048  -3507469.98846  21802952.4144                   21802950.0354
 11  8 12 19 51  0.0000000  0  7G17G07G08G11G26G24G28
 -13607535.29348 -10577883.01246  21824828.6564                   21824827.7584
   2641956.01247   2061527.52746  20960526.1644                   20960524.1484
  -6870925.39148  -5338144.52046  20050800.6484                   20050799.0864
  -1115516.77748   -857062.84445  21880674.7344                   21880672.7194
  -7493287.05147  -5829433.64844  22797469.0394                   22797468.7074
  -7768733.85947  -6037838.64845  21974723.9774                   21974724.0354
  -4563297.84848  -3547125.97746  21793267.7194                   21793265.4104
 11  8 12 19 51 30.0000000  0  7G17G07G08G11G26G24G28
 -13697772.84447 -10648197.93746  21807657.1484                   21807656.0824
   2669095.20747   2082674.90646  20965690.8754                   20965689.3204
  -6903511.94548  -5363536.65246  20044599.5474                   20044597.4924
  -1102723.40648   -847094.00045  21883109.3524                   21883107.2464
  -7531374.32847  -5859112.05944  22790221.4534                   22790221.0394
  -7804980.04347  -6066082.40245  21967826.9924                   21967826.0354
  -4614157.97348  -3586757.22746  21783589.6484                   21783587.6024
 11  8 12 19 52  0.0000000  0  7G17G07G08G11G26G24G28
 -13787657.88347 -10718238.17646  21790552.2504                   21790551.3134
   2696697.48848   2104183.12946  20970943.2814                   20970941.4574
  -6935565.56648  -5388513.51647  20038500.0164                   20038497.8834
  -1089389.48047   -836703.94545  21885646.8914                   21885644.5554
  -7568863.39847  -5888324.32044  22783086.9454                   22783087.2814
  -7840681.38347  -6093901.60245  21961033.1254                   21961032.7854
  -4664992.29748  -3626368.37546  21773916.2664                   21773913.9494
 11  8 12 19 52 30.0000000  0  7G17G07G08G11G26G24G28
 -13877189.43747 -10788002.96546  21773514.8834                   21773514.4184
   2724762.96148   2126052.27046  20976284.2584                   20976282.5124
  -6967084.34447  -5413073.60946  20032502.1254                   20032499.8874
  -1075515.86748   -825893.35245  21888287.2034                   21888284.5474
  -7605753.66447  -5917069.99644  22776067.6254                   22776067.1334
  -7875836.44547  -6121295.13745  21954343.4454                   21954342.5744
  -4715800.32448  -3665959.03546  21764247.5164                   21764245.2114
 11  8 12 19 53  0.0000000  0  7G17G07G08G11G26G24G28
 -13966368.27047 -10857492.91046  21756544.9534                   21756543.8324
   2753289.20747   2148280.45346  20981712.5554                   20981711.0164
  -6998068.26248  -5437216.93046  20026606.1884                   20026604.3874
  -1061105.36748   -814664.40645  21891029.1024                   21891026.6914
  -7642047.30147  -5945350.76245  22769160.8914                   22769160.7234
  -7910445.86747  -6148263.48845  21947757.8444                   21947756.6174
  -4766583.37948  -3705530.23046  21754584.1954                   21754581.7934
 11  8 12 19 53 30.0000000  0  7G17G07G08G11G26G24G28
 -14055192.09447 -10926706.22346  21739642.2344                   21739640.9734
   2782277.64847   2170868.80146  20987228.7274                   20987227.4494
  -7028513.76248  -5460940.71146  20020812.5164                   20020810.5984
  -1046156.58248   -803016.00845  21893873.6564                   21893871.1214
  -7677742.21547  -5973165.00044  22762368.2974                   22762368.4064
  -7944506.16448  -6174803.95745  21941276.1804                   21941275.2544
  -4817339.31648  -3745080.30146  21744925.4304                   21744923.1484
 11  8 12 19 54  0.0000000  0  7G17G07G08G11G26G24G28
 -14143663.62947 -10995645.03546  21722806.4144                   21722805.6024
   2811723.88347   2193813.85546  20992832.2424                   20992830.5824
  -7058423.00847  -5484246.61746  20015120.8364                   20015119.1524
  -1030674.69948   -790952.21945  21896819.8444                   21896817.3914
  -7712842.27746  -6000515.70744  22755689.0164                   22755688.7734
  -7978019.92247  -6200918.55145  21934898.2734                   21934897.6954
  -4868071.38348  -3784611.76646  21735271.4774                   21735268.5434
 11  8 12 19 54 30.0000000  0  7G17G07G08G11G26G24G28
 -14231779.54347 -11064306.73046  21706038.1804                   21706037.6914
   2841629.88347   2217117.18446  20998523.6564                   20998521.4384
  -7087792.12148  -5507131.65646  20009532.1644                   20009530.9064
  -1014658.30148   -778471.92245  21899867.7974                   21899865.1884
  -7747345.23447  -6027401.13745  22749123.5314                   22749122.9804
  -8010983.77747  -6226604.64545  21928625.5944                   21928625.0434
  -4918776.59848  -3824122.30946  21725622.2274                   21725620.0354
 11  8 12 19 55  0.0000000  0  7G17G07G08G11G26G24G28
 -14319538.54347 -11132690.31246  21689338.4694                   21689337.5704
   2871995.56647   2240778.69946  21004302.2584                   21004300.3094
  -7116618.71147  -5529593.93746  20004046.6644                   20004044.7934
   -998108.11348   -765575.68445  21903017.1174                   21903014.4844
  -7781250.73447  -6053821.01644  22742671.6644                   22742671.2624
  -8043396.02347  -6251860.92245  21922457.6254                   21922457.3524
  -4969454.11748  -3863611.27346  21715979.1724                   21715976.7234
 11  8 12 19 55 30.0000000  0  7G17G07G08G11G26G24G28
 -14406938.81647 -11200794.37946  21672707.0634                   21672705.9964
   2902821.03547   2264798.49646  21010167.7504                   21010166.0314
  -7144900.86747  -5551631.99646  19998664.6024                   19998663.1484
   -981024.16047   -752263.52745  21906268.0004                   21906265.8984
  -7814558.39847  -6079775.03944  22736332.8594                   22736332.6804
  -8075255.02347  -6276686.09045  21916395.4384                   21916394.4024
  -5020103.23048  -3903078.09846  21706340.8524                   21706338.2504
 11  8 12 19 56  0.0000000  0  7G17G07G08G11G26G24G28
 -14493978.82847 -11268617.70746  21656143.6564                   21656142.4384
   2934106.65247   2289176.84846  21016121.3984                   21016119.8324
  -7172635.72748  -5573243.58646  19993387.0704                   19993385.2664
   -963406.68448   -738535.63745  21909620.7194                   21909618.2304
  -7847267.06247  -6105262.31644  22730108.8754                   22730108.3594
  -8106558.39147  -6301078.29745  21910438.5784                   21910437.7034
  -5070722.47748  -3942521.65246  21696708.3134                   21696705.7544
 11  8 12 19 56 30.0000000  0  7G17G07G08G11G26G24G28
 -14580660.26247 -11336161.62946  21639648.7814                   21639647.7584
   2965849.82447   2313911.73446  21022162.0164                   21022160.3874
  -7199823.77748  -5594429.09446  19988213.3364                   19988211.6914
   -945259.12948   -724394.69545  21913074.1724                   21913071.4024
  -7879379.50047  -6130284.99645  22723997.9694                   22723997.8164
  -8137307.15247  -6325038.35545  21904587.0784                   21904586.4304
  -5121313.39848  -3981943.12546  21687081.0634                   21687078.4384
 11  8 12 19 57  0.0000000  0  7G17G07G08G11G26G24G28
 -14666983.68447 -11403426.58246  21623221.8834                   21623220.6644
   2998048.25047   2339001.36746  21028288.8834                   21028287.5904
  -7226465.43447  -5615188.82846  19983143.7034                   19983141.8484
   -926584.02047   -709842.66045  21916627.6564                   21916625.3714
  -7910897.31647  -6154844.34044  22718000.8054                   22718000.4024
  -8167501.92248  -6348566.72745  21898840.9384                   21898840.6914
  -5171877.09848  -4021343.39146  21677458.9614                   21677456.8554
 11  8 12 19 57 30.0000000  0  7G17G07G08G11G26G24G28
 -14752945.19147 -11470409.52346  21606864.0554                   21606863.0434
   3030704.12947   2364447.45346  21034503.2894                   21034501.6414
  -7252556.16048  -5635519.27746  19978178.3754                   19978176.9734
   -907379.53948   -694878.14545  21920282.4304                   21920279.9654
  -7941817.94547  -6178938.35944  22712116.6414                   22712116.2624
  -8197138.64147  -6371660.27045  21893201.6564                   21893201.0744
  -5222410.44948  -4060720.00446  21667843.0084                   21667840.7344
 11  8 12 19 58  0.0000000  0  7G17G07G08G11G26G24G28
 -14838546.07447 -11537111.44946  21590574.3524                   21590573.6604
   3063814.94947   2390248.05146  21040803.8364                   21040802.3164
  -7278096.09047  -5655420.53146  19973318.4304                   19973316.6804
   -887648.93048   -679503.64845  21924036.6094                   21924034.4224
  -7972143.35946  -6202568.57044  22706345.6954                   22706345.4654
  -8226218.43747  -6394319.84845  21887667.7734                   21887667.1644
  -5272914.84048  -4100074.05946  21658232.2114                   21658230.0904
 11  8 12 19 58 30.0000000  0  7G17G07G08G11G26G24G28
 -14923786.88747 -11603532.81246  21574353.5704                   21574352.8444
   3097378.72347   2416401.59046  21047191.1094                   21047189.7814
  -7303085.02048  -5674892.43446  19968563.2114                   19968561.3954
   -867394.62147   -663721.09045  21927891.1644                   21927888.8404
  -8001875.36347  -6225736.37545  22700688.2504                   22700687.9774
  -8254741.40647  -6416545.53945  21882240.1884                   21882239.5084
  -5323391.32048  -4139406.36346  21648627.0554                   21648624.5394
 11  8 12 19 59  0.0000000  0  7G17G07G08G11G26G24G28
 -15008668.64147 -11669674.37946  21558201.3674                   21558200.0704
   3131393.08647   2442906.24246  21053663.9774                   21053662.4734
  -7327523.54748  -5693935.44146  19963912.7664                   19963911.1374
   -846619.37947   -647532.59445  21931844.7344                   21931842.0164
  -8031015.96147  -6248443.34445  22695142.1334                   22695142.5044
  -8282708.37947  -6438337.96945  21876918.0784                   21876917.3714
  -5373840.88348  -4178717.68746  21639026.6884                   21639024.1054
 11  8 12 19 59 30.0000000  0  7G17G07G08G11G26G24G28
 -15093189.24647 -11735534.53546  21542117.6334                   21542116.2934
   3165858.72747   2469762.53946  21060222.4694                   21060220.9104
  -7351408.69147  -5712547.25446  19959367.9304                   19959366.1804
   -825322.98848   -630938.00045  21935897.1174                   21935894.8914
  -8059564.18747  -6270688.73444  22689710.1334                   22689709.9344
  -8310116.86747  -6459695.22745  21871702.4384                   21871702.0314
  -5424261.25448  -4218006.27046  21629431.9844                   21629429.5274
 11  8 12 20  0  0.0000000  0  7G17G07G08G11G26G24G28
 -15177351.35947 -11801115.34846  21526101.8674                   21526100.6764
   3200771.59447   2496967.31346  21066866.4144                   21066864.7894
  -7374742.51248  -5730729.46146  19954927.2274                   19954925.7154
   -803510.16848   -613940.99645  21940047.9774                   21940045.5744
  -8087523.84846  -6292475.49244  22684389.5084                   22684389.4884
  -8336969.40647  -6480619.28145  21866592.3204                   21866591.8634
  -5474655.86348  -4257274.78146  21619841.8834                   21619839.7814
 11  8 12 20  0 30.0000000  0  7G17G07G08G11G26G24G28
 -15261149.09847 -11866412.23046  21510155.7974                   21510154.4304
   3236136.04347   2524523.98046  21073595.8364                   21073594.3874
  -7397518.67648  -5748477.13346  19950593.0474                   19950591.3954
   -781177.07448   -596538.59045  21944297.8834                   21944295.3954
  -8114890.22347  -6313799.94944  22679182.2664                   22679181.7734
  -8363259.86747  -6501105.35245  21861589.2814                   21861589.2504
  -5525019.16848  -4296518.89846  21610258.1804                   21610255.9694
 11  8 12 20  1  0.0000000  0  7G17G07G08G11G26G24G28
 -15344584.05547 -11931426.43446  21494278.3444                   21494277.4384
   3271949.03947   2552430.15646  21080411.0164                   21080409.1334
  -7419737.75447  -5765790.71146  19946365.0234                   19946363.5944
   -758327.16447   -578733.47345  21948645.7344                   21948643.6564
  -8141665.80947  -6334664.05944  22674087.0164                   22674086.6914
  -8388989.55547  -6521154.46545  21856693.2114                   21856692.8594
  -5575352.32047  -4335739.53146  21600680.1884                   21600677.8524
 11  8 12 20  1 30.0000000  0  7G17G07G08G11G26G24G28
 -15427653.05947 -11996155.47346  21478470.9384                   21478469.6174
   3308212.18847   2580687.10946  21087311.5394                   21087310.1054
  -7441396.25847  -5782667.47746  19942243.5474                   19942241.9494
   -734959.69947   -560525.05945  21953092.5314                   21953090.6994
  -8167849.03547  -6355066.57844  22669104.3594                   22669103.8404
  -8414155.48447  -6540764.28545  21851904.3524                   21851904.0704
  -5625652.64847  -4374934.57046  21591108.2814                   21591105.8134
 11  8 12 20  2  0.0000000  0  7G17G07G08G11G26G24G28
 -15510356.66047 -12060599.79346  21462733.0944                   21462731.7304
   3344923.62947   2609293.36746  21094297.3754                   21094295.9494
  -7462493.52048  -5799106.91846  19938229.0164                   19938227.6414
   -711076.32048   -541914.63345  21957637.6094                   21957635.2114
  -8193441.02747  -6375008.40644  22664234.3674                   22664234.0354
  -8438757.73447  -6559934.87545  21847222.9384                   21847222.2304
  -5675920.84048  -4414104.57846  21581542.7034                   21581540.2274
 11  8 12 20  2 30.0000000  0  7G17G07G08G11G26G24G28
 -15592693.99647 -12124758.71146  21447064.5314                   21447063.2034
   3382082.89147   2638248.57846  21101368.9304                   21101367.6334
  -7483028.07448  -5815107.88346  19934321.2894                   19934319.7074
   -686678.47747   -522903.33245  21962280.4844                   21962277.9304
  -8218442.42246  -6394490.02045  22659476.6954                   22659476.1564
  -8462795.55147  -6578665.62945  21842648.5784                   21842647.9494
  -5726155.99247  -4453248.84446  21571983.5004                   21571980.5784
 11  8 12 20  3  0.0000000  0  7G17G07G08G11G26G24G28
 -15674666.25447 -12188633.15246  21431465.5164                   21431464.6094
   3419687.00847   2667550.42646  21108524.7734                   21108523.2774
  -7503001.27748  -5830671.42246  19930520.6564                   19930518.7814
   -661769.93447   -503494.07045  21967020.1484                   21967017.6564
  -8242855.89546  -6413513.51244  22654831.0474                   22654830.6804
  -8486270.28947  -6596957.63745  21838181.2814                   21838180.7894
  -5776360.02747  -4492368.86346  21562429.7274                   21562427.2894
 11  8 12 20  3 30.0000000  0  7G17G07G08G11G26G24G28
 -15756270.41047 -12252220.76646  21415936.8984                   21415935.5354
   3457737.74247   2697200.29746  21115765.3594                   21115764.2624
  -7522408.82447  -5845794.20346  19926827.5784                   19926825.7274
   -636349.09447   -483685.62545  21971857.3984                   21971855.5944
  -8266679.26247  -6432077.18044  22650297.4384                   22650297.1844
  -8509178.22347  -6614807.97345  21833821.9454                   21833821.7624
  -5826529.13347  -4531461.66046  21552882.8674                   21552880.1564
 11  8 12 20  4  0.0000000  0  7G17G07G08G11G26G24G28
 -15837509.36347 -12315523.80546  21400477.6884                   21400476.6884
   3496230.98447   2727194.98446  21123090.6884                   21123089.4534
  -7541252.37548  -5860477.50846  19923241.7814                   19923239.9304
   -610420.57447   -463481.57445  21976791.5704                   21976789.3914
  -8289916.38347  -6450184.05944  22645875.6644                   22645875.3594
  -8531521.93047  -6632218.65645  21829570.3054                   21829569.9304
  -5876666.23447  -4570529.51646  21543342.0474                   21543339.4024
 11  8 12 20  4 30.0000000  0  7G17G07G08G11G26G24G28
 -15918381.04347 -12378540.66046  21385087.9454                   21385086.5984
   3535167.04347   2757534.70746  21130500.0864                   21130498.9184
  -7559530.03948  -5874719.85946  19919763.6174                   19919761.6374
   -583984.81247   -442882.29345  21981821.8204                   21981819.9774
  -8312566.90647  -6467833.83244  22641565.3984                   22641565.3014
  -8553299.61747  -6649188.28945  21825426.3834                   21825426.0084
  -5926769.80547  -4609571.24246  21533807.7504                   21533805.3364
 11  8 12 20  5  0.0000000  0  7G17G07G08G11G26G24G28
 -15998887.92647 -12441273.26646  21369767.9064                   21369766.9024
   3574542.29347   2788216.66046  21137993.3524                   21137991.2854
  -7577243.30948  -5888522.42646  19916392.7274                   19916391.1374
   -557045.83647   -421890.87945  21986948.5394                   21986946.3984
  -8334634.25447  -6485029.18044  22637366.2734                   22637366.1804
  -8574513.23047  -6665718.38345  21821389.6954                   21821388.8674
  -5976841.63748  -4648588.23846  21524279.2114                   21524276.9454
 11  8 12 20  5 30.0000000  0  7G17G07G08G11G26G24G28
 -16079029.07848 -12503720.87946  21354517.7584                   21354516.5394
   3614356.01248   2819240.29346  21145569.5394                   21145567.6764
  -7594391.10948  -5901884.36746  19913129.8444                   19913127.8874
   -529604.77347   -400508.23845  21992170.1884                   21992168.2114
  -8356118.43746  -6501770.13344  22633277.9774                   22633277.9614
  -8595162.00447  -6681808.33645  21817460.0474                   21817459.6094
  -6026881.28548  -4687580.15246  21514756.9454                   21514754.5164
 11  8 12 20  6  0.0000000  0  7G17G07G08G11G26G24G28
 -16158803.46147 -12565882.69546  21339337.5314                   21339335.9774
   3654607.79347   2850605.25446  21153228.7814                   21153227.4104
  -7610971.53148  -5914804.18746  19909974.5784                   19909972.9734
   -501662.49647   -378735.04745  21997487.7734                   21997485.8674
  -8377020.49647  -6518057.46545  22629300.3204                   22629300.4304
  -8615244.93747  -6697457.37145  21813638.5314                   21813638.3524
  -6076887.50848  -4726546.01646  21505240.9774                   21505238.4844
 11  8 12 20  6 30.0000000  0  7G17G07G08G11G26G24G28
 -16238213.02747 -12627760.23446  21324225.8984                   21324224.8324
   3695293.84047   2882308.61746  21160971.0004                   21160969.9494
  -7626986.30548  -5927283.24646  19906927.1174                   19906925.5474
   -473223.64847   -356574.92645  22002899.6724                   22002897.1334
  -8397343.36747  -6533893.47344  22625432.9064                   22625432.8714
  -8634764.17247  -6712667.15245  21809924.0164                   21809923.6764
  -6126862.20747  -4765487.31646  21495731.2424                   21495728.5784
 11  8 12 20  7  0.0000000  0  7G17G07G08G11G26G24G28
 -16317257.23447 -12689353.08246  21309184.9924                   21309183.3874
   3736413.67647   2914349.99246  21168796.0234                   21168794.5984
  -7642433.73448  -5939320.21146  19903987.4384                   19903985.7934
   -444289.09847   -334028.53145  22008405.7734                   22008403.0944
  -8417087.37547  -6549278.42644  22621675.8054                   22621675.7624
  -8653718.80547  -6727436.98445  21806317.0704                   21806316.6134
  -6176804.21547  -4804403.13346  21486227.6804                   21486225.4104
 11  8 12 20  7 30.0000000  0  7G17G07G08G11G26G24G28
 -16395937.86748 -12750662.61746  21294211.9144                   21294210.6094
   3777963.89147   2946726.72746  21176702.9144                   21176701.6564
  -7657315.19948  -5950916.16846  19901155.9924                   19901153.9384
   -414862.70347   -311098.87545  22014005.3674                   22014002.9224
  -8436255.91847  -6564214.96945  22618028.1804                   22618027.7074
  -8672110.34047  -6741768.04345  21802817.0944                   21802817.0044
  -6226715.79347  -4843295.24646  21476729.8134                   21476727.0514
 11  8 12 20  8  0.0000000  0  7G17G07G08G11G26G24G28
 -16474252.89847 -12811687.27046  21279309.1724                   21279307.8834
   3819944.93847   2979439.18446  21184691.6954                   21184690.6094
  -7671628.50848  -5962069.40246  19898432.0784                   19898430.3014
   -384944.75447   -287786.19545  22019698.4924                   22019695.8954
  -8454848.41847  -6578702.63744  22614490.4924                   22614490.2074
  -8689937.06647  -6755658.97745  21799424.5314                   21799424.3164
  -6276594.92247  -4882162.08246  21467238.0234                   21467235.4884
 11  8 12 20  8 30.0000000  0  7G17G07G08G11G26G24G28
 -14976780.42647 -11644825.55546  21564268.8754                   21564267.3554
   5437773.03948   4240084.40646  21492554.2424                   21492552.7274
  -6109953.06248  -4745179.45346  20195609.2584                   20195607.2504
   1220881.28947    963506.81645  22325277.1884                   22325274.8914
  -6897446.57446  -5365142.76644  22910854.1954                   22910853.5204
  -7131779.33647  -5541510.06645  22095932.6564                   22095932.1174
  -4751020.16048  -3693402.50046  21757545.2344                   21757542.2234
 11  8 12 20  9  0.0000000  0  7G17G07G08G11G26G24G28
 -15054366.18447 -11705281.93446  21549504.2504                   21549503.0744
   5480609.48448   4273463.41846  21500705.6724                   21500704.7734
  -6123129.72348  -4755446.99246  20193101.4614                   20193099.6604
   1251775.12147    987579.93045  22331155.5234                   22331153.4064
  -6914892.54347  -5378737.03944  22907534.2584                   22907533.5474
  -7148478.32047  -5554522.23445  22092754.3834                   22092754.1454
  -4800834.80148  -3732219.07446  21748065.7194                   21748063.3164
 11  8 12 20  9 30.0000000  0  7G17G07G08G11G26G24G28
 -15131584.77047 -11765452.20746  21534810.3754                   21534808.8714
   5523874.11747   4307176.07046  21508938.8524                   21508937.2854
  -6135735.24648  -4765269.49246  20190702.8284                   20190701.0664
   1283156.23447   1012032.74645  22337127.1094                   22337124.8444
  -6931764.93747  -5391884.38344  22904323.2734                   22904323.3634
  -7164610.90647  -5567093.05145  22089684.6334                   22089683.9344
  -4850614.67648  -3771008.56646  21738592.6414                   21738590.4884
 11  8 12 20 10  0.0000000  0  7G17G07G08G11G26G24G28
 -15208436.37148 -11825336.52346  21520185.7814                   21520184.5234
   5567565.13748   4341221.00046  21517253.0084                   21517251.4574
  -6147768.79748  -4774646.30146  20188412.7114                   20188411.2624
   1315022.49247   1036863.59445  22343191.2814                   22343189.0594
  -6948065.15647  -5404585.86744  22901221.6334                   22901221.5744
  -7180177.38747  -5579222.73845  22086722.2194                   22086722.1374
  -4900359.42248  -3809770.68746  21729127.0084                   21729124.5474
 11  8 12 20 10 30.0000000  0  7G17G07G08G11G26G24G28
 -15284919.09047 -11884933.39546  21505631.5784                   21505630.0864
   5611682.81347   4375598.37946  21525648.3834                   21525647.4384
  -6159228.01648  -4783575.57446  20186232.4774                   20186230.4534
   1347373.71947   1062072.34445  22349347.6484                   22349345.4184
  -6963792.70347  -5416841.11344  22898228.7814                   22898228.4384
  -7195175.64847  -5590909.65245  22083868.4614                   22083868.1604
  -4950066.77348  -3848503.65646  21719667.6724                   21719665.2234
 11  8 12 20 11  0.0000000  0  7G17G07G08G11G26G24G28
 -15361034.87547 -11944244.34046  21491147.1724                   21491145.6024
   5656223.51647   4410305.38346  21534124.0314                   21534122.9574
  -6170114.39148  -4792058.48046  20184160.7504                   20184159.0594
   1380205.95747   1087655.91845  22355595.2344                   22355592.6684
  -6978951.09447  -5428652.85944  22895344.1254                   22895344.0554
  -7209607.87147  -5602155.50845  22081122.3674                   22081121.7154
  -4999738.74648  -3887209.06646  21710215.5164                   21710212.9924
 11  8 12 20 11 30.0000000  0  7G17G07G08G11G26G24G28
 -15436781.25447 -12003267.44946  21476733.1564                   21476731.4494
   5701188.31647   4445342.85246  21542680.4614                   21542679.4224
  -6180425.31648  -4800092.97746  20182198.8914                   20182196.8094
   1413519.57447   1113614.57445  22361934.8204                   22361932.8094
  -6993539.19547  -5440020.22745  22892568.3914                   22892568.2664
  -7223471.59447  -5612958.36345  22078484.2114                   22078483.5164
  -5049372.58648  -3925884.75046  21700770.2814                   21700767.5904
 11  8 12 20 12  0.0000000  0  7G17G07G08G11G26G24G28
 -15512156.62147 -12062001.44946  21462389.7034                   21462388.4304
   5746577.53947   4480711.02346  21551318.0004                   21551317.1454
  -6190158.21948  -4807677.05946  20180346.6414                   20180345.1254
   1447314.23047   1139948.05945  22368365.5944                   22368363.4804
  -7007556.68747  -5450942.95745  22889900.9614                   22889900.7814
  -7236765.34447  -5623317.09045  22075954.1254                   22075953.5514
  -5098965.89148  -3964528.85946  21691333.2274                   21691330.5234
 11  8 12 20 12 30.0000000  0  7G17G07G08G11G26G24G28
 -15587165.09848 -12120449.57446  21448116.0944                   21448114.7424
   5792385.32847   4516405.35546  21560034.8524                   21560033.9774
  -6199317.29748  -4814814.02046  20178603.7664                   20178601.7974
   1481583.84447   1166651.63345  22374886.7974                   22374884.5474
  -7021009.16047  -5461425.43045  22887340.5864                   22887341.0704
  -7249493.34847  -5633234.98445  22073531.6724                   22073531.3674
  -5148522.53148  -4003144.39546  21681902.7034                   21681900.6214
 11  8 12 20 13  0.0000000  0  7G17G07G08G11G26G24G28
 -15661801.00047 -12178607.37946  21433913.2424                   21433911.5864
   5838615.99647   4552429.20746  21568832.4224                   21568831.0864
  -6207896.25848  -4821498.93746  20176970.9534                   20176969.3554
   1516331.81647   1193727.96145  22381499.1484                   22381496.4614
  -7033892.39847  -5471464.34044  22884889.3594                   22884888.9414
  -7261649.98447  -5642707.65645  22071218.3914                   22071217.8134
  -5198036.68448  -4041726.82846  21672480.6024                   21672478.2704
 11  8 12 20 13 30.0000000  0  7G17G07G08G11G26G24G28
 -15736067.16047 -12236477.07446  21419781.2114                   21419779.5354
   5885265.26247   4588779.23446  21577709.7734                   21577708.4774
  -6215897.20748  -4827733.45746  20175448.5634                   20175446.8984
   1551553.68847   1221173.56345  22388201.9694                   22388199.0124
  -7046210.62546  -5481062.98445  22882545.5164                   22882545.3634
  -7273238.01647  -5651737.25445  22069013.4144                   22069013.2934
  -5247510.77048  -4080278.03546  21663066.4064                   21663063.3554
 11  8 12 20 14  0.0000000  0  7G17G07G08G11G26G24G28
 -15809962.82447 -12294058.06646  21405718.8834                   21405717.5274
   5932332.18047   4625454.70746  21586665.9614                   21586664.7774
  -6223319.03948  -4833516.72746  20174036.0784                   20174034.4614
   1587247.84047   1248987.16445  22394993.8674                   22394991.8594
  -7057964.77747  -5490222.07844  22880308.9694                   22880308.7154
  -7284257.23847  -5660323.64145  22066916.2584                   22066916.1914
  -5296943.44148  -4118796.96946  21653659.4384                   21653656.7974
 11  8 12 20 14 30.0000000  0  7G17G07G08G11G26G24G28
 -15883488.12947 -12351350.46946  21391727.3914                   21391725.9344
   5979815.12947   4662454.35246  21595702.0164                   21595700.4964
  -6230162.03948  -4838848.95346  20172734.1174                   20172732.3634
   1623412.02347   1277167.02745  22401876.0164                   22401873.8674
  -7069156.24647  -5498942.73044  22878179.0554                   22878178.6604
  -7294707.94147  -5668467.02045  22064927.6024                   22064927.5904
  -5346334.39148  -4157283.39546  21644260.4694                   21644257.6884
 11  8 12 20 15  0.0000000  0  7G17G07G08G11G26G24G28
 -15956641.37147 -12408352.96146  21377806.8754                   21377805.2504
   6027714.59847   4699778.57046  21604816.6094                   21604815.6454
  -6236423.38748  -4843727.94946  20171542.5474                   20171540.9734
   1660046.10247   1305713.03545  22408847.0864                   22408845.4224
  -7079784.69147  -5507224.66044  22876156.3204                   22876156.4414
  -7304588.19148  -5676165.89145  22063047.5004                   22063047.7034
  -5395681.01648  -4195735.28546  21634869.9614                   21634867.6024
 11  8 12 20 15 30.0000000  0  7G17G07G08G11G26G24G28
 -16029422.53148 -12465065.51246  21363956.7424                   21363955.5864
   6076028.74647   4737425.89546  21614010.5554                   21614009.5204
  -6242103.34848  -4848153.91846  20170462.0164                   20170460.3444
   1697148.16447   1334623.71545  22415907.8594                   22415905.6374
  -7089851.83647  -5515069.21545  22874240.7894                   22874240.6174
  -7313898.25847  -5683420.45745  22061276.2424                   22061275.5784
  -5444983.26648  -4234152.59846  21625488.1174                   21625485.2504
 11  8 12 20 16  0.0000000  0  7G17G07G08G11G26G24G28
 -16101831.64148 -12521488.15646  21350178.2344                   21350176.5704
   6124756.03547   4775395.16846  21623283.1884                   21623281.9024
  -6247201.40648  -4852126.45346  20169492.1024                   20169490.0784
   1734716.12947   1363897.42245  22423056.7504                   22423054.5124
  -7099359.33247  -5522477.69144  22872431.2274                   22872431.5084
  -7322638.36347  -5690230.90645  22059612.8674                   22059612.4344
  -5494240.58648  -4272534.89846  21616114.8594                   21616112.1724
 11  8 12 20 16 30.0000000  0  7G17G07G08G11G26G24G28
 -16173873.96948 -12577625.00046  21336468.8834                   21336467.5274
   6173889.60547   4813681.00846  21632632.6174                   21632631.7624
  -6251722.19548  -4855649.16446  20168631.4774                   20168629.6604
   1772742.47747   1393528.32045  22430292.4844                   22430290.4264
  -7108313.79747  -5529455.21944  22870727.3914                   22870727.3984
  -7330814.11747  -5696601.60245  22058057.0084                   22058056.3244
  -5543457.84448  -4310885.98446  21606749.2274                   21606746.7384
 11  8 12 20 17  0.0000000  0  7G17G07G08G11G26G24G28
 -16245546.84047 -12633473.96546  21322829.7894                   21322828.3524
   6223430.69947   4852284.40246  21642060.5004                   21642059.3134
  -6255662.74648  -4858719.74646  20167881.4534                   20167880.0084
   1811227.94947   1423516.99245  22437616.3364                   22437614.4024
  -7116714.08647  -5536000.94545  22869129.0864                   22869129.3094
  -7338422.88747  -5702530.49645  22056608.9224                   22056608.6724
  -5592631.56248  -4349203.15646  21597391.3834                   21597389.0044
 11  8 12 20 17 30.0000000  0  7G17G07G08G11G26G24G28
 -16316852.20348 -12689036.55546  21309260.8134                   21309259.3794
   6273376.12147   4891202.86346  21651564.6254                   21651563.9414
  -6259024.95348  -4861339.66046  20167241.8134                   20167239.9494
   1850168.69547   1453860.41044  22445026.5004                   22445024.3324
  -7124563.78947  -5542117.63745  22867635.4454                   22867635.5314
  -7345466.70747  -5708019.16845  22055268.6884                   22055268.1094
  -5641763.13348  -4387487.47346  21588041.7344                   21588039.3674
 11  8 12 20 18  0.0000000  0  7G17G07G08G11G26G24G28
 -16387792.05948 -12744314.34046  21295761.5084                   21295760.2974
   6323722.28547   4930433.58246  21661145.2344                   21661144.5984
  -6261809.95348  -4863509.80946  20166711.8594                   20166710.2544
   1889560.71947   1484555.47745  22452522.5944                   22452520.2074
  -7131866.13747  -5547807.81245  22866245.8914                   22866245.8134
  -7351947.77748  -5713069.33645  22054035.5634                   22054034.5274
  -5690853.74248  -4425739.86746  21578700.3834                   21578697.9534
 11  8 12 20 18 30.0000000  0  7G17G07G08G11G26G24G28
 -16458364.60947 -12799305.90246  21282332.0394                   21282330.4264
   6374469.17647   4969976.56346  21670802.0784                   21670801.2344
  -6264016.46548  -4865229.18446  20166292.0394                   20166290.4104
   1929403.61347   1515601.86745  22460104.6094                   22460102.1684
  -7138621.13347  -5553071.48845  22864960.2734                   22864960.7344
  -7357864.68447  -5717679.88745  22052909.1254                   22052908.7114
  -5739901.34448  -4463958.75846  21569367.0634                   21569364.6454
 11  8 12 20 19  0.0000000  0  7G17G07G08G11G26G24G28
 -16528571.16048 -12854012.27746  21268971.9064                   21268970.6094
   6425614.00047   5009829.61346  21680534.6954                   21680534.1454
  -6265645.18748  -4866498.34046  20165982.0314                   20165980.5044
   1969693.87947   1546996.85944  22467771.3284                   22467769.0744
  -7144831.79347  -5557910.99644  22863778.4774                   22863778.6764
  -7363219.04748  -5721852.09445  22051890.5084                   22051889.8134
  -5788906.58248  -4502144.64146  21560041.6884                   21560039.0554
 11  8 12 20 19 30.0000000  0  7G17G07G08G11G26G24G28
 -16598411.46548 -12908433.25846  21255681.7274                   21255680.3404
   6477155.40647   5049991.69146  21690342.8524                   21690341.8874
  -6266695.64548  -4867316.88746  20165782.0474                   20165780.2624
   2010429.77747   1578739.10545  22475523.2194                   22475521.2774
  -7150499.41047  -5562327.35245  22862699.6254                   22862699.9884
  -7368011.00448  -5725586.05945  22050978.5234                   22050977.7344
  -5837868.20348  -4540296.52746  21550724.4694                   21550721.6804
 11  8 12 20 20  0.0000000  0  7G17G07G08G11G26G24G28
 -16667886.77748 -12962569.82846  21242461.0084                   21242459.5984
   6529090.75047   5090460.73446  21700226.0004                   21700225.2074
  -6267168.51648  -4867685.37546  20165692.1254                   20165690.3094
   2051608.31347   1610826.25044  22483359.2974                   22483356.7114
  -7155626.78547  -5566322.73444  22861724.1644                   22861724.5594
  -7372241.93447  -5728882.85945  22050173.4224                   22050172.7894
  -5886786.86748  -4578414.93746  21541415.3914                   21541412.6054
 11  8 12 20 20 30.0000000  0  7G17G07G08G11G26G24G28
 -16736997.09848 -13016421.98046  21229309.7734                   21229308.4884
   6581418.50847   5131235.55146  21710183.4224                   21710182.5514
  -6267063.91448  -4867603.87546  20165712.2664                   20165710.2584
   2093227.14847   1643256.49244  22491279.0634                   22491276.4494
  -7160215.48846  -5569898.36345  22860851.4534                   22860851.6214
  -7375912.11747  -5731742.73845  22049475.1254                   22049474.2544
  -5935661.91448  -4616499.35946  21532114.7894                   21532112.4344
 11  8 12 20 21  0.0000000  0  7G17G07G08G11G26G24G28
 -16805744.31248 -13069991.19146  21216227.5634                   21216226.0744
   6634135.12947   5172313.37946  21720215.2504                   21720214.1294
  -6266383.13748  -4867073.41446  20165841.5004                   20165839.6134
   2135282.25847   1676026.70344  22499281.4774                   22499279.3364
  -7164269.10947  -5573057.06244  22860079.9224                   22860079.6484
  -7379023.76647  -5734167.37945  22048882.9694                   22048882.3794
  -5984494.50848  -4654550.71946  21522822.4844                   21522819.7774
 11  8 12 20 21 30.0000000  0  7G17G07G08G11G26G24G28
 -16874123.56648 -13123273.68046  21203215.4614                   21203214.0354
   6687243.75047   5213696.65646  21730321.5554                   21730320.6684
  -6265121.60248  -4866090.41846  20166081.6884                   20166080.1524
   2177777.16447   1709139.58245  22507368.4144                   22507365.9184
  -7167784.45347  -5575796.34444  22859411.0634                   22859410.8984
  -7381572.28547  -5736153.21945  22048397.8594                   22048397.3524
  -6033279.04748  -4692564.62946  21513538.8984                   21513536.1254
 11  8 12 20 22  0.0000000  0  7G17G07G08G11G26G24G28
 -16942138.14548 -13176271.99246  21190272.2034                   21190271.2344
   6740740.48047   5255382.35546  21740501.6484                   21740501.0784
  -6263282.05148  -4864657.02046  20166431.9384                   20166430.1254
   2220706.07847   1742590.67245  22515537.9304                   22515535.4734
  -7170765.88747  -5578119.57844  22858843.1484                   22858843.5474
  -7383560.98847  -5737702.84845  22048019.5084                   22048018.7894
  -6082017.55148  -4730542.66846  21504264.2584                   21504261.5234
 11  8 12 20 22 30.0000000  0  8G17G07G08G11G04G26G24G28
 -17009792.05148 -13228989.28546  21177398.5554                   21177396.8484
   6794618.55147   5297365.21146  21750754.5784                   21750753.7114
  -6260868.39148  -4862776.25846  20166891.3594                   20166889.4534
   2264062.79747   1776375.11345  22523787.9774                   22523785.8324
   6045211.62956   4722020.81653  24552084.8674                   24552092.3204
  -7173219.91847  -5580031.85544  22858376.9534                   22858377.0234
  -7384994.62947  -5738819.95745  22047746.7194                   22047746.0084
  -6130713.53948  -4768487.58646  21494997.5234                   21494994.9454
 11  8 12 20 23  0.0000000  0  8G17G07G08G11G04G26G24G28
 -17077094.19548 -13281432.46146  21164591.2894                   21164589.9384
   6848868.11747   5339637.54346  21761077.7344                   21761077.1174
  -6257889.27348  -4860454.89146  20167457.9614                   20167456.3914
   2307836.35947   1810484.37144  22532118.1254                   22532115.7234
   5903373.55146   4611497.96143  24525094.3134                   24525100.4534
  -7175156.53547  -5581540.95345  22858008.3754                   22858008.5594
  -7385882.45747  -5739511.75045  22047577.4774                   22047576.8634
  -6179375.38748  -4806405.88746  21485737.6174                   21485734.8204
 11  8 12 20 23 30.0000000  0  8G17G07G08G11G04G26G24G28
 -17144043.94948 -13333601.05946  21151850.9614                   21151849.7424
   6903487.99647   5382198.41446  21771471.8204                   21771471.2074
  -6254344.30148  -4857692.59446  20168132.3834                   20168130.8984
   2352025.53947   1844917.49644  22540526.3914                   22540524.5634
   5761460.48846   4500916.68043  24498088.9454                   24498095.7624
  -7176577.28947  -5582648.07844  22857737.9694                   22857738.3634
  -7386224.32447  -5739778.13345  22047512.6174                   22047511.8524
  -6228001.35248  -4844296.23446  21476484.2274                   21476481.7894
 11  8 12 20 24  0.0000000  0  8G17G07G08G11G04G26G24G28
 -17210638.97748 -13385493.25046  21139178.6804                   21139176.8834
   6958478.98847   5425048.48046  21781936.0394                   21781935.2274
  -6250230.83648  -4854487.32846  20168915.0474                   20168913.7464
   2396630.51247   1879674.60945  22549015.0554                   22549012.5044
   5619477.65646   4390280.95743  24471070.2424                   24471076.4614
  -7177481.31647  -5583352.55945  22857566.1724                   22857566.1564
  -7386018.25847  -5739617.55145  22047552.0864                   22047551.0394
  -6276588.23448  -4882156.11746  21467238.4144                   21467236.0514
 11  8 12 20 24 30.0000000  0  8G17G07G08G11G04G26G24G28
 -17276875.15648 -13437105.82046  21126573.9774                   21126572.4884
   7013844.08247   5468190.03946  21792471.8594                   21792471.3874
  -6245543.91048  -4850835.19946  20169807.1094                   20169805.6954
   2441653.81347   1914757.68844  22557582.8524                   22557580.1844
   5477432.64547   4279596.80543  24444040.6334                   24444046.1524
  -7177865.78147  -5583652.18744  22857492.2974                   22857492.9694
  -7385260.09847  -5739026.76245  22047696.2814                   22047695.0274
  -6325130.62948  -4919981.34046  21458000.9614                   21457998.5784
 11  8 12 20 25  0.0000000  0  8G17G07G08G11G04G26G24G28
 -17342746.99648 -13488434.49246  21114039.0864                   21114037.6604
   7069587.18847   5511626.15646  21803079.4614                   21803078.5434
  -6240278.35248  -4846732.19946  20170809.3914                   20170808.0354
   2487098.61347   1950169.20744  22566230.3674                   22566228.2194
   5335333.16047   4168870.19943  24416999.1884                   24417005.3914
  -7177727.21546  -5583544.25444  22857518.8444                   22857519.6644
  -7383945.02047  -5738002.02345  22047946.3914                   22047945.6414
  -6373622.56648  -4957767.25446  21448773.4454                   21448771.1254
 11  8 12 20 25 30.0000000  0  8G17G07G08G11G04G26G24G28
 -17408251.24648 -13539476.74246  21101574.0554                   21101572.4344
   7125709.84847   5555358.03146  21813758.9454                   21813758.4304
  -6234430.78548  -4842175.68046  20171921.9614                   20171920.3484
   2532966.23847   1985910.19944  22574958.7424                   22574956.4694
   5193185.77046   4058106.26243  24389948.4844                   24389954.7194
  -7177063.95747  -5583027.47345  22857645.4064                   22857645.4804
  -7382070.03547  -5736540.97745  22048303.2194                   22048302.3794
  -6422059.67648  -4995510.45346  21439556.5084                   21439553.7664
 11  8 12 20 26  0.0000000  0  8G17G07G08G11G04G26G24G28
 -17473387.53548 -13590232.27346  21089179.1564                   21089177.3714
   7182211.01647   5599384.85545  21824510.8204                   21824510.1914
  -6228001.25448  -4837165.68446  20173145.6414                   20173144.1884
   2579255.10547   2021979.43844  22583767.1334                   22583764.8674
   5050993.59846   3947307.42243  24362890.0004                   24362897.0434
  -7175877.49646  -5582103.00045  22857871.5944                   22857871.6134
  -7379635.16847  -5734643.65645  22048766.4614                   22048765.5044
  -6470440.44548  -5033209.73846  21430349.7274                   21430347.1414
 11  8 12 20 26 30.0000000  0  8G17G07G08G11G04G26G24G28
 -17538153.83248 -13640699.49246  21076854.3134                   21076852.6954
   7239090.98047   5643706.84046  21835335.0474                   21835334.1174
  -6220986.92648  -4831700.00046  20174480.5474                   20174478.9414
   2625964.77047   2058376.56344  22592655.8284                   22592653.9614
   4908761.86746   3836477.83243  24335824.4304                   24335830.5314
  -7174167.28146  -5580770.40244  22858197.1174                   22858196.8754
  -7376638.89847  -5732308.89145  22049336.1094                   22049335.9694
  -6518761.81648  -5070862.75046  21421154.5004                   21421151.8754
 11  8 12 20 27  0.0000000  0  8G17G07G08G11G04G26G24G28
 -17602552.71148 -13690880.41846  21064599.5554                   21064598.2114
   7296345.74247   5688320.87946  21846230.7344                   21846229.1954
  -6213390.44948  -4825780.70346  20175926.0554                   20175924.3594
   2673090.85947   2095098.17644  22601623.9384                   22601621.1994
   4766490.64546   3725617.38343  24308750.3834                   24308756.4064
  -7171937.89847  -5579033.25845  22858620.9064                   22858621.4694
  -7373084.36747  -5729539.12145  22050013.0634                   22050012.4024
  -6567025.84048  -5108471.07046  21411970.1724                   21411967.5124
 11  8 12 20 27 30.0000000  0  8G17G07G08G11G04G26G24G28
 -17666580.78148 -13740772.39146  21052415.6644                   21052414.3284
   7353976.90647   5733228.20346  21857197.3674                   21857196.2664
  -6205208.75848  -4819405.38346  20177483.0784                   20177481.6134
   2720634.85547   2132145.42244  22610671.0314                   22610668.4454
   4624186.31346   3614731.17243  24281671.4304                   24281676.6804
  -7169187.60947  -5576890.20345  22859144.5474                   22859144.6914
  -7368968.79347  -5726332.20345  22050796.0234                   22050795.3484
  -6615227.89148  -5146031.10546  21402797.6564                   21402795.0354
 11  8 12 20 28  0.0000000  0  8G17G07G08G11G04G26G24G28
 -17730241.48848 -13790378.10246  21040301.1954                   21040299.5044
   7411979.54347   5778425.00045  21868235.0634                   21868233.7584
  -6196445.01248  -4812576.51246  20179150.8754                   20179149.1884
   2768591.52347   2169514.22344  22619796.1804                   22619794.4614
   4481848.87946   3503819.14143  24254585.7034                   24254589.8244
  -7165921.56246  -5574345.27345  22859765.9304                   22859766.4924
  -7364295.78547  -5722690.85545  22051685.3524                   22051684.2234
  -6663369.96148  -5183544.39546  21393636.3524                   21393633.8524
 11  8 12 20 28 30.0000000  0  8G17G07G08G11G04G26G24G28
 -17793531.06248 -13839694.62546  21028257.5084                   21028255.8914
   7470355.87947   5823912.97346  21879343.7894                   21879343.0944
  -6187095.55148  -4805291.24246  20180930.1254                   20180928.2704
   2816962.36347   2207205.76644  22629001.3984                   22628999.0274
   4339484.73846   3392886.27043  24227494.1254                   24227498.7194
  -7162137.87947  -5571396.99244  22860485.7584                   22860486.0084
  -7359062.07847  -5718612.64545  22052681.6884                   22052680.9694
  -6711447.64148  -5221007.50846  21384487.6094                   21384485.0084
 11  8 12 20 29  0.0000000  0  8G17G07G08G11G04G26G24G28
 -17856450.51648 -13888722.73846  21016284.2814                   21016282.7584
   7529103.59847   5869690.33646  21890522.8054                   21890522.2234
  -6177160.86348  -4797549.94946  20182820.3984                   20182818.6954
   2865744.52747   2245217.81644  22638284.3914                   22638282.7274
   4197096.14846   3281934.37143  24200397.7584                   24200403.1644
  -7157839.27347  -5568047.46544  22861303.3834                   22861304.2194
  -7353268.98047  -5714098.53945  22053783.8984                   22053783.0004
  -6759460.61747  -5258420.20346  21375351.0554                   21375348.3404
 11  8 12 20 29 30.0000000  0  8G17G07G08G11G04G26G24G28
 -17919000.98048 -13937463.32446  21004381.5474                   21004379.6524
   7588219.87947   5915754.88345  21901772.4224                   21901771.8524
  -6166642.56648  -4789353.89846  20184821.7734                   20184820.5664
   2914934.66847   2283547.75844  22647644.9224                   22647643.0044
   4054684.97746   3170964.90643  24173297.4534                   24173302.7734
  -7153028.60247  -5564298.92645  22862219.3834                   22862219.3404
  -7346918.46947  -5709150.08645  22054991.8054                   22054991.3794
  -6807408.91048  -5295782.49646  21366226.6804                   21366223.9024
 11  8 12 20 30  0.0000000  0  8G17G07G08G11G04G26G24G28
 -17981182.21948 -13985916.19546  20992548.6724                   20992546.9924
   7647703.15647   5962105.39845  21913091.2974                   21913091.2424
  -6155540.52348  -4780702.97346  20186934.6804                   20186933.4104
   2964531.12947   2322194.32844  22657082.9224                   22657080.9654
   3912254.60546   3059980.48043  24146193.7894                   24146199.3054
  -7147707.46147  -5560152.62544  22863232.1024                   22863232.3484
  -7340010.90647  -5703767.56245  22056306.4304                   22056305.6684
  -6855291.39848  -5333093.50846  21357115.1644                   21357112.6644
 11  8 12 20 30 30.0000000  0  8G17G07G08G11G04G26G24G28
 -18042995.03148 -14034081.98046  20980785.9384                   20980783.9694
   7707551.30547   6008740.22745  21924480.9144                   21924480.1134
  -6143855.29748  -4771597.62546  20189158.2664                   20189156.0594
   3014531.17647   2361155.37944  22666597.8834                   22666595.7544
   3769807.12946   2948982.78943  24119087.4454                   24119091.7974
  -7141878.37947  -5555610.51245  22864341.0004                   22864341.3914
  -7332547.32847  -5697951.78545  22057727.0944                   22057726.1914
  -6903107.37548  -5370352.69546  21348015.7274                   21348013.1994
 11  8 12 20 31  0.0000000  0  8G17G07G08G11G04G26G24G28
 -18104437.62948 -14081959.28546  20969094.1644                   20969092.0434
   7767764.48447   6055659.50445  21935938.7274                   21935938.1644
  -6131585.16848  -4762036.50846  20191492.9224                   20191492.0594
   3064934.49247   2400430.66444  22676188.8364                   22676186.9924
   3627347.50446   2837975.60943  24091977.4454                   24091982.6724
  -7135541.43747  -5550672.67644  22865547.0394                   22865547.2384
  -7324526.77347  -5691702.00845  22059252.7344                   22059252.5784
  -6950853.96948  -5407557.80546  21338930.0084                   21338927.2624
 11  8 12 20 31 30.0000000  0  8G17G07G08G11G04G26G24G28
 -18165512.38348 -14129549.96146  20957471.8914                   20957470.0824
   7828339.08647   6102860.41445  21947466.1954                   21947465.1294
  -6118732.37148  -4752021.36746  20193939.1804                   20193937.8634
   3115736.80947   2440016.85244  22685856.1254                   22685854.3094
   3484876.84446   2726959.82443  24064865.8524                   24064871.0204
  -7128700.68747  -5545342.25844  22866848.8754                   22866849.5594
  -7315951.80147  -5685020.20745  22060885.0944                   22060884.3444
  -6998532.39848  -5444709.80946  21329856.7814                   21329854.2894
 11  8 12 20 32  0.0000000  0  8G17G07G08G11G04G26G24G28
 -18226220.91048 -14176855.26246  20945919.1094                   20945917.4654
   7889271.82047   6150340.39845  21959060.8674                   21959060.3594
  -6105299.16048  -4741553.95746  20196495.4064                   20196493.9884
   3166934.51647   2479911.13344  22695599.1254                   22695596.9264
   3342396.56346   2615936.55543  24037752.8364                   24037758.0554
  -7121359.69547  -5539622.04344  22868246.2424                   22868245.9804
  -7306824.67247  -5677908.14845  22062621.9844                   22062620.8554
  -7046142.80148  -5481808.79746  21320796.7814                   21320794.2504
 11  8 12 20 32 30.0000000  0  8G17G07G08G11G04G26G24G28
 -18286561.57848 -14223873.91846  20934436.4384                   20934434.9384
   7950562.62547   6198099.39145  21970724.6094                   21970723.8054
  -6091283.70348  -4730632.84046  20199162.3054                   20199160.8524
   3218527.29747   2520113.26244  22705417.0634                   22705414.7544
   3199911.04746   2504909.21944  24010638.5944                   24010642.8404
  -7113518.77347  -5533512.26644  22869738.0394                   22869738.4184
  -7297144.40647  -5670365.08245  22064463.7584                   22064463.4064
  -7093682.74648  -5518852.88346  21311750.4534                   21311747.6414
 11  8 12 20 33  0.0000000  0  8G17G07G08G11G04G26G24G28
 -18346537.50448 -14270608.37146  20923023.5164                   20923021.6724
   8012206.50847   6246133.51245  21982454.8054                   21982453.7154
  -6076689.55548  -4719260.80946  20201939.7114                   20201938.0434
   3270509.78147   2560619.06344  22715309.1254                   22715306.8984
   3057420.46146   2393877.89843  23983523.0084                   23983527.8874
  -7105183.02047  -5527016.92245  22871324.3914                   22871324.3484
  -7286915.13347  -5662394.20745  22066410.0394                   22066409.9614
  -7141154.37548  -5555843.73446  21302716.8524                   21302714.0474
 11  8 12 20 33 30.0000000  0  8G17G07G08G11G04G26G24G28
 -18406150.74248 -14317060.21546  20911679.7194                   20911677.8134
   8074200.57047   6294440.50445  21994252.0084                   21994251.2704
  -6061517.74648  -4707438.63346  20204826.5864                   20204824.8914
   3322878.52747   2601425.85244  22725274.2734                   22725272.1174
   2914926.85546   2282844.21143  23956406.8674                   23956411.7384
  -7096355.34447  -5520138.26645  22873004.2504                   22873004.3554
  -7276138.46947  -5653996.79745  22068461.0864                   22068460.6374
  -7188557.28548  -5592781.03946  21293696.5784                   21293693.5434
 11  8 12 20 34  0.0000000  0  8G17G07G08G11G04G26G24G28
 -18465405.07048 -14363232.38746  20900403.9844                   20900402.0904
   8136539.28547   6343016.03945  22006114.3754                   22006114.3094
  -6045773.25448  -4695170.22746  20207822.7584                   20207821.3714
   3375627.31347   2642528.78144  22735312.1024                   22735309.9614
   2772428.89146   2171807.14843  23929290.2424                   23929295.3874
  -7087042.19947  -5512881.32844  22874776.5474                   22874776.8484
  -7264819.58247  -5645176.87945  22070614.7504                   22070614.4574
  -7235894.66448  -5629667.28946  21284688.3364                   21284685.5514
 11  8 12 20 34 30.0000000  0  8G17G07G08G11G04G26G24G28
 -18524298.44148 -14409123.30546  20889196.8444                   20889195.1294
   8199223.03547   6391860.42645  22018042.8674                   22018042.8324
  -6029454.08648  -4682454.02046  20210928.1094                   20210926.7074
   3428756.54347   2683928.15244  22745422.7114                   22745420.6214
   2629932.01246   2060770.92243  23902173.6724                   23902178.3364
  -7077243.21547  -5505245.80144  22876641.3984                   22876641.3594
  -7252956.70747  -5635933.09045  22072872.8524                   22072871.9454
  -7283162.95348  -5666499.69946  21275693.7274                   21275690.7894
 11  8 12 20 35  0.0000000  0  8G17G07G08G11G04G26G24G28
 -18582835.39147 -14454736.48846  20878057.6094                   20878055.7464
   8262245.88747   6440969.05545  22030035.5784                   22030035.6094
  -6012564.39548  -4669293.24646  20214142.4454                   20214140.7974
   3482259.78147   2725618.94544  22755603.8754                   22755601.8444
   2487435.04346   1949734.56643  23875057.8674                   23875062.0784
  -7066964.69947  -5497236.62144  22878597.4614                   22878597.6294
  -7240554.98447  -5626269.40245  22075232.4224                   22075231.8754
  -7330365.39548  -5703280.80546  21266711.4924                   21266708.3554
 11  8 12 20 35 30.0000000  0  8G17G07G08G11G04G26G24G28
 -17065592.75047 -13272469.46946  21166779.2814                   21166777.4964
   9901025.00447   7717939.70345  22341884.9924                   22341884.8594
  -4419683.89148  -3428087.68746  20517257.4304                   20517255.9734
   5111554.16447   3995198.94544  23065648.3444                   23065645.9694
   3920367.16047   3066305.33243  24147735.5784                   24147739.4574
  -5480787.85547  -4261254.71145  23180436.6724                   23180436.9734
  -5652194.74647  -4388586.10945  22377487.3674                   22377486.8554
  -5802077.81248  -4512407.34046  21557534.7034                   21557532.0234
 11  8 12 20 36  0.0000000  0  8G17G07G08G11G04G26G24G28
 -17123414.27347 -13317525.18046  21155776.0084                   21155774.2974
   9964723.46947   7767574.77745  22354006.8444                   22354006.7194
  -4401651.63348  -3414036.59846  20520688.7194                   20520687.3634
   5165801.47347   4037469.54344  23075971.0634                   23075968.4104
   3777882.19947   2955278.32843  24120621.5394                   24120625.2974
  -5469553.48847  -4252500.71945  23182574.3134                   23182575.2384
  -5638715.19947  -4378082.58245  22380052.3364                   22380051.7114
  -5849141.70748  -4549080.48446  21548578.8524                   21548575.9494
 11  8 12 20 36 30.0000000  0  8G17G07G08G11G04G26G24G28
 -17180883.44548 -13362306.32446  21144840.2974                   21144838.0434
  10028752.47747   7817467.43045  22366191.0944                   22366190.6724
  -4383053.73048  -3399544.76646  20524227.9534                   20524226.5474
   5220413.03147   4080023.99244  23086363.1174                   23086361.5354
   3635403.05147   2844255.85243  24093508.2664                   24093511.7814
  -5457849.47747  -4243380.76645  23184801.7034                   23184801.9774
  -5624702.78147  -4367163.81645  22382719.0164                   22382718.4104
  -5896139.72748  -4585702.29746  21539634.9924                   21539632.3634
 11  8 12 20 37  0.0000000  0  8G17G07G08G11G04G26G24G28
 -17237996.82848 -13406810.23046  21133971.7664                   21133969.9734
  10093113.18047   7867618.53545  22378438.8754                   22378438.6994
  -4363887.32048  -3384609.92646  20527875.0314                   20527873.7974
   5275389.49247   4122862.76244  23096824.8134                   23096822.6294
   3492936.08647   2733242.88743  24066397.6174                   24066402.0084
  -5445674.34447  -4233893.70745  23187118.8204                   23187119.3404
  -5610155.14547  -4355828.00045  22385487.5084                   22385486.3984
  -5943067.44548  -4622269.32846  21530705.2814                   21530702.1804
 11  8 12 20 37 30.0000000  0  8G17G07G08G11G04G26G24G28
 -17294757.18748 -13451039.04346  21123170.5234                   21123168.7034
  10157801.82047   7918025.18045  22390748.9144                   22390748.3204
  -4344155.12948  -3369234.22346  20531630.1414                   20531628.7734
   5330727.05147   4165982.90244  23107355.3674                   23107353.5904
   3350482.18847   2622240.07043  24039289.0314                   24039293.1524
  -5433032.37547  -4224042.89544  23189524.3754                   23189524.9144
  -5595075.16847  -4344077.38745  22388357.0004                   22388356.1134
  -5989925.48448  -4658782.06646  21521788.5004                   21521785.7114
 11  8 12 20 38  0.0000000  0  8G17G07G08G11G04G26G24G28
 -17351164.43448 -13494992.70746  21112436.6884                   21112434.7974
  10222817.07847   7968686.33245  22403120.5944                   22403120.1954
  -4323856.90648  -3353417.45746  20535492.5704                   20535491.1604
   5386423.55547   4209382.73044  23117954.2114                   23117952.0864
   3208045.12946   2511250.38343  24012183.6564                   24012188.0744
  -5419925.32447  -4213829.65244  23192018.6884                   23192018.8834
  -5579463.78947  -4331912.69545  22391327.6644                   22391327.0984
  -6036712.32848  -4695239.32446  21512884.9774                   21512882.5554
 11  8 12 20 38 30.0000000  0  8G17G07G08G11G04G26G24G28
 -17407221.84848 -13538673.75846  21101769.3284                   21101767.1294
  10288153.48447   8019597.71945  22415553.6254                   22415553.5314
  -4302996.73448  -3337162.80946  20539462.1804                   20539460.5044
   5442473.31347   4253057.82844  23128620.3204                   23128617.9144
   3065624.29346   2400273.35243  23985081.8284                   23985086.2624
  -5406358.75447  -4203258.35944  23194600.6024                   23194600.9454
  -5563325.33247  -4319337.28145  22394398.4304                   22394397.9494
  -6083430.00848  -4731642.69546  21503995.0084                   21503992.1884
 11  8 12 20 39  0.0000000  0  8G17G07G08G11G04G26G24G28
 -17462928.22348 -13582081.28546  21091168.7974                   21091166.7664
  10353811.18847   8070759.47345  22428048.2114                   22428047.6954
  -4281573.58248  -3320469.48046  20543539.1954                   20543537.5474
   5498876.08647   4297008.00044  23139352.8984                   23139351.0164
   2923224.70746   2289312.90243  23957983.9694                   23957988.2734
  -5392333.37147  -4192329.54744  23197269.5314                   23197269.7544
  -5546659.11347  -4306350.62945  22397569.9844                   22397569.5394
  -6130075.85948  -4767990.09846  21495118.6804                   21495115.7034
 11  8 12 20 39 30.0000000  0  8G17G07G08G11G04G26G24G28
 -17518282.52348 -13625214.46946  21080635.0784                   21080633.0314
  10419789.54747   8122171.09445  22440603.6024                   22440603.2734
  -4259586.50048  -3303336.72746  20547722.7114                   20547721.4304
   5555631.22747   4341232.74644  23150153.5784                   23150151.1804
   2780850.93446   2178372.56643  23930890.9454                   23930895.4184
  -5377849.76647  -4181043.67244  23200025.4144                   23200026.0864
  -5529464.56647  -4292952.28545  22400842.4454                   22400841.1454
  -6176647.01248  -4804279.29346  21486256.3984                   21486253.5084
 11  8 12 20 40  0.0000000  0  8G17G07G08G11G04G26G24G28
 -17573289.41048 -13668076.93746  21070167.4454                   21070165.5204
  10486082.93847   8173828.16845  22453219.0474                   22453218.6334
  -4237040.32848  -3285768.32046  20552013.4614                   20552012.0394
   5612732.24647   4385727.00444  23161019.1094                   23161017.2154
   2638502.05146   2067451.64843  23903802.6094                   23903807.0314
  -5362914.41847  -4169405.78944  23202867.8984                   23202868.2074
  -5511746.70348  -4279146.14845  22404213.8754                   22404212.9534
  -6223146.42648  -4840512.59046  21477407.8524                   21477404.9264
 11  8 12 20 40 30.0000000  0  8G17G07G08G11G04G26G24G28
 -17627946.60248 -13710666.93046  21059766.6024                   21059764.5514
  10552691.70347   8225730.99245  22465894.5704                   22465893.6724
  -4213933.55548  -3267763.07846  20556410.5314                   20556408.7664
   5670179.03147   4430490.69944  23171951.2584                   23171949.2934
   2496182.98446   1956553.97344  23876719.7274                   23876724.0594
  -5347527.20347  -4157415.82044  23205796.0004                   23205796.2304
  -5493504.32847  -4264931.31645  22407685.0084                   22407684.8834
  -6269570.70748  -4876687.34046  21468573.5314                   21468570.7194
 11  8 12 20 41  0.0000000  0  8G17G07G08G11G04G26G24G28
 -17682257.55548 -13752987.12146  21049431.4924                   21049429.6254
  10619610.60947   8277875.49645  22478628.7274                   22478628.3874
  -4190269.48048  -3249323.57846  20560913.5394                   20560912.3794
   5727966.47347   4475519.83244  23182947.5864                   23182946.0554
   2353894.37546   1845680.02343  23849643.3284                   23849647.2734
  -5331693.32047  -4145077.78544  23208808.5554                   23208809.3054
  -5474741.75047  -4250311.12945  22411255.5084                   22411254.8554
  -6315921.49248  -4912804.82446  21459753.4534                   21459750.3874
 11  8 12 20 41 30.0000000  0  8G17G07G08G11G04G26G24G28
 -17736226.15248 -13795040.54346  21039161.7734                   21039159.9184
  10686834.11347   8330257.33245  22491420.8054                   22491420.7234
  -4166052.82448  -3230453.49246  20565521.6254                   20565520.7154
   5786088.43447   4520809.64544  23194008.1024                   23194006.0434
   2211635.43846   1734829.23043  23822571.7504                   23822576.3674
  -5315418.96947  -4132396.51644  23211905.7114                   23211906.2734
  -5455463.91447  -4235289.43445  22414924.1254                   22414923.4654
  -6362201.10248  -4948866.85546  21450946.7274                   21450943.9654
 11  8 12 20 42  0.0000000  0  8G17G07G08G11G04G26G24G28
 -17789852.11348 -13836826.99246  21028957.1334                   21028954.7734
  10754361.57047   8382876.02045  22504270.8594                   22504271.0744
  -4141283.45348  -3211152.71946  20570235.4224                   20570234.0984
   5844543.81647   4566359.24644  23205131.7424                   23205129.6294
   2069410.06346   1624004.56643  23795507.1094                   23795511.0554
  -5298705.41047  -4119373.02344  23215086.3054                   23215087.0864
  -5435670.83647  -4219866.26245  22418690.6804                   22418690.0274
  -6408407.60548  -4984871.91846  21442153.8834                   21442151.0664
 11  8 12 20 42 30.0000000  0  8G17G07G08G11G04G26G24G28
 -17843138.05548 -13878348.48446  21018817.0394                   21018815.0124
  10822188.61347   8435728.15245  22517178.0944                   22517177.7774
  -4115963.98848  -3191423.30946  20575053.6884                   20575052.1804
   5903328.16447   4612165.18844  23216317.7974                   23216316.3054
   1927219.28146   1513206.86344  23768448.5474                   23768452.1484
  -5281557.39847  -4106011.00844  23218349.2344                   23218349.5164
  -5415366.00047  -4204044.31245  22422554.0944                   22422553.8164
  -6454542.18048  -5020820.94146  21433374.7814                   21433371.6414
 11  8 12 20 43  0.0000000  0  8G17G07G08G11G04G26G24G28
 -17896085.35948 -13919606.10246  21008741.4454                   21008739.3674
  10890312.12147   8488811.29745  22530141.5164                   22530141.5234
  -4090096.50848  -3171266.86746  20579975.7584                   20579974.8754
   5962437.73447   4658224.56644  23227566.1094                   23227564.0664
   1785065.21946   1402437.76244  23741397.5784                   23741401.7504
  -5263978.48847  -4092313.21544  23221694.5474                   23221695.3164
  -5394551.60247  -4187825.30545  22426515.2664                   22426514.9574
  -6500604.37948  -5056713.55946  21424609.1094                   21424606.4924
 11  8 12 20 43 30.0000000  0  8G17G07G08G11G04G26G24G28
 -17948695.50848 -13960601.00046  20998730.1254                   20998728.1564
  10958729.10547   8542123.12145  22543160.9924                   22543160.8054
  -4063683.09448  -3150685.03146  20585002.3914                   20585001.0984
   6021869.62546   4704535.08644  23238875.6094                   23238873.5474
   1642949.77746   1291698.77344  23714354.0084                   23714357.2974
  -5245971.68447  -4078281.98844  23225121.3834                   23225122.2074
  -5373230.12547  -4171211.16445  22430572.4774                   22430572.4224
  -6546594.04348  -5092549.66446  21415857.9384                   21415855.0434
 11  8 12 20 44  0.0000000  0  8G17G07G08G11G04G26G24G28
 -18000971.50848 -14001335.52346  20988782.1174                   20988780.1724
  11027435.14847   8595660.18845  22556235.3754                   22556235.2584
  -4036727.18048  -3129680.46146  20590132.0864                   20590130.7664
   6081618.49646   4751092.62544  23250245.9144                   23250243.8984
   1500873.55546   1180990.34044  23687318.0634                   23687321.0314
  -5227542.13747  -4063921.35944  23228628.6804                   23228629.3094
  -5351405.11747  -4154204.67245  22434725.4614                   22434725.3754
  -6592512.48448  -5128330.27046  21407119.7734                   21407116.6604
 11  8 12 20 44 30.0000000  0  8G17G07G08G11G04G26G24G28
 -18052912.93748 -14041809.32846  20978898.1174                   20978896.0634
  11096428.80947   8649421.37145  22569364.3754                   22569364.4964
  -4009228.88348  -3108253.25846  20595364.7814                   20595363.2734
   6141683.01647   4797896.09444  23261675.6884                   23261673.0124
   1358840.34446   1070315.39844  23660289.0004                   23660292.4614
  -5208691.71147  -4049232.77044  23232215.5864                   23232216.1604
  -5329077.32847  -4136806.39545  22438974.6334                   22438974.3054
  -6638358.07848  -5164054.10546  21398395.6724                   21398392.8524
 11  8 12 20 45  0.0000000  0  8G17G07G08G11G04G26G24G28
 -18104523.87548 -14082025.60946  20969076.7194                   20969074.8204
  11165705.18847   8703402.85945  22582547.5474                   22582547.3754
  -3981191.92248  -3086406.30946  20600699.9694                   20600698.7154
   6202057.97746   4844941.48044  23273164.1024                   23273162.3364
   1216850.13346    959673.98843  23633268.8984                   23633272.6724
  -5189425.83247  -4034220.44944  23235882.1254                   23235882.2584
  -5306251.21947  -4119019.83645  22443318.2114                   22443317.6954
  -6684132.08248  -5199722.15246  21389685.0314                   21389682.4454
 11  8 12 20 45 30.0000000  0  8G17G07G08G11G04G26G24G28
 -18155804.35248 -14121984.39546  20959318.3834                   20959316.5314
  11235262.39547   8757603.17645  22595783.6334                   22595783.9614
  -3952617.12948  -3064140.27746  20606137.9844                   20606136.3874
   6262741.10546   4892226.97344  23284712.4614                   23284710.3874
   1074906.28146    849068.63344  23606258.2974                   23606261.0234
  -5169746.83247  -4018886.19944  23239626.5944                   23239627.6564
  -5282927.99247  -4100845.89545  22447756.9384                   22447756.0314
  -6729833.25048  -5235333.46146  21380988.6884                   21380985.5864
 11  8 12 20 46  0.0000000  0  8G17G07G08G11G04G26G24G28
 -18206754.52048 -14161685.78946  20949623.0084                   20949620.8364
  11305098.79347   8812021.03945  22609073.5314                   22609073.8444
  -3923505.25048  -3041455.73446  20611677.5864                   20611676.1254
   6323730.41046   4939751.05544  23296318.9304                   23296316.3054
    933012.16846    738502.09443  23579255.7424                   23579259.0944
  -5149656.81647  -4003231.69944  23243449.3134                   23243450.2734
  -5259108.50847  -4082285.27045  22452289.3674                   22452288.3484
  -6775460.03148  -5270886.79346  21372306.0704                   21372303.3484
 11  8 12 20 46 30.0000000  0  8G17G07G08G11G04G26G24G28
 -18257373.02348 -14201128.75446  20939990.5394                   20939988.6914
  11375213.82847   8866656.00445  22622415.9064                   22622416.1684
  -3893855.87148  -3018352.35946  20617319.7584                   20617318.2464
   6385024.91046   4987512.95344  23307982.3284                   23307979.9964
    791172.64146    627978.03144  23552264.2734                   23552267.6334
  -5129156.51247  -3987257.50444  23247350.6804                   23247351.4144
  -5234792.42647  -4063337.68745  22456916.6414                   22456915.8094
  -6821009.44548  -5306379.83646  21363638.0084                   21363635.2504
 11  8 12 20 47  0.0000000  0  8G17G07G08G11G04G26G24G28
 -18307664.78148 -14240317.10546  20930420.1884                   20930418.3134
  11445601.57447   8921503.47745  22635809.9924                   22635810.6914
  -3863673.43448  -2994833.60946  20623063.3754                   20623062.1604
   6446618.48446   5035507.90244  23319703.2274                   23319701.1604
    649386.75447    517495.77044  23525283.7194                   23525286.5164
  -5108252.68047  -3970968.84844  23251328.3054                   23251329.0234
  -5209985.19547  -4044007.39145  22461637.1884                   22461636.4144
  -6866484.16048  -5341814.67646  21354984.5784                   21354981.7074
 11  8 12 20 47 30.0000000  0  8G17G07G08G11G04G26G24G28
 -18357629.88748 -14279250.93446  20920912.3054                   20920910.1914
  11516260.15647   8976561.98445  22649256.6334                   22649256.5904
  -3832958.91048  -2970900.25446  20628908.1334                   20628906.6994
   6508509.03946   5083734.29344  23331481.0084                   23331478.3914
    507657.86346    407057.91043  23498312.9454                   23498316.5004
  -5086947.22747  -3954367.25844  23255382.8524                   23255384.0594
  -5184687.65247  -4024295.04345  22466451.0944                   22466450.3714
  -6911882.88748  -5377190.30546  21346345.5474                   21346342.5634
 11  8 12 20 48  0.0000000  0  8G17G07G08G11G04G26G24G28
 -18407269.07848 -14317930.80146  20911465.8284                   20911463.8834
  11587187.90247   9031830.22745  22662753.4144                   22662753.7344
  -3801713.59448  -2946553.29746  20634853.7814                   20634852.5944
   6570694.39147   5132190.34844  23343314.6024                   23343311.9184
    365989.07447    296666.89544  23471353.9304                   23471357.2504
  -5065243.06647  -3937454.98044  23259513.1484                   23259513.8014
  -5158901.59047  -4004202.01245  22471357.8054                   22471357.6174
  -6957204.18748  -5412505.60546  21337721.1334                   21337718.3164
 11  8 12 20 48 30.0000000  0  8G17G07G08G11G04G26G24G28
 -18456581.20348 -14356355.81247  20902082.5004                   20902080.4734
  11658383.65647   9087307.30945  22676301.9064                   22676302.0634
  -3769936.93448  -2921792.30546  20640900.6804                   20640899.5004
   6633173.42646   5180875.25844  23355203.4844                   23355201.7234
    224385.18447    186326.44544  23444408.1024                   23444411.2624
  -5043141.10247  -3920232.74244  23263719.0084                   23263719.5824
  -5132626.87147  -3983728.22345  22476357.7584                   22476357.2624
  -7002445.41848  -5447758.50046  21329112.1414                   21329109.4224
 11  8 12 20 49  0.0000000  0  8G17G07G08G11G04G26G24G28
 -18505567.49248 -14394526.92646  20892760.5704                   20892758.7504
  11729844.86747   9142991.24645  22689900.5084                   22689900.7194
  -3737630.77048  -2896618.71146  20647048.6484                   20647047.2074
   6695943.13747   5229786.70744  23367147.8444                   23367146.2194
     82848.40247     76038.28544  23417473.7584                   23417477.3954
  -5020644.64547  -3902703.09444  23268000.3204                   23268001.1804
  -5105865.78547  -3962875.44545  22481450.0164                   22481449.6334
  -7047605.82448  -5482948.42646  21320518.4534                   21320515.2584
 11  8 12 20 49 30.0000000  0  8G17G07G08G11G04G26G24G28
 -18554228.86748 -14432444.85946  20883500.6564                   20883498.4964
  11801569.14847   9198880.18445  22703549.3444                   22703549.1844
  -3704796.85548  -2871033.88746  20653296.4774                   20653295.0744
   6759001.08647   5278922.72744  23379147.5474                   23379145.9654
    -58618.23847    -34195.23444  23390553.5084                   23390556.8164
  -4997756.54347  -3884868.29744  23272354.9454                   23272356.2194
  -5078620.00047  -3941644.97745  22486634.6174                   22486634.4384
  -7092684.37548  -5518074.56646  21311940.1024                   21311937.4964
 11  8 12 20 50  0.0000000  0  8G17G07G08G11G04G26G24G28
 -18602568.89848 -14470112.39146  20874301.8674                   20874299.6374
  11873551.50847   9254970.20745  22717247.0784                   22717247.3054
  -3671438.98448  -2845040.78546  20659644.6954                   20659642.9614
   6822341.75047   5328279.05544  23391201.1174                   23391199.1484
   -200014.49647   -144373.93044  23363646.2814                   23363649.8014
  -4974482.29747  -3866732.58644  23276784.3674                   23276785.9064
  -5050894.05947  -3920040.36745  22491910.9924                   22491910.6214
  -7137682.69948  -5553138.19146  21303377.3674                   21303374.4884
 11  8 12 20 50 30.0000000  0  8G17G07G08G11G04G26G24G28
 -18650583.37548 -14507526.24646  20865164.9844                   20865162.6414
  11945794.68447   9311263.45745  22730994.6094                   22730994.8284
  -3637553.41448  -2818636.48446  20666092.5944                   20666091.2934
   6885967.68047   5377857.65644  23403308.7114                   23403307.0274
   -341332.76647   -254491.84444  23336754.6174                   23336757.7274
  -4950819.72347  -3848294.29744  23281287.1564                   23281288.3524
  -5022684.72747  -3898059.07845  22497279.0634                   22497279.0124
  -7182594.46548  -5588134.36346  21294830.7274                   21294828.0234
 11  8 12 20 51  0.0000000  0  8G17G07G08G11G04G26G24G28
 -18698277.94548 -14544690.82046  20856088.8754                   20856086.9654
  12018291.85547   9367754.62145  22744790.2034                   22744790.9494
  -3603146.32048  -2791825.81646  20672639.9454                   20672638.6334
   6949871.79346   5427653.02744  23415469.2194                   23415467.3634
   -482574.33647   -364550.03144  23309877.3984                   23309879.9574
  -4926776.17647  -3829559.14844  23285862.7734                   23285864.1374
  -4993998.14547  -3875705.93445  22502738.2274                   22502737.9304
  -7227423.50448  -5623066.07446  21286300.3754                   21286297.1024
 11  8 12 20 51 30.0000000  0  8G17G07G08G11G04G26G24G28
 -18745648.88748 -14581603.21546  20847074.3984                   20847072.4734
  12091044.89547   9424445.16445  22758635.0164                   22758635.6804
  -3568215.14148  -2764606.75846  20679287.0784                   20679286.0744
   7014055.48046   5477666.27344  23427683.2034                   23427681.0274
   -623732.22347   -474543.00044  23283015.7274                   23283018.6564
  -4902350.36747  -3810526.11344  23290510.9534                   23290511.9574
  -4964832.10947  -3852979.17245  22508288.4924                   22508288.1454
  -7272164.05548  -5657928.82846  21277786.3364                   21277783.3914
 11  8 12 20 52  0.0000000  0  8G17G07G08G11G04G26G24G28
 -18792699.37148 -14618265.90246  20838120.9144                   20838119.0204
  12164048.89147   9481331.25045  22772527.2504                   22772527.5514
  -3532763.39548  -2736982.07046  20686033.6334                   20686032.2464
   7078513.86346   5527893.52744  23439948.9384                   23439946.8874
   -764805.75447   -584470.24644  23256169.8364                   23256172.7074
  -4877547.37547  -3791199.18044  23295230.8134                   23295231.3164
  -4935190.61747  -3829881.91845  22513928.9384                   22513928.1764
  -7316817.69548  -5692723.87146  21269289.0704                   21269285.9694
 11  8 12 20 52 30.0000000  0  8G17G07G08G11G04G26G24G28
 -18839430.67648 -14654679.87946  20829228.2584                   20829226.3324
  12237301.25047   9538410.87945  22786467.2114                   22786467.1254
  -3496793.20748  -2708953.39546  20692878.5314                   20692877.6524
   7143244.10546   5578332.62543  23452266.7194                   23452264.3954
   -905792.59447   -694329.92244  23229340.4384                   23229343.7424
  -4852370.64547  -3771581.02744  23300021.7424                   23300023.1954
  -4905075.91847  -3806415.93745  22519659.7194                   22519658.8554
  -7361383.63348  -5727450.55546  21260808.2894                   21260805.6604
 11  8 12 20 53  0.0000000  0  8G17G07G08G11G04G26G24G28
 -18885846.02748 -14690847.66446  20820395.8754                   20820393.8364
  12310797.44147   9595680.50045  22800452.4454                   22800452.9184
  -3460307.90248  -2680523.34446  20699821.7344                   20699820.7774
   7208241.33646   5628979.78544  23464635.3754                   23464634.0234
  -1046691.80147   -804121.30944  23202528.3284                   23202531.2664
  -4826825.05147  -3751675.44944  23304883.1174                   23304884.2774
  -4874491.89147  -3782584.25445  22525479.3444                   22525478.8134
  -7405863.04748  -5762109.82446  21252344.3364                   21252341.3054
 11  8 12 20 53 30.0000000  0  8G17G07G08G11G04G26G24G28
 -18931945.85948 -14726769.59046  20811623.2034                   20811621.2504
  12384535.26247   9653138.39845  22814484.5634                   22814484.9884
  -3423309.31248  -2651693.31246  20706862.2894                   20706860.9964
   7273503.29346   5679833.23043  23477054.1334                   23477052.5944
  -1187500.13347   -913841.87544  23175733.4454                   23175736.1604
  -4800913.32447  -3731484.57444  23309814.2814                   23309814.9924
  -4843440.12947  -3758388.10545  22531388.4304                   22531388.3484
  -7450254.24648  -5796700.35546  21243896.8444                   21243894.2734
 11  8 12 20 54  0.0000000  0  8G17G07G08G11G04G26G24G28
 -18977731.16848 -14762446.42246  20802910.5084                   20802908.2814
  12458512.48847   9710782.85545  22828562.3364                   22828562.2584
  -3385798.89148  -2622464.46546  20714000.1174                   20713999.0944
   7339027.35546   5730890.87143  23489522.8284                   23489521.4344
  -1328214.82447  -1023489.46544  23148956.5314                   23148958.7894
  -4774638.42247  -3711010.69544  23314813.8674                   23314815.4964
  -4811922.57847  -3733828.99245  22537385.9614                   22537385.2934
  -7494556.02348  -5831221.21146  21235466.6804                   21235463.7854
 11  8 12 20 54 30.0000000  0  8G17G07G08G11G04G26G24G28
 -19023202.67648 -14797878.75046  20794257.9064                   20794255.5554
  12532727.03547   9768612.24244  22842684.6334                   22842685.3054
  -3347777.59848  -2592837.53146  20721235.2504                   20721234.2584
   7404811.13347   5782150.94543  23502041.4614                   23502040.0864
  -1468832.55947  -1133061.50044  23122197.5784                   23122199.6024
  -4748003.01247  -3690255.89844  23319882.5784                   23319883.8524
  -4779940.99647  -3708908.30144  22543471.8594                   22543471.8954
  -7538767.23048  -5865671.50046  21227053.4774                   21227050.2894
 11  8 12 20 55  0.0000000  0  8G17G07G08G11G04G26G24G28
 -19068360.09847 -14833066.32446  20785664.4064                   20785662.2894
  12607177.46147   9826625.41044  22856851.8594                   22856852.6994
  -3309245.85948  -2562812.84846  20728567.9224                   20728566.8754
   7470853.12147   5833612.20343  23514609.0164                   23514607.3324
  -1609349.42646  -1242554.95344  23095457.2274                   23095459.8874
  -4721008.94147  -3669221.63344  23325019.5234                   23325020.6374
  -4747495.96547  -3683626.48445  22549646.6884                   22549645.8134
  -7582885.42647  -5900049.30946  21218657.8754                   21218655.1844
 11  8 12 20 55 30.0000000  0  8G17G07G08G11G04G26G24G28
 -19113206.21547 -14868011.33246  20777130.7504                   20777128.4694
  12681859.38347   9884818.97745  22871063.8754                   22871064.5784
  -3270208.05548  -2532393.82846  20735996.4924                   20735995.8754
   7537148.82047   5885271.14843  23527224.5004                   23527223.0314
  -1749764.37546  -1351968.93744  23068737.0234                   23068740.0044
  -4693661.20347  -3647911.78544  23330224.0704                   23330224.6134
  -4714591.66047  -3657986.80145  22555907.5314                   22555907.1334
  -7626911.55147  -5934355.37946  21210279.8284                   21210277.1564
 11  8 12 20 56  0.0000000  0  8G17G07G08G11G04G26G24G28
 -19157741.01247 -14902713.75447  20768655.7034                   20768653.6454
  12756771.16846   9943191.64145  22885319.0394                   22885320.0084
  -3230664.59448  -2501580.79746  20743521.3984                   20743520.5434
   7603696.39847   5937126.35943  23539888.3054                   23539886.6604
  -1890073.62147  -1461300.58644  23042036.6884                   23042039.2974
  -4665961.64547  -3626327.77744  23335494.8524                   23335495.6454
  -4681228.90647  -3631989.86745  22562256.4694                   22562256.0044
  -7670843.21947  -5968587.84446  21201920.2734                   21201917.5274
 11  8 12 20 56 30.0000000  0  8G17G07G08G11G04G26G24G28
 -19201961.85947 -14937171.53546  20760240.6414                   20760238.6914
  12831914.39546  10001744.66044  22899618.7894                   22899619.8954
  -3190613.54748  -2470372.24246  20751143.0004                   20751141.7814
   7670497.15647   5989178.85243  23552599.8674                   23552598.0634
  -2030270.50047  -1570544.65644  23015358.5474                   23015360.8324
  -4637909.49647  -3604469.03544  23340833.3754                   23340834.2274
  -4647406.10947  -3605634.46545  22568692.6564                   22568692.1174
  -7714676.00447  -6002743.26246  21193578.9224                   21193576.0124
 11  8 12 20 57  0.0000000  0  8G17G07G08G11G04G26G24G28
 -19245870.78948 -14971386.25846  20751885.1724                   20751883.1134
  12907285.19946  10060475.00045  22913961.1884                   22913962.4964
  -3150057.76248  -2438770.39146  20758860.7034                   20758859.5164
   7737546.83247   6041425.33243  23565359.5634                   23565357.5004
  -2170353.31247  -1679699.85944  22988700.9534                   22988703.5594
  -4609509.18447  -3582338.98844  23346237.5394                   23346238.3674
  -4613126.32447  -3578922.95745  22575216.0314                   22575215.9224
  -7758409.78948  -6036821.53546  21185256.6644                   21185253.8134
 11  8 12 20 57 30.0000000  0  8G17G07G08G11G04G26G24G28
 -19289469.91048 -15005359.59046  20743588.8444                   20743586.2154
  12982880.74646  10119380.44545  22928346.8444                   22928348.0514
  -3108999.42248  -2406776.93046  20766673.5474                   20766672.7894
   7804842.48447   6093863.46143  23578165.6484                   23578163.1684
  -2310319.80547  -1788764.43744  22962065.9304                   22962068.5904
  -4580764.47347  -3559940.58644  23351707.5164                   23351708.2234
  -4578392.08647  -3551857.33245  22581825.7344                   22581825.1724
  -7802044.19548  -6070822.37546  21176953.5314                   21176950.4534
 11  8 12 20 58  0.0000000  0  8G17G07G08G11G04G26G24G28
 -19332760.30147 -15039092.33246  20735350.6414                   20735348.7074
  13058697.70747  10178458.42645  22942774.6804                   22942776.2154
  -3067440.82048  -2374393.66446  20774581.7114                   20774581.3324
   7872380.89147   6146490.71943  23591017.4694                   23591015.6024
  -2450167.62547  -1897736.50444  22935454.6484                   22935456.3524
  -4551678.66047  -3537276.38344  23357241.9534                   23357243.1294
  -4543206.28147  -3524439.84445  22588521.6094                   22588521.0394
  -7845578.16847  -6104744.95746  21168669.2814                   21168666.1724
 11  8 12 20 58 30.0000000  0  8G17G07G08G11G04G26G24G28
 -19375739.91047 -15072582.91847  20727172.0004                   20727169.7234
  13134737.00447  10237709.66045  22957244.6804                   22957245.4574
  -3025380.88348  -2341619.74246  20782585.5784                   20782584.9184
   7940162.56346   6199307.58243  23603916.2504                   23603914.2034
  -2589890.72747  -2006611.43044  22908865.3914                   22908867.9774
  -4522251.59047  -3514346.26644  23362842.2974                   23362843.4304
  -4507567.68447  -3496669.53545  22595303.3134                   22595302.4654
  -7889007.68447  -6138586.14546  21160404.9454                   21160401.8714
 11  8 12 20 59  0.0000000  0  8G17G07G08G11G04G26G24G28
 -19418412.25447 -15105834.07846  20719051.3594                   20719049.6054
  13210993.52346  10297130.16445  22971754.9844                   22971756.6334
  -2982824.11348  -2308458.68746  20790684.2034                   20790683.3014
   8008181.99647   6252309.68043  23616859.9844                   23616857.1914
  -2729488.81647  -2115388.93744  22882300.5164                   22882302.6174
  -4492489.06247  -3491154.74644  23368505.9694                   23368506.9104
  -4471480.94547  -3468550.01644  22602170.3134                   22602169.6254
  -7932334.31247  -6172347.16046  21152159.8204                   21152157.3594
 11  8 12 20 59 30.0000000  0  8G17G07G08G11G04G26G24G28
 -19460775.86347 -15138844.65646  20710989.7584                   20710987.8984
  13287467.34447  10356719.97744  22986308.0474                   22986308.9614
  -2939769.92648  -2274910.01646  20798876.9384                   20798876.1644
   8076439.67647   6305497.45744  23629848.6724                   23629846.7934
  -2868956.13747  -2224064.55144  22855760.8524                   22855762.7344
  -4462391.71947  -3467702.34044  23374233.4924                   23374234.2234
  -4434945.38347  -3440080.76644  22609122.4064                   22609122.1134
  -7975553.81247  -6206024.69546  21143935.6884                   21143932.7584
 11  8 12 21  0  0.0000000  0  8G17G07G08G11G04G26G24G28
 -19502832.32848 -15171615.90246  20702986.9694                   20702984.9774
  13364155.34846  10416476.68444  23000901.6414                   23000902.6884
  -2896220.33648  -2240975.33646  20807164.3914                   20807163.5314
   8144932.23447   6358868.22343  23642882.6174                   23642881.1644
  -3008290.46947  -2332636.55144  22829246.1414                   22829247.7074
  -4431962.84847  -3443991.59844  23380023.9144                   23380025.0824
  -4397963.67647  -3411263.87544  22616159.8594                   22616159.3834
  -8018665.83648  -6239618.48446  21135731.6804                   21135728.8954
 11  8 12 21  0 30.0000000  0  8G17G07G08G11G04G26G24G28
 -19544583.78948 -15204149.48846  20695041.6954                   20695039.4494
  13441054.27047  10476397.74244  23015534.5314                   23015536.0944
  -2852178.16848  -2206656.82046  20815545.2974                   20815543.8164
   8213655.87946   6412419.07044  23655959.7274                   23655958.1644
  -3147490.12147  -2441103.60244  22802757.5944                   22802759.1094
  -4401206.75847  -3420025.88744  23385876.5784                   23385877.4454
  -4360539.19947  -3382101.96144  22623281.7734                   22623281.0824
  -8061670.18048  -6273128.35946  21127548.3754                   21127545.4344
 11  8 12 21  1  0.0000000  0  8G17G07G08G11G04G26G24G28
 -19586029.82048 -15236445.07446  20687155.0084                   20687152.6994
  13518162.40246  10536481.81344  23030208.3674                   23030209.0904
  -2807644.60548  -2171955.39846  20824020.1334                   20824019.2074
   8282608.89146   6466148.64843  23669081.6954                   23669079.6954
  -3286551.07047  -2549462.59444  22776294.4454                   22776295.7624
  -4370125.53547  -3395806.82444  23391791.0004                   23391791.9494
  -4322673.28947  -3352596.07444  22630487.2974                   22630486.6604
  -8104564.62948  -6306552.61346  21119385.7814                   21119382.5944
 11  8 12 21  1 30.0000000  0  8G17G07G08G11G04G26G24G28
 -19627174.18048 -15268505.59846  20679325.5634                   20679323.2194
  13595475.03146  10596725.23044  23044920.7114                   23044921.4804
  -2762623.86348  -2136874.35246  20832586.9064                   20832586.1564
   8351786.34046   6520053.09043  23682245.2814                   23682244.1764
  -3425472.48847  -2657712.84444  22749858.8204                   22749860.0824
  -4338724.49247  -3371338.55544  23397766.1334                   23397767.7194
  -4284370.14847  -3322749.48844  22637776.1024                   22637775.9104
  -8147350.48848  -6339892.24646  21111243.9064                   21111241.2544
 11  8 12 21  2  0.0000000  0  8G17G07G08G11G04G26G24G28
 -19668017.95748 -15300331.90246  20671553.2114                   20671551.0234
  13672989.72746  10657126.09444  23059671.6954                   23059672.1334
  -2717117.58248  -2101414.96946  20841246.4384                   20841245.9384
   8421185.68046   6574130.43043  23695451.1024                   23695450.0004
  -3564251.64147  -2765852.23844  22723449.6094                   22723451.2974
  -4307006.81247  -3346623.54744  23403802.0554                   23403803.3484
  -4245631.99247  -3292563.94544  22645147.5394                   22645147.2344
  -8190026.10548  -6373145.97346  21103123.1174                   21103119.7814
 11  8 12 21  2 30.0000000  0  8G17G07G08G11G04G26G24G28
 -18133137.92648 -14104321.46946  20963631.2974                   20963628.8594
  15326124.30946  11945282.71544  23374252.7194                   23374254.1414
  -1095707.02047   -837978.21946  21149790.7344                   21149790.0204
  10066224.98446   7855979.16443  24008492.3134                   24008490.8054
  -2127458.13347  -1646272.68044  22996862.1564                   22996863.4494
  -2699553.73046  -2094062.78944  23709690.6484                   23709691.4654
  -2631039.55547  -2034439.99644  22952394.3364                   22952394.1524
  -6657166.50847  -5178709.92646  21394816.4144                   21394813.6914
 11  8 12 21  3  0.0000000  0  8G17G07G08G11G04G26G24G28
 -18173382.01248 -14135680.47346  20955972.7894                   20955970.6684
  15404036.80146  12005993.55144  23389078.9924                   23389080.5314
  -1049235.09848   -801766.39846  21158634.4614                   21158633.2544
  10136061.94146   7910397.52343  24021781.4614                   24021780.3054
  -2265942.31247  -1754182.23044  22970509.2194                   22970510.5864
  -2667210.59047  -2068860.41044  23715845.2504                   23715846.2734
  -2591436.27047  -2003580.32444  22959930.7894                   22959930.7304
  -6699617.34848  -5211788.49646  21386738.3284                   21386734.9574
 11  8 12 21  3 30.0000000  0  8G17G07G08G11G04G26G24G28
 -18213332.06248 -14166810.35947  20948370.3754                   20948368.7194
  15482140.52347  12066853.40245  23403942.4614                   23403943.4064
  -1002287.07848   -765183.57446  21167567.8204                   21167567.5554
  10206109.12946   7964979.69543  24035111.3984                   24035109.8244
  -2404279.07847  -1861976.91844  22944184.4614                   22944185.8794
  -2634563.35947  -2043421.07844  23722058.1954                   23722059.3554
  -2551407.61347  -1972389.19144  22967548.1334                   22967548.0434
  -6741957.65248  -5244780.93446  21378681.1024                   21378678.2074
 11  8 12 21  4  0.0000000  0  8G17G07G08G11G04G26G24G28
 -18252989.63748 -14197712.34446  20940824.1414                   20940821.8014
  15560431.95747  12127859.53145  23418840.6254                   23418842.0864
   -954865.84448   -728232.00846  21176591.9384                   21176591.3554
  10276363.80146   8019723.53143  24048480.2664                   24048478.7544
  -2542465.75047  -1969654.64844  22917888.5234                   22917889.6724
  -2601616.12147  -2017747.97744  23728328.1884                   23728328.8014
  -2510956.72747  -1940869.03545  22975245.6644                   22975245.5164
  -6784187.12948  -5277687.02746  21370645.1884                   21370642.5314
 11  8 12 21  4 30.0000000  0  8G17G07G08G11G04G26G24G28
 -18292349.86348 -14228382.62146  20933333.8524                   20933332.1764
  15638914.63347  12189014.65644  23433775.9304                   23433776.8054
   -906967.80548   -690908.91046  21185706.7584                   21185706.1414
  10346829.10246   8074631.51243  24061889.1484                   24061887.8554
  -2680493.60547  -2077208.62944  22891622.3524                   22891623.4224
  -2568365.82447  -1991838.72744  23734654.7274                   23734656.2934
  -2470079.85947  -1909016.97344  22983024.3674                   22983024.2734
  -6826298.77348  -5310501.29746  21362631.5554                   21362628.6954
 11  8 12 21  5  0.0000000  0  8G17G07G08G11G04G26G24G28
 -18331415.29348 -14258823.19547  20925900.1564                   20925898.1844
  15717584.89547  12250315.95344  23448746.5474                   23448747.6684
   -858596.13748   -653216.75046  21194911.8834                   21194910.8244
  10417501.09446   8129700.56343  24075338.5314                   24075335.8874
  -2818361.02347  -2184637.59444  22865387.0864                   22865388.5514
  -2534816.87947  -1965696.76244  23741039.3054                   23741040.1644
  -2428780.32447  -1876835.52744  22990883.4774                   22990882.8714
  -6868292.47748  -5343223.66046  21354640.4694                   21354637.3284
 11  8 12 21  5 30.0000000  0  8G17G07G08G11G04G26G24G28
 -18370183.82448 -14289032.42247  20918522.5784                   20918520.5314
  15796443.27746  12311763.84844  23463752.5864                   23463753.9224
   -809749.60547   -615154.57046  21204207.1174                   21204206.3014
  10488380.48546   8184931.26643  24088826.2734                   24088824.1254
  -2956061.90247  -2291936.79344  22839183.0394                   22839184.8404
  -2500969.59447  -1939322.32844  23747479.8754                   23747481.4454
  -2387057.27347  -1844324.10244  22998823.2664                   22998822.8524
  -6910163.73848  -5375850.61346  21346672.8984                   21346669.6134
 11  8 12 21  6  0.0000000  0  8G17G07G08G11G04G26G24G28
 -18408659.34048 -14319013.31646  20911200.6954                   20911198.6524
  15875484.36746  12373354.10544  23478793.7114                   23478795.1914
   -760433.05947   -576726.15246  21213591.4224                   21213591.1174
  10559461.62146   8240319.09843  24102352.3444                   24102350.0984
  -3093596.16847  -2399106.15644  22813010.9224                   22813012.6804
  -2466829.78147  -1912719.94144  23753976.4304                   23753977.4534
  -2344915.88347  -1811486.68044  23006842.2664                   23006842.0394
  -6951914.14848  -5408383.39546  21338727.9384                   21338724.9144
 11  8 12 21  6 30.0000000  0  8G17G07G08G11G04G26G24G28
 -18446840.21548 -14348764.63346  20903935.6334                   20903933.1844
  15954708.52347  12435087.00444  23493869.6334                   23493871.3984
   -710645.79747   -537930.93446  21223065.6954                   21223065.4654
  10630744.69946   8295864.31643  24115917.1334                   24115915.1604
  -3230958.07847  -2506141.23444  22786872.0474                   22786873.0634
  -2432397.75047  -1885889.86344  23760529.5164                   23760530.2464
  -2302355.67247  -1778322.90644  23014941.3524                   23014940.8324
  -6993539.57048  -5440818.78146  21330806.8674                   21330803.6844
 11  8 12 21  7  0.0000000  0  8G17G07G08G11G04G26G24G28
 -18484729.03148 -14378288.35946  20896725.2424                   20896723.0594
  16034111.63347  12496959.35544  23508979.8674                   23508981.5274
   -660391.62547   -498771.89546  21232629.1804                   21232628.3714
  10702225.66846   8351563.72343  24129519.3284                   24129517.3324
  -3368146.15247  -2613040.85544  22760765.8984                   22760766.9884
  -2397678.03547  -1858835.59844  23767136.1174                   23767136.9804
  -2259380.44547  -1744835.73444  23023118.9384                   23023118.9804
  -7035040.46148  -5473157.14146  21322909.3594                   21322906.4614
 11  8 12 21  7 30.0000000  0  8G17G07G08G11G04G26G24G28
 -18522326.08648 -14407584.75046  20889570.9534                   20889568.8134
  16113691.90647  12558969.75844  23524123.4144                   23524125.3794
   -609672.20747   -459250.32846  21242280.6254                   21242280.2624
  10773902.98446   8407416.14843  24143159.2814                   24143157.1414
  -3505156.68047  -2719802.14144  22734693.4144                   22734694.5704
  -2362673.33647  -1831559.28144  23773797.9774                   23773798.6334
  -2215991.63347  -1711026.27744  23031375.7894                   23031375.3524
  -7076414.78148  -5505396.86746  21315036.0634                   21315033.1524
 11  8 12 21  8  0.0000000  0  8G17G07G08G11G04G26G24G28
 -18559630.28148 -14436652.93446  20882472.1334                   20882469.7274
  16193449.34046  12621118.21144  23539301.1804                   23539302.9804
   -558487.10547   -419365.89546  21252020.8674                   21252020.2624
  10845775.97346   8463421.04343  24156835.5864                   24156834.3754
  -3641984.36747  -2826420.96145  22708655.7664                   22708657.3094
  -2327384.35947  -1804061.45744  23780512.6724                   23780513.4454
  -2172189.17647  -1676894.52044  23039710.8914                   23039710.8324
  -7117658.91448  -5537535.14846  21307187.8364                   21307184.7074
 11  8 12 21  8 30.0000000  0  8G17G07G08G11G04G26G24G28
 -18596645.03148 -14465495.57446  20875428.6484                   20875426.1414
  16273378.39846  12683400.39144  23554511.1564                   23554513.0434
   -506841.11347   -379122.32846  21261848.6724                   21261848.3054
  10917839.25846   8519574.20343  24170549.3914                   24170547.6094
  -3778629.00847  -2932897.15245  22682652.6954                   22682654.3954
  -2291816.85247  -1776346.57044  23787280.9144                   23787282.3164
  -2127977.77747  -1642444.10544  23048124.0704                   23048124.1054
  -7158773.72348  -5569572.66046  21299364.1484                   21299360.7464
 11  8 12 21  9  0.0000000  0  8G17G07G08G11G04G26G24G28
 -18633370.94147 -14494113.14847  20868439.8834                   20868437.4844
  16353477.99246  12745815.43444  23569753.1954                   23569756.0314
   -454735.32847   -338520.48046  21271764.1094                   21271763.5784
  10990091.59046   8575874.66043  24184298.4064                   24184296.7194
  -3915086.68047  -3039227.65645  22656685.7894                   22656687.1334
  -2255973.14547  -1748416.49644  23794101.5784                   23794102.8134
  -2083359.14847  -1607676.34844  23056615.1644                   23056614.3524
  -7199757.15648  -5601507.79746  21291564.8134                   21291561.7274
 11  8 12 21  9 30.0000000  0  8G17G07G08G11G04G26G24G28
 -18669811.37948 -14522508.27347  20861505.3674                   20861503.1524
  16433742.69147  12808359.13344  23585027.6644                   23585030.0004
   -402174.57847   -297564.10946  21281766.1334                   21281765.5354
  11062527.84846   8632318.46943  24198082.6174                   24198081.1024
  -4051356.86747  -3145412.08245  22630754.6414                   22630755.6914
  -2219858.77047  -1720275.50844  23800974.5314                   23800976.1054
  -2038338.24647  -1572595.16044  23065182.4454                   23065181.4304
  -7240610.75848  -5633341.77346  21283790.7194                   21283787.7384
 11  8 12 21 10  0.0000000  0  8G17G07G08G11G04G26G24G28
 -18705965.42648 -14550680.25046  20854625.3364                   20854623.0784
  16514172.15246  12871031.20344  23600332.8984                   23600335.5824
   -349159.25047   -256253.53546  21291854.6564                   21291853.9304
  11135147.29346   8688904.97343  24211901.9384                   24211900.2894
  -4187434.75447  -3251446.64845  22604859.9844                   22604860.9264
  -2183474.85247  -1691924.48844  23807897.8594                   23807899.6374
  -1992914.93447  -1537200.37544  23073826.1484                   23073824.9454
  -7281331.16448  -5665071.96546  21276041.9924                   21276039.0164
 11  8 12 21 10 30.0000000  0  8G17G07G08G11G04G26G24G28
 -18741834.21948 -14578629.94546  20847799.8204                   20847797.5394
  16594763.86346  12933829.69544  23615669.6414                   23615671.5204
   -295691.21947   -214590.19546  21302029.6174                   21302029.0124
  11207947.65246   8745632.52043  24225755.1954                   24225753.6804
  -4323317.13747  -3357328.86744  22579001.9304                   22579002.8054
  -2146824.65647  -1663365.96544  23814872.3524                   23814873.7424
  -1947091.62147  -1501493.91444  23082545.5784                   23082544.8754
  -7321916.42248  -5696696.84846  21268318.7734                   21268315.9804
 11  8 12 21 11  0.0000000  0  8G17G07G08G11G04G26G24G28
 -18777417.27348 -14606356.98847  20841028.5554                   20841026.3364
  16675517.04347  12996754.01244  23631036.3134                   23631038.3094
   -241771.53948   -172574.92646  21312290.0084                   21312289.2344
  11280927.71946   8802500.05143  24239643.0234                   24239641.2704
  -4458999.39847  -3463055.14545  22553182.9454                   22553183.4184
  -2109909.60547  -1634601.07444  23821897.2974                   23821898.4064
  -1900868.98047  -1465476.28144  23091342.1334                   23091341.2934
  -7362363.78148  -5728214.27046  21260622.0474                   21260618.8754
 11  8 12 21 11 30.0000000  0  8G17G07G08G11G04G26G24G28
 -18812715.76248 -14633862.29347  20834311.2504                   20834309.1884
  16756428.92647  13059802.00444  23646432.6884                   23646435.1564
   -187402.04348   -130209.15646  21322635.9774                   21322635.7274
  11354084.86746   8859505.59843  24253564.8134                   24253562.8714
  -4594478.73447  -3568623.30945  22527401.6334                   22527401.8634
  -2072733.14147  -1605632.47744  23828971.6884                   23828973.2074
  -1854249.77747  -1429149.66044  23100213.6094                   23100212.5824
  -7402671.94548  -5759623.24246  21252951.6804                   21252948.8594
 11  8 12 21 12  0.0000000  0  8G17G07G08G11G04G26G24G28
 -18847729.94548 -14661146.06246  20827648.3204                   20827646.6764
  16837497.93446  13122972.43444  23661860.7664                   23661862.6414
   -132584.21948    -87494.03146  21333067.7114                   21333067.2234
  11427417.42246   8916647.78143  24267518.8364                   24267518.1214
  -4729751.30147  -3674030.33245  22501659.9454                   22501660.6174
  -2035297.47347  -1576461.90644  23836095.2734                   23836096.8714
  -1807235.30547  -1392515.04744  23109159.6954                   23109159.0354
  -7442839.10948  -5790922.33246  21245307.8524                   21245304.9924
 11  8 12 21 12 30.0000000  0  8G17G07G08G11G04G26G24G28
 -18882464.65248 -14688212.05546  20821038.5084                   20821036.6564
  16918717.90647  13186260.49244  23677317.1024                   23677318.2774
    -77324.19148    -44434.35246  21343583.4774                   21343582.9224
  11500919.44946   8973922.05143  24281506.2584                   24281504.9774
  -4864817.97747  -3779276.93445  22475957.2814                   22475958.0554
  -1997609.49247  -1547094.75444  23843266.8984                   23843268.9884
  -1759831.28547  -1355576.88344  23118180.3284                   23118180.0044
  -7482867.32448  -5822113.16846  21237690.7504                   21237688.1524
 11  8 12 21 13  0.0000000  0  8G17G07G08G11G04G26G24G28
 -18916917.44548 -14715058.38746  20814482.4924                   20814480.3594
  17000089.74247  13249666.91444  23692801.0084                   23692803.1294
    -21620.87548     -1029.23046  21354183.6804                   21354182.7384
  11574591.72746   9031328.95743  24295526.1024                   24295524.4384
  -4999672.17247  -3884357.95745  22450295.7664                   22450296.3444
  -1959668.82447  -1517530.68744  23850487.1024                   23850488.4884
  -1712036.82047  -1318334.46144  23127275.1094                   23127275.2274
  -7522751.58248  -5853191.81246  21230100.9144                   21230098.0354
 11  8 12 21 13 30.0000000  0  8G17G07G08G11G04G26G24G28
 -18951090.33248 -14741686.59446  20807979.0234                   20807977.3754
  17081609.96947  13313188.93044  23708314.6644                   23708315.8594
     34522.73847     42718.97346  21364867.4064                   21364866.7774
  11648430.99246   9088866.00043  24309576.6484                   24309575.6174
  -5134311.75847  -3989271.75445  22424674.2584                   22424675.0234
  -1921479.45747  -1487772.82044  23857754.2194                   23857756.1564
  -1663855.18047  -1280790.34444  23136443.9384                   23136443.9144
  -7562491.52348  -5884158.02046  21222538.7974                   21222535.6844
 11  8 12 21 14  0.0000000  0  8G17G07G08G11G04G26G24G28
 -18984983.01248 -14768096.46146  20801529.8284                   20801527.9774
  17163277.64147  13376825.84844  23723855.6024                   23723856.8984
     91105.91447     86809.68846  21375635.0084                   21375633.9574
  11722436.14146   9146532.29343  24323659.2424                   24323658.2624
  -5268732.18747  -4094014.79345  22399094.7504                   22399095.4454
  -1883043.07047  -1457822.47744  23865068.5474                   23865070.4494
  -1615287.32847  -1242945.29744  23145685.8284                   23145685.7894
  -7602084.17248  -5915009.44146  21215004.3984                   21215001.7274
 11  8 12 21 14 30.0000000  0  8G17G07G08G11G04G26G24G28
 -19018597.73448 -14794289.73846  20795133.2894                   20795131.1484
  17245089.14546  13440574.82844  23739423.5314                   23739426.0354
    148125.23847    131240.26245  21386485.5234                   21386484.2734
  11796603.78146   9204325.20743  24337773.1724                   24337771.7624
  -5402931.75847  -4198585.71945  22373557.2114                   22373557.8134
  -1844363.95347  -1427682.96544  23872429.3134                   23872430.9534
  -1566336.39847  -1204801.76244  23155000.9064                   23155001.5044
  -7641529.21148  -5945745.85246  21207498.6254                   21207495.7814
 11  8 12 21 15  0.0000000  0  8G17G07G08G11G04G26G24G28
 -19051937.78148 -14820268.97746  20788789.0164                   20788786.5784
  17327039.90246  13504432.31644  23755018.2734                   23755020.8284
    205575.99647    176007.02745  21397417.7424                   21397417.4104
  11870928.96546   9262240.90643  24351917.1804                   24351915.4104
  -5536909.59047  -4302983.87545  22348062.2814                   22348062.5084
  -1805447.51247  -1397358.57444  23879834.1884                   23879836.4574
  -1517007.09446  -1166363.36744  23164388.0944                   23164388.3014
  -7680827.55948  -5976367.94946  21200019.9454                   21200017.5004
 11  8 12 21 15 30.0000000  0  8G17G07G08G11G04G26G24G28
 -19085003.58248 -14846034.52746  20782496.6334                   20782494.6994
  17409127.78146  13568396.64144  23770638.7344                   23770642.1294
    263456.48847    221108.63345  21408431.8364                   21408431.1724
  11945409.62946   9320277.75443  24366090.5234                   24366088.0234
  -5670662.23847  -4407206.55145  22322609.7974                   22322610.2974
  -1766296.36347  -1366851.28544  23887284.8134                   23887286.6884
  -1467301.21546  -1127631.55544  23173846.7344                   23173847.0824
  -7719976.94548  -6006873.97346  21192570.3674                   21192567.6374
 11  8 12 21 16  0.0000000  0  8G17G07G08G11G04G26G24G28
 -19117796.05147 -14871587.07047  20776256.3284                   20776254.5314
  17491350.68846  13632466.16044  23786285.9844                   23786288.7934
    321764.12547    266543.08245  21419527.6414                   21419527.1254
  12020043.87146   9378434.25043  24380292.1094                   24380290.6214
  -5804186.48047  -4511251.26245  22297200.9774                   22297201.2854
  -1726913.73847  -1336163.61744  23894779.3984                   23894780.7584
  -1417220.95347  -1088608.00044  23183377.4534                   23183376.8954
  -7758975.95348  -6037262.82046  21185149.0394                   21185146.1994
 11  8 12 21 16 30.0000000  0  8G17G07G08G11G04G26G24G28
 -19150317.72348 -14896928.61746  20770067.7194                   20770065.8874
  17573705.01646  13696638.09044  23801958.0784                   23801960.5394
    380495.79347    312307.94145  21430704.1094                   21430703.8554
  12094827.82046   9436707.41443  24394523.9384                   24394521.0944
  -5937480.47747  -4615116.55545  22271835.4304                   22271836.0084
  -1687303.39847  -1305298.50044  23902317.1564                   23902318.8164
  -1366769.90647  -1049295.54344  23192977.4454                   23192977.7384
  -7797824.11748  -6067534.13346  21177756.9844                   21177753.4884
 11  8 12 21 17  0.0000000  0  8G17G07G08G11G04G26G24G28
 -19182569.73848 -14922060.04746  20763930.1884                   20763928.1954
  17656187.55947  13760909.94944  23817654.1254                   23817656.9024
    439649.17247    358401.41445  21441960.7274                   21441960.0434
  12169758.94146   9495095.25842  24408782.2584                   24408780.9264
  -6070541.39547  -4718800.23445  22246514.7894                   22246515.5474
  -1647469.14147  -1274258.91843  23909897.3594                   23909899.4734
  -1315950.86747  -1009696.30944  23202648.1254                   23202647.9774
  -7836520.36348  -6097687.06246  21170393.0704                   21170389.9804
 11  8 12 21 17 30.0000000  0  8G17G07G08G11G04G26G24G28
 -19214552.33648 -14946981.53946  20757843.9614                   20757842.1294
  17738796.91846  13825280.61344  23833374.3834                   23833377.2304
    499222.58247    404822.17645  21453297.4694                   21453296.5784
  12244835.69546   9553596.59843  24423068.6724                   24423067.1644
  -6203365.25047  -4822299.20745  22221239.0784                   22221239.3554
  -1607412.91047  -1243046.36344  23917519.8204                   23917521.6294
  -1264764.96147   -969811.21144  23212388.6484                   23212388.5234
  -7875062.41448  -6127719.84446  21163058.5474                   21163055.6174
 11  8 12 21 18  0.0000000  0  9G17G07G08G11G04G26G20G24G28
 -19246269.64148 -14971696.30946  20751808.3984                   20751806.4534
  17821527.71147  13889745.90244  23849117.6644                   23849120.8204
    559210.39847    451565.86345  21464712.5084                   21464711.7894
  12320052.45346   9612207.02043  24437382.5004                   24437380.9184
  -6335952.32847  -4925613.67245  22196008.6804                   22196008.6844
  -1567141.10547  -1211665.84444  23925183.4534                   23925184.8364
   9317926.80556   7266947.29352  24587121.2424                   24587121.2814
  -1213217.96547   -929644.73444  23222197.5554                   23222197.1604
  -7913451.96948  -6157633.79746  21155753.3524                   21155750.4414
 11  8 12 21 18 30.0000000  0  9G17G07G08G11G04G26G20G24G28
 -19277736.76247 -14996216.12947  20745820.6564                   20745818.4574
  17904363.91446  13954293.33244  23864881.0084                   23864884.0664
    619596.43847    498619.85945  21476203.7194                   21476203.1764
  12395393.31646   9670914.14143  24451719.1484                   24451717.8014
  -6468313.26647  -5028751.93445  22170821.0944                   22170821.2504
  -1526670.73447  -1180130.59844  23932884.7894                   23932886.6484
   9243727.11746   7209129.43443  24573001.1724                   24573001.0004
  -1161325.84447   -889209.35244  23232072.6024                   23232072.1764
  -7951701.02348  -6187438.26646  21148474.8054                   21148471.8914
 11  8 12 21 19  0.0000000  0  9G17G07G08G11G04G26G20G24G28
 -19308954.91848 -15020541.95347  20739879.6804                   20739877.7584
  17987302.17646  14018920.24644  23880663.4924                   23880667.3754
    680377.94947    545982.00045  21487770.0864                   21487769.6094
  12470855.16046   9729715.54743  24466079.6174                   24466077.7114
  -6600445.45747  -5131711.96945  22145677.0004                   22145677.3874
  -1486005.36747  -1148443.38744  23940622.5314                   23940624.8954
   9169745.14546   7151481.30543  24558923.3444                   24558922.8164
  -1109091.54746   -848507.32044  23242011.9144                   23242012.0554
  -7989808.47348  -6217132.39546  21141223.3674                   21141220.2464
 11  8 12 21 19 30.0000000  0  9G17G07G08G11G04G26G20G24G28
 -19339921.30947 -15044671.59447  20733987.2504                   20733985.1524
  18070344.79746  14083628.51244  23896465.9064                   23896469.9024
    741556.65647    593653.65245  21499412.1954                   21499411.2194
  12546439.94946   9788612.75443  24480462.5004                   24480462.0514
  -6732341.81247  -5234488.22345  22120577.9144                   22120578.1334
  -1445143.48447  -1116603.05944  23948398.9224                   23948400.5164
   9095988.15246   7094008.37543  24544886.8204                   24544886.9804
  -1056513.02747   -807537.08244  23252017.5084                   23252017.4964
  -8027768.49648  -6246711.63746  21133999.7274                   21133996.5594
 11  8 12 21 20  0.0000000  0  8G17G07G08G04G26G20G24G28
 -19370632.95348 -15068602.73046  20728142.9774                   20728140.9774
  18153492.90246  14148418.97343  23912289.7034                   23912292.2934
    803134.42247    641636.25045  21511130.0704                   21511129.5634
  -6863995.10547  -5337075.10545  22095524.7734                   22095524.9694
  -1404084.70347  -1084609.28144  23956212.0234                   23956214.3134
   9022462.71946   7036715.94943  24530896.2424                   24530895.2854
  -1003588.93447   -766297.54744  23262088.8054                   23262088.7154
  -8065576.02348  -6276172.04346  21126805.2034                   21126801.9694
 11  8 12 21 20 30.0000000  0  8G17G07G08G04G26G20G24G28
 -19401078.44548 -15092326.46946  20722349.3054                   20722347.5864
  18236756.32846  14213299.31343  23928133.6884                   23928137.5744
    865120.97747    689937.38745  21522925.4454                   21522925.3674
  -6995390.13347  -5439460.72345  22070521.1954                   22070521.4534
  -1362819.57047  -1052454.73044  23964064.6484                   23964067.0864
   8949184.10946   6979615.83643  24516951.1884                   24516951.3954
   -950309.10247   -724780.82044  23272227.1334                   23272227.3524
  -8103216.85248  -6305502.55946  21119642.3284                   21119639.4414
 11  8 12 21 21  0.0000000  0  8G17G07G08G04G26G20G24G28
 -19431247.80148 -15115835.03946  20716608.4224                   20716606.2194
  18320143.73846  14278276.19544  23944002.3134                   23944006.0594
    927524.81648    738563.67645  21534800.8984                   21534800.6454
  -7126512.60947  -5541633.97745  22045569.3364                   22045569.4104
  -1321340.05547  -1020133.11344  23971958.0864                   23971960.1294
   8876166.00446   6922718.73443  24503056.7504                   24503056.9064
   -896665.12946   -682980.34044  23282435.8054                   23282435.8794
  -8140678.59048  -6334693.53146  21112513.3524                   21112510.7154
 11  8 12 21 21 30.0000000  0  8G17G07G08G04G26G20G24G28
 -19461142.33248 -15139129.46946  20710919.7664                   20710917.6684
  18403652.58246  14343347.73844  23959893.5234                   23959897.1604
    990343.54348    787513.25845  21546755.1334                   21546754.5984
  -7257360.04747  -5643592.90245  22020670.0004                   22020669.8284
  -1279649.84847   -987647.32844  23979891.6724                   23979893.6254
   8803410.99346   6866026.66443  24489210.9144                   24489211.4804
   -842659.45346   -640897.99244  23292712.2194                   23292712.3134
  -8177959.69548  -6363743.73846  21105419.1724                   21105415.9924
 11  8 12 21 22  0.0000000  0  8G17G07G08G04G26G20G24G28
 -19490770.77048 -15162216.55146  20705281.6094                   20705279.5704
  18487272.87546  14408506.12144  23975806.4844                   23975809.8984
   1053567.07047    836778.27045  21558785.7504                   21558786.0124
  -7387936.82047  -5745340.93445  21995821.4774                   21995821.8524
  -1237759.29747   -955005.44144  23987863.6334                   23987865.6294
   8730914.25446   6809535.75843  24475415.6024                   24475415.2854
   -788302.18746   -598541.72344  23303056.8524                   23303056.8444
  -8215066.28548  -6392657.96546  21098358.2274                   21098355.2034
 11  8 12 21 22 30.0000000  0  8G17G07G08G04G26G20G24G28
 -19520135.96148 -15185098.50846  20699693.4924                   20699691.4024
  18571000.02046  14473747.75444  23991739.3984                   23991743.0234
   1117191.21947    886355.44545  21570893.5394                   21570893.1334
  -7518241.57047  -5846876.99245  21971025.4774                   21971025.8794
  -1195673.37547   -922211.30544  23995872.0554                   23995874.2384
   8658676.67246   6753246.84843  24461669.4924                   24461669.0824
   -733597.24247   -555914.52744  23313466.3834                   23313465.9924
  -8251998.61348  -6421436.39846  21091330.1884                   21091327.2344
 11  8 12 21 23  0.0000000  0  8G17G07G08G04G26G20G24G28
 -19549241.47748 -15207778.12147  20694154.8834                   20694153.0204
  18654829.66446  14539069.25844  24007691.6484                   24007695.2624
   1181210.84447    936240.79345  21583076.0164                   21583075.8834
  -7648273.84447  -5948200.73845  21946281.3134                   21946281.4494
  -1153397.77747   -889269.38744  24003917.2584                   24003918.9844
   8586698.98456   6697160.40653  24447972.8914                   24447972.6294
   -678549.69947   -513020.37544  23323941.7114                   23323941.1804
  -8288757.48448  -6450079.67646  21084334.9384                   21084332.0394
 11  8 12 21 23 30.0000000  0  8G17G07G08G04G26G20G24G28
 -19578095.69947 -15230261.91847  20688664.0944                   20688662.2664
  18738752.15646  14604463.12944  24023662.0084                   24023665.7734
   1245616.58247    986427.00845  21595331.4454                   21595331.8834
  -7778037.62148  -6049315.26245  21921587.8834                   21921587.9144
  -1110942.46547   -856187.44544  24011995.8834                   24011998.0554
   8514976.77346   6641273.05543  24434324.2194                   24434324.3204
   -623168.77047   -469866.43744  23334480.7974                   23334480.6054
  -8325348.45748  -6478592.11746  21077372.2584                   21077369.3054
 11  8 12 21 24  0.0000000  0  8G17G07G08G04G26G20G24G28
 -19606699.18748 -15252550.33646  20683220.9224                   20683218.9964
  18822765.30146  14669927.63744  24039649.0234                   24039653.0004
   1310405.74647   1036911.99245  21607660.7114                   21607660.8054
  -7907530.00047  -6150218.30945  21896946.0784                   21896946.4344
  -1068310.67647   -822967.97744  24020108.3054                   24020110.5044
   8443512.62546   6585586.81343  24420724.1884                   24420724.8834
   -567457.12547   -426454.79344  23345082.3984                   23345082.3164
  -8361769.97748  -6506972.50846  21070441.2034                   21070438.1254
 11  8 12 21 24 30.0000000  0  8G17G07G08G04G26G20G24G28
 -19635051.75448 -15274643.23846  20677825.4844                   20677823.4454
  18906867.93846  14735461.87943  24055653.4304                   24055657.4344
   1375577.78147   1087695.32045  21620062.7194                   21620063.3014
  -8036746.11347  -6250906.09045  21872357.2114                   21872357.4654
  -1025503.65647   -789611.97344  24028254.5314                   24028256.5274
   8372310.97346   6530105.09443  24407174.5084                   24407175.4694
   -511415.28147   -382785.85544  23355746.9064                   23355746.3164
  -8398018.80148  -6535218.35546  21063543.4694                   21063540.7464
 11  8 12 21 25  0.0000000  0  8G17G07G08G04G26G20G24G28
 -19663154.56248 -15296541.52046  20672477.9534                   20672475.9494
  18991057.70346  14801063.98444  24071675.3524                   24071679.0354
   1441129.79347   1138774.73445  21632537.2034                   21632537.2894
  -8165683.07447  -6351376.34845  21847821.3444                   21847821.1684
   -982524.73847   -756122.03944  24036433.2194                   24036435.5124
   8301374.84046   6474830.25843  24393676.0634                   24393676.9384
   -455045.68447   -338861.52044  23366473.3594                   23366473.5744
  -8434093.50048  -6563328.50846  21056678.6334                   21056675.8094
 11  8 12 21 25 30.0000000  0  8G17G07G08G04G26G20G24G28
 -19691008.03948 -15318245.51647  20667177.7664                   20667175.3244
  19075332.67646  14866732.50843  24087711.4844                   24087716.0514
   1507060.09847   1190148.91045  21645083.2424                   21645083.7774
  -8294337.54348  -6451626.48045  21823338.6414                   21823338.6954
   -939376.59847   -722500.21944  24044644.1094                   24044646.4614
   8230707.35946   6419764.80143  24380228.8834                   24380229.5474
   -398350.56247   -294683.53144  23377262.1884                   23377262.0594
  -8469991.89848  -6591301.29746  21049847.1804                   21049844.5164
 11  8 12 21 26  0.0000000  0  8G17G07G08G04G26G20G24G28
 -19718611.91048 -15339755.01646  20661924.7664                   20661922.2974
  19159691.67246  14932466.46943  24103764.7584                   24103768.9414
   1573367.14847   1241816.65645  21657700.9534                   21657701.0704
  -8422705.12948  -6551653.07045  21798911.1484                   21798911.5434
   -896060.99247   -688747.92244  24052887.1334                   24052889.3014
   8160312.23846   6364911.53943  24366833.0314                   24366833.3954
   -341331.12547   -250252.85244  23388112.7504                   23388112.2704
  -8505711.21948  -6619134.54746  21043050.4144                   21043047.4654
 11  8 12 21 26 30.0000000  0  8G17G07G08G04G26G20G24G28
 -19745963.87948 -15361068.23446  20656719.7504                   20656717.3874
  19244135.98446  14998266.89543  24119834.3204                   24119838.4614
   1640052.20747   1293778.95745  21670390.6094                   21670391.1024
  -8550779.23848  -6651450.98045  21774539.7424                   21774539.5004
   -852577.16047   -654864.53144  24061161.7584                   24061163.8914
   8090195.92246   6310275.55943  24353490.3984                   24353490.4104
   -283986.06647   -205568.41444  23399024.9844                   23399025.1254
  -8541246.04748  -6646824.03146  21036288.1174                   21036285.3324
 11  8 12 21 27  0.0000000  0  8G17G07G08G04G26G20G24G28
 -19773061.97748 -15382183.62546  20651563.3444                   20651561.1724
  19328665.98446  15064134.15243  24135920.2034                   24135924.6094
   1707115.88347   1346036.27345  21683152.8364                   21683153.3134
  -8678553.91048  -6751015.55545  21750224.7194                   21750224.8094
   -808925.64847   -620850.49244  24069468.3444                   24069470.6174
   8020364.01646   6255861.19543  24340201.3204                   24340201.1094
   -226314.93047   -160629.89544  23409999.1724                   23409999.5704
  -8576592.02348  -6674366.35946  21029561.9534                   21029559.2934
 11  8 12 21 27 30.0000000  0  8G17G07G08G04G26G20G24G28
 -19799913.30548 -15403106.72747  20646453.4454                   20646451.2934
  19413273.50846  15130061.78543  24152020.6174                   24152025.1954
   1774549.17647   1398581.60545  21695985.0394                   21695985.3594
  -8806032.12148  -6850349.13345  21725966.4774                   21725966.2274
   -765115.05546   -586712.48844  24077805.3674                   24077808.1134
   7950813.82046   6201666.36743  24326966.6254                   24326966.3754
   -168325.90247   -115443.67644  23421033.9924                   23421034.2704
  -8611753.12548  -6701764.63346  21022871.0084                   21022868.2814
 11  8 12 21 28  0.0000000  0  8G17G07G08G04G26G20G24G28
 -19826512.27748 -15423833.18746  20641392.0004                   20641389.8674
  19497962.61346  15196052.98043  24168137.0164                   24168141.6804
   1842356.27747   1451418.21145  21708888.5084                   21708888.4024
  -8933204.25847  -6949444.21545  21701765.9224                   21701766.3554
   -721142.04346   -552447.93043  24086172.8914                   24086175.2504
   7881554.19546   6147697.94543  24313786.7344                   24313786.6724
   -110014.82447    -70006.50844  23432130.0554                   23432130.1604
  -8646721.48448  -6729012.72346  21016216.9614                   21016214.0664
 11  8 12 21 28 30.0000000  0  8G17G07G08G04G26G20G24G28
 -19852857.34048 -15444361.79746  20636378.8754                   20636376.3284
  19582733.80146  15262108.14144  24184268.3364                   24184272.6524
   1910537.22747   1504546.14845  21721862.8204                   21721862.6884
  -9060064.62147  -7048296.35545  21677625.4384                   21677625.7934
   -677007.25047   -518057.30943  24094571.3054                   24094574.3164
   7812590.23846   6093959.87143  24300663.1884                   24300663.2234
    -51381.66446    -24318.37544  23443287.7894                   23443288.0394
  -8681493.25048  -6756107.60546  21009600.0004                   21009596.8984
 11  8 12 21 29  0.0000000  0  8G17G07G08G04G26G20G24G28
 -18303529.68748 -14237093.47746  20931206.0004                   20931203.4224
  21243000.56646  16555822.20344  24500207.0634                   24500211.2734
   3554506.14847   2785560.81645  22034699.6024                   22034699.8444
  -7611187.10947  -5919300.81245  21953337.7504                   21953337.6294
    942703.84447    744055.11344  24402792.8204                   24402795.4304
   9319346.22346   7268055.55943  24587389.4924                   24587389.2624
   1582988.16446   1249216.52044  23754298.3364                   23754298.3364
  -7140646.20748  -5555447.58246  21302813.2194                   21302810.8404
 11  8 12 21 29 30.0000000  0  8G17G07G08G04G26G20G24G28
 -18329370.44148 -14257229.11746  20926288.5944   20926286.1884   21327927.73846
  16621998.92244                  24516368.0394                   24516372.8874
   3623427.08247   2839265.36345  22047814.8364                   22047814.7464
  -7737415.30147  -6017660.34845  21929317.2814                   21929317.3524
    987153.14846    778690.80943  24411251.1804                   24411253.8914
   9250982.14146   7214784.95743  24574379.6414                   24574379.9494
   1642257.89546   1295400.66843  23765577.3594                   23765577.1804
  -7175019.17248  -5582231.71546  21296272.5234                   21296269.8554
 11  8 12 21 30  0.0000000  0  8G17G07G08G04G26G20G24G28
 -18354957.76248 -14277167.28546  20921419.5784   20921416.9694   21412932.40646
  16688236.01644                  24532544.5084                   24532548.8714
   3692717.00047   2893257.42245  22061000.6484                   22061000.6804
  -7863320.05947  -6115767.87145  21905358.4144                   21905357.9574
   1031757.74647    813447.51244  24419739.1724                   24419741.7854
   9182924.96146   7161753.50843  24561429.2424                   24561429.0984
   1701845.41046   1341832.44543  23776916.0234                   23776916.0354
  -7209187.39548  -5608856.30146  21289770.5944                   21289767.9184
 11  8 12 21 30 30.0000000  0  8G17G07G08G04G26G20G24G28
 -18380291.69548 -14296908.00046  20916598.7974   20916596.1054   21498013.17646
  16754532.40244                  24548734.7274                   24548739.8014
   3762374.09047   2947535.58645  22074255.3204                   22074256.0944
  -7988897.48047  -6213620.32845  21881461.5704                   21881461.5864
   1076515.83646    848323.80543  24428256.6564                   24428259.3914
   9115178.17646   7108963.87943  24548537.6094                   24548537.4734
   1761749.09047   1388510.59444  23788315.5634                   23788315.4804
  -7243148.34048  -5635319.37546  21283307.7114                   21283305.0594
 11  8 12 21 31  0.0000000  0  8G17G07G08G04G26G20G24G28
 -18405372.05548 -14316451.13746  20911825.9304   20911824.0084   21583169.07446
  16820887.34844                  24564939.7034                   24564944.7814
   3832397.19147   3002098.94945  22087580.7664                   22087580.8014
  -8114143.31647  -6311214.41045  21857627.9064                   21857627.8134
   1121425.50447    883318.22344  24436802.6174                   24436805.0314
   9047745.68846   7056419.15243  24535705.4614                   24535704.9694
   1821967.95347   1435434.39544  23799774.8524                   23799774.3954
  -7276899.11348  -5661618.67646  21276885.5004                   21276882.5704
 11  8 12 21 31 30.0000000  0  8G17G07G08G04G26G20G24G28
 -18430201.30948 -14335798.59446  20907101.1564   20907099.0354   21668396.05146
  16887297.66043                  24581158.4534                   24581163.5004
   3902782.41847   3056944.48445  22100975.2504                   22100975.0044
  -8239055.86347  -6408548.78945  21833858.0234                   21833857.8054
   1166482.48847    918427.41844  24445376.6954                   24445379.8054
   8980629.11746   7004120.62143  24522933.4614                   24522933.2544
   1882498.10246   1482600.69543  23811293.5554                   23811293.1914
  -7310439.43748  -5687753.99646  21270502.8134                   21270500.5704
 11  8 12 21 32  0.0000000  0  8G17G07G08G04G26G20G24G28
 -18454774.70348 -14354946.68746  20902424.9614   20902422.6054   21753698.00445
  16953766.37943                  24597390.4774                   24597396.2074
   3973532.80947   3112074.57445  22114438.5704                   22114438.6174
  -8363626.41047  -6505616.67245  21810153.2584                   21810152.7854
   1211689.43847    953653.48043  24453979.6804                   24453982.3754
   8913836.75846   6952074.68843  24510223.0234                   24510223.2934
   1943342.55546   1530011.92243  23822872.1804                   23822871.4064
  -7343761.89848  -5713719.55146  21264161.9614                   21264158.8674
 11  8 12 21 32 30.0000000  0  8G17G07G08G04G26G20G24G28
 -18479094.09848 -14373896.85546  20897797.2894   20897794.7544   21839071.03145
  17020290.48043                  24613636.9384                   24613642.0904
   4044645.11347   3167486.68045  22127970.9454                   22127970.7934
  -8487852.69547  -6602416.30545  21786513.1334                   21786512.7344
   1257042.55147    988993.43443  24462610.1024                   24462612.2274
   8847370.57846   6900282.95343  24497575.0704                   24497574.9924
   2004498.41446   1577665.80144  23834508.9144                   23834508.9924
  -7376865.83648  -5739514.82046  21257862.4534                   21257859.6094
 11  8 12 21 33  0.0000000  0  8G17G07G08G04G26G20G24G28
 -18503160.58648 -14392649.95746  20893217.6564   20893214.8954   21924513.28146
  17086868.53943                  24629896.1954                   24629901.3554
   4116116.64847   3223178.69145  22141571.5164                   22141571.0044
  -8611731.84047  -6698945.43745  21762939.6254                   21762939.5314
   1302538.81647   1024444.94143  24471268.1334                   24471269.7584
   8781233.03146   6848747.32443  24484988.6484                   24484989.3714
   2065963.11346   1625560.35543  23846205.8594                   23846205.1134
  -7409749.28547  -5765138.29346  21251604.9304                   21251601.9454
 11  8 12 21 33 30.0000000  0  8G17G07G08G04G26G20G24G28
 -18526979.21148 -14411209.91846  20888684.8524   20888682.3444   22010018.52046
  17153495.67643                  24646167.3754                   24646172.8444
   4187941.00047   3279145.64145  22155239.2034                   22155239.0744
  -8735264.66847  -6795204.70745  21739431.9774                   21739431.7974
   1348171.29747   1060002.59843  24479951.2034                   24479954.0044
   8715422.91446   6797466.78943  24472465.9534                   24472466.2734
   2127730.51646   1673690.77343  23857960.0704                   23857959.0474
  -7442414.37548  -5790591.60946  21245389.1094                   21245386.2234
 11  8 12 21 34  0.0000000  0  8G17G07G08G04G26G20G24G28
 -18550547.32848 -14429574.68046  20884199.9534   20884197.5124   22095587.81346
  17220172.74643                  24662451.5704                   24662457.1134
   4260118.59847   3335387.84045  22168973.9064                   22168974.2624
  -8858444.80947  -6891189.16045  21715991.8594                   21715991.4264
   1393940.47347   1095666.77343  24488661.0704                   24488663.7154
   8649946.35246   6746446.15243  24460006.1954                   24460006.3094
   2189801.35547   1722057.65643  23869771.1334                   23869770.7154
  -7474856.07048  -5815870.86746  21239215.6254                   21239212.6564
 11  8 12 21 34 30.0000000  0  8G17G07G08G04G26G20G24G28
 -18573866.80948 -14447745.68746  20879762.7344   20879760.0554   22181217.73846
  17286897.05543                  24678746.2734                   24678752.1684
   4332646.46947   3391902.94945  22182775.4694                   22182775.9694
  -8981270.25847  -6986897.22745  21692618.5004                   21692618.0314
   1439842.47346   1131434.42643  24497396.1174                   24497399.0554
   8584805.33646   6695687.03143  24447610.2114                   24447610.4804
   2252172.50846   1770658.51643  23881639.8984                   23881639.4264
  -7507073.88348  -5840975.66046  21233084.4064                   21233081.6374
 11  8 12 21 35  0.0000000  0  7G17G08G04G26G20G24G28
 -18596938.26248 -14465723.43046  20875372.0784   20875369.7814
   4405522.25047   3448689.18445  22196643.3594                   22196643.9614
  -9103737.33647  -7082326.03945  21669313.9384                   21669313.5204
   1485874.88346   1167303.69543  24506156.5084                   24506158.5824
   8520002.59446   6645191.46543  24435278.6724                   24435278.3674
   2314842.43447   1819492.18443  23893566.0704                   23893565.9494
  -7539065.07848  -5865903.87546  21226997.0944                   21226994.0904
 11  8 12 21 35 30.0000000  0  7G17G08G04G26G20G24G28
 -18619759.73848 -14483506.39146  20871029.3364   20871026.9774
   4478746.30147   3505746.77745  22210577.7034                   22210578.1524
  -9225840.06248  -7177470.93746  21646078.5944                   21646078.0704
   1532037.52046   1203274.44543  24514940.4454                   24514943.2734
   8455543.98446   6594964.03543  24423012.8054                   24423011.9344
   2377811.11746   1868558.68044  23905548.5474                   23905548.3914
  -7570825.27348  -5890652.09446  21220953.0944                   21220950.2234
 11  8 12 21 36  0.0000000  0  7G17G08G04G26G20G24G28
 -18642319.70348 -14501085.57846  20866736.3204   20866733.8244
   4552328.73047   3563083.60945  22224579.8364                   22224580.0664
  -9347562.78547  -7272319.73045  21622915.2814                   21622914.8594
   1578340.62146   1239354.64143  24523751.1254                   24523754.5904
   8391445.01647   6545016.85543  24410815.0164                   24410814.5314
   2441089.25046   1917866.24644  23917590.3054                   23917589.8444
  -7602340.00848  -5915209.03146  21214955.8524                   21214953.4304
 11  8 12 21 36 30.0000000  0  7G17G08G04G26G20G24G28
 -18664622.33648 -14518464.23846  20862492.2344   20862489.6254
   4626263.32047   3620694.88345  22238649.5634                   22238649.8444
  -9468906.37148  -7366873.08245  21599824.6334                   21599824.0984
   1624777.17646   1275538.82443  24532589.1414                   24532591.3244
   8327704.82846   6495349.23843  24398685.7034                   24398685.1024
   2504670.70346   1967410.21544  23929689.1094                   23929689.5704
  -7633611.41848  -5939576.37946  21209005.4534                   21209002.5474
 11  8 12 21 37  0.0000000  0  7G17G08G04G26G20G24G28
 -18686674.41448 -14535647.66446  20858295.7424   20858293.3874
   4700542.07047   3678574.32045  22252784.1564                   22252784.5124
  -9589873.26247  -7461132.91445  21576805.4224                   21576805.0124
   1671338.73446   1311820.43043  24541448.3834                   24541451.9384
   8264320.07446   6445958.59443  24386624.0784                   24386623.1094
   2568547.58246   2017184.36343  23941844.4614                   23941844.6564
  -7664643.13748  -5963756.94946  21203100.1884                   21203097.6524
 11  8 12 21 37 30.0000000  0  7G17G08G04G26G20G24G28
 -18708486.84448 -14552644.35246  20854145.1254   20854142.5824
   4775152.42247   3736712.14545  22266982.3754                   22266982.5514
  -9710470.21947  -7555104.49645  21553856.6254                   21553856.0634
   1718012.58646   1348189.49643  24550330.6564                   24550333.9654
   8201283.80946   6396839.48043  24374628.2344                   24374627.8134
   2632707.68046   2067179.19144  23954053.8984                   23954054.0704
  -7695443.08248  -5987756.91846  21197239.1024                   21197236.2894
 11  8 12 21 38  0.0000000  0  7G17G08G04G26G20G24G28
 -18730062.31648 -14569456.40247  20850039.4924   20850037.0824
   4850089.68447   3795104.72745  22281242.3594                   22281242.1174
  -9830696.20348  -7648786.99645  21530977.8524                   21530977.4694
   1764794.30146   1384642.64543  24559233.2974                   24559236.4414
   8138596.96546   6347992.66443  24362698.7894                   24362699.2934
   2697146.90646   2117391.53944  23966315.9844                   23966316.6844
  -7726011.25847  -6011576.27746  21191422.0864                   21191419.6024
 11  8 12 21 38 30.0000000  0  7G17G08G04G26G20G24G28
 -18751409.48848 -14586090.55146  20845977.4534   20845974.7154
   4925343.80147   3853744.19144  22295562.4614                   22295563.1214
  -9950555.91447  -7742184.09845  21508169.5314                   21508169.1214
   1811672.77346   1421171.14143  24568153.6334                   24568157.1884
   8076254.22346   6299413.92643  24350836.1174                   24350835.6094
   2761854.98446   2167813.35944  23978629.1024                   23978630.5904
  -7756353.85247  -6035219.87946  21185648.4614                   21185645.6764
 11  8 12 21 39  0.0000000  0  7G17G08G04G26G20G24G28
 -18772528.52048 -14602546.93446  20841958.2504   20841955.9064
   5000912.84047   3912629.03944  22309943.1484                   22309943.4454
 -10070045.83247  -7835293.04346  21485431.1954                   21485430.5664
   1858646.07846   1457773.54743  24577092.8754                   24577095.8364
   8014258.78146   6251105.84043  24339038.6804                   24339038.5394
   2826830.19546   2218443.32044  23990994.4924                   23990994.5004
  -7786468.59848  -6058685.93446  21179917.6254                   21179915.1724
 11  8 12 21 39 30.0000000  0  7G17G08G04G26G20G24G28
 -18793423.03948 -14618828.37146  20837982.2584   20837979.6994
   5076791.58647   3971755.21945  22324382.8364                   22324383.1054
 -10189165.35547  -7928113.37946  21462763.2664                   21462762.9694
   1905709.08246   1494445.83644  24586048.7734                   24586052.1644
   7952611.02046   6203068.64143  24327307.5234                   24327306.4924
   2892067.77746   2269277.76643  24003408.4304                   24003409.4224
  -7816356.10248  -6081974.90646  21174230.2274                   21174227.5004
 11  8 12 21 40  0.0000000  0  7G17G08G04G26G20G24G28
 -18814091.52748 -14634933.68446  20834049.1414   20834046.7734
   5152979.85947   4031122.59045  22338881.3444                   22338881.4454
 -10307909.22747  -8020640.99646  21440166.9384                   21440166.5634
   1952860.69946   1531187.19543  24595021.3204                   24595024.7664
   7891316.03146   6155306.34843  24315643.1724                   24315642.9804
   2957567.85946   2320316.73443  24015873.1334                   24015873.2154
  -7846011.97748  -6105083.39846  21168586.9924                   21168583.9924
 11  8 12 21 40 30.0000000  0  7G17G08G04G26G20G24G28
 -18834537.66848 -14650865.73846  20830158.5004   20830155.9344
   5229472.73047   4090727.30945  22353436.9224                   22353437.7704
 -10426276.88747  -8112875.45346  21417642.6564                   21417641.9694
   2000095.93846   1567993.71143  24604009.9454                   24604013.7584
   7830373.68046   6107818.87543  24304046.2034                   24304045.0124
   3023325.55547   2371556.47743  24028386.4064                   24028386.6294
  -7875437.06648  -6128012.06246  21162987.6954                   21162984.7234
 11  8 12 21 41  0.0000000  0  7G17G08G04G26G20G24G28
 -18854763.84848 -14666626.40246  20826309.5474   20826307.0594
   5306265.44947   4150565.67245  22368050.2034                   22368051.1484
 -10544267.27747  -8204815.94546  21395189.5004                   21395189.1954
   2047409.96146   1604861.60944  24613013.6804                   24613017.7344
   7769784.51246   6060606.56643  24292516.6414                   24292515.4304
   3089336.75046   2422993.73843  24040947.2274                   24040948.2894
  -7904631.34847  -6150760.87146  21157431.9384                   21157429.3794
 11  8 12 21 41 30.0000000  0  7G17G08G04G26G20G24G28
 -18874766.63748 -14682212.98047  20822503.1254   20822500.8204
   5383359.77747   4210639.05545  22382721.0554                   22382721.8834
 -10661872.83248  -8296456.55546  21372810.3204                   21372809.6804
   2094804.63346   1641792.36344  24622032.8674                   24622036.7814
   7709556.15246   6013675.46143  24281055.3204                   24281054.2974
   3155603.57446   2474630.12543  24053557.7814                   24053557.8524
  -7933588.57047  -6173324.96546  21151921.9774                   21151918.9574
 11  8 12 21 42  0.0000000  0  8G17G09G08G04G26G20G24G28
 -18894553.99648 -14697631.70746  20818737.5704   20818735.2774
  10789854.48456   8418399.54754  24165574.9534                   24165575.6954
   5460746.18447   4270940.03545  22397446.6884                   22397447.9144
 -10779097.88748  -8387800.68746  21350502.2584                   21350501.9884
   2142269.84046   1678778.06343  24631065.5704                   24631068.2584
   7649683.78146   5967021.67643  24269661.4774                   24269661.0004
   3222116.50046   2526458.34843  24066214.7424                   24066214.7664
  -7962314.28947  -6195708.65646  21146455.3914                   21146452.5044
 11  8 12 21 42 30.0000000  0  8G17G09G08G04G26G20G24G28
 -18914139.58648 -14712893.22746  20815010.5634   20815008.0164
  10658642.25446   8316156.32443  24140606.6954                   24140607.1484
   5538409.56647   4331456.82444  22412226.1334                   22412227.2854
 -10895952.13748  -8478855.87146  21328266.3284                   21328265.6484
   2189790.20347   1715806.74244  24640108.1484                   24640111.8324
   7590157.16846   5920637.35943  24258334.0704                   24258333.4574
   3288860.48846   2578466.61743  24078915.9454                   24078915.5594
  -7990819.25448  -6217920.33646  21141030.9614                   21141028.1954
 11  8 12 21 43  0.0000000  0  8G17G09G08G04G26G20G24G28
 -18933525.23448 -14727998.93046  20811321.5864   20811319.6334
  10527714.17247   8214134.52043  24115691.6254                   24115692.4774
   5616346.37547   4392186.68444  22427057.0234                   22427057.6134
 -11012433.56648  -8569620.54746  21306100.2504                   21306099.5314
   2237361.81646   1752875.35543  24649160.7114                   24649164.8094
   7530978.18446   5874523.91443  24247073.2114                   24247072.4064
   3355832.44547   2630652.50043  24091660.6564                   24091660.0664
  -8019102.61748  -6239959.32446  21135649.0554                   21135646.4304
 11  8 12 21 43 30.0000000  0  8G17G09G08G04G26G20G24G28
 -18952710.27048 -14742948.31246  20807670.7504   20807668.5944
  10397075.11347   8112337.94144  24090831.7274                   24090832.3134
   5694555.37147   4453128.64545  22441939.8134                   22441940.2774
 -11128537.47748  -8660091.05146  21284006.5554                   21284005.6644
   2284983.69546   1789983.12144  24658223.2584                   24658227.0394
   7472150.95746   5828684.56343  24235878.4454                   24235878.1414
   3423031.60546   2683015.45343  24104447.5394                   24104447.5354
  -8047160.74248  -6261822.80146  21130309.7664                   21130306.7624
 11  8 12 21 44  0.0000000  0  8G17G09G08G04G26G20G24G28
 -18971690.77748 -14757738.32046  20804058.9614   20804056.4304
  10266733.14147   8010772.85544  24066028.5944                   24066028.6414
   5773038.56347   4514284.26644  22456874.9694                   22456875.7274
 -11244256.42648  -8750261.59846  21261985.7974                   21261985.1724
   2332657.58247   1827131.43043  24667295.5864                   24667299.0164
   7413682.78546   5783124.99643  24224751.6954                   24224752.1254
   3490460.48846   2735557.41043  24117279.3134                   24117278.9454
  -8074987.38348  -6283505.90646  21125014.2894                   21125011.7974
 11  8 12 21 44 30.0000000  0  8G17G09G08G04G26G20G24G28
 -18990464.53548 -14772367.22746  20800486.4384   20800484.0784
  10136694.85946   7909444.42244  24041283.0634                   24041283.7304
   5851796.59447   4575654.05145  22471862.2344                   22471863.0434
 -11359584.40648  -8840127.48846  21240039.5394                   21240038.9104
   2380383.74646   1864320.44143  24676377.6954                   24676381.7934
   7355579.39846   5737849.69943  24213694.8444                   24213694.4734
   3558119.60246   2788278.75443  24130154.2424                   24130154.1134
  -8102577.30948  -6305004.55146  21119764.4454                   21119761.6024
 11  8 12 21 45  0.0000000  0  8G17G09G08G04G26G20G24G28
 -19009031.09848 -14786834.67646  20796953.2274   20796951.0314
  10006964.86746   7808356.22343  24016595.5084                   24016596.3164
   5930828.02047   4637236.87545  22486901.1954                   22486902.1764
 -11474517.35548  -8929685.56246  21218168.6644                   21218167.9614
   2428160.74646   1901549.09043  24685469.9064                   24685473.3134
   7297844.19546   5692861.28543  24202707.4454                   24202707.8714
   3626008.00846   2841178.75843  24143073.0314                   24143073.2774
  -8129928.13348  -6326316.89546  21114559.5314                   21114557.0124
 11  8 12 21 45 30.0000000  0  8G17G09G08G04G26G20G24G28
 -19027396.11348 -14801145.08246  20793458.5474   20793456.4734
   9877541.99246   7707507.34443  23991967.4454                   23991967.6374
   6010125.58247   4699027.07045  22501991.0314                   22501992.3914
 -11589056.99648  -9018937.18046  21196372.5314                   21196371.6644
   2475981.17646   1938811.59043  24694569.6804                   24694572.4804
   7240475.09046   5648158.15643  24191791.6804                   24191791.1294
   3694118.78546   2894252.02743  24156033.9224                   24156034.5084
  -8157042.30148  -6347444.81246  21109400.0084                   21109397.1564
 11  8 12 21 46  0.0000000  0  8G17G09G08G04G26G20G24G28
 -19045558.25448 -14815297.40246  20790002.1254   20790000.1454
   9748432.00846   7606902.23443  23967399.1334                   23967398.8244
   6089689.33647   4761024.66445  22517131.6884                   22517133.0984
 -11703197.59048  -9107877.84846  21174652.0634                   21174651.3634
   2523844.77746   1976107.71543  24703677.8594                   24703681.6334
   7183477.20345   5603744.25843  24180945.5164                   24180944.0594
   3762452.38346   2947498.91843  24169037.7584                   24169037.7664
  -8183915.52048  -6368384.98446  21104285.9774                   21104283.4344
 11  8 12 21 46 30.0000000  0  8G17G09G08G04G26G20G24G28
 -19063522.59848 -14829295.58646  20786583.8594   20786581.9614
   9619633.66846   7506539.92243  23942888.5234                   23942888.5124
   6169511.66047   4823223.74644  22532321.9384                   22532322.5864
 -11816941.23848  -9196509.20346  21153007.6484                   21153006.3554
   2571744.22346   2013431.79743  24712792.6414                   24712796.4734
   7126848.38746   5559618.00443  24170168.6094                   24170168.1884
   3831001.65646   3000913.88343  24182081.5864                   24182082.5824
  -8210550.54748  -6389139.55546  21099217.5164                   21099214.9884
 11  8 12 21 47  0.0000000  0  8G17G09G08G04G26G20G24G28
 -19081289.72748 -14843140.09846  20783202.8754   20783200.8524
   9491151.29746   7406423.90643  23918439.6094                   23918438.4964
   6249590.37947   4885622.61744  22547560.0634                   22547561.4264
 -11930284.71548  -9284828.74646  21131438.6024                   21131437.8794
   2619676.95346   2050781.81343  24721914.0554                   24721917.9224
   7070591.46146   5515781.50443  24159463.7504                   24159463.3794
   3899764.75846   3054495.46143  24195167.4454                   24195168.2624
  -8236944.85948  -6409706.54746  21094195.1174                   21094192.5984
 11  8 12 21 47 30.0000000  0  8G17G09G08G04G26G20G24G28
 -19098860.30948 -14856831.44946  20779859.3364   20779856.9774
   9362988.39146   7306556.75843  23894050.8054                   23894050.1454
   6329923.12147   4948219.43444  22562846.8444                   22562848.0554
 -12043224.78548  -9372833.93746  21109946.9774                   21109945.7624
   2667640.52746   2088155.80943  24731041.2664                   24731046.1254
   7014708.87145   5472236.70343  24148829.8054                   24148829.1214
   3968739.49246   3108241.94143  24208292.4064                   24208293.6374
  -8263097.09448  -6430084.91446  21089218.3444                   21089215.7114
 11  8 12 21 48  0.0000000  0  9G17G09G08G02G04G26G20G24G28
 -19116243.33648 -14870376.66046  20776551.6334   20776549.5594
   9235140.25446   7206934.85943  23869721.8914                   23869721.9734
   6410499.29347   5011005.91844  22578180.2814                   22578181.3714
  10787892.83656   8416880.47353  24648049.7584                   24648053.4494
 -12155766.85948  -9460529.00846  21088530.9534                   21088529.8634
   2715624.01246   2125545.34442  24740172.7344                   24740176.2934
   6959195.41046   5428979.52343  24138266.3594                   24138265.3984
   4037915.38346   3162145.16843  24221456.9774                   24221457.2934
  -8289013.35548  -6450279.41046  21084287.0784                   21084283.9104
 11  8 12 21 48 30.0000000  0  9G17G09G08G02G04G26G20G24G28
 -19133449.10548 -14883783.75046  20773277.3444   20773275.1844
   9107600.75846   7107553.44943  23845452.5234                   23845451.6764
   6491306.59447   5073972.52744  22593557.6484                   22593558.3874
  10655276.73446   8313543.70743  24622813.1804                   24622816.9264
 -12267917.41448  -9547918.99646  21067189.3134                   21067188.3054
   2763615.35546   2162941.01642  24749304.5634                   24749308.7544
   6904044.09845   5386004.52043  24127770.3674                   24127770.1724
   4107280.94946   3216196.20743  24234656.5704                   24234656.9654
  -8314701.20348  -6470295.92246  21079398.3204                   21079395.7774
 11  8 12 21 49  0.0000000  0  9G17G09G08G02G04G26G20G24G28
 -19150482.37948 -14897056.42646  20770035.8674   20770033.7774
   8980369.23446   7008412.06643  23821240.9064                   23821241.4184
   6572338.59847   5137114.22344  22608977.5314                   22608978.3524
  10522686.94547   8210227.44544  24597581.8984                   24597585.5744
 -12379677.88348  -9635005.02346  21045921.6334                   21045921.2814
   2811607.82446   2200337.53143  24758437.7424                   24758442.5084
   6849253.05146   5343310.24643  24117344.5704                   24117343.8674
   4176829.89846   3270390.11343  24247891.7194                   24247891.8164
  -8340162.90248  -6490136.22346  21074552.9924                   21074550.6724
 11  8 12 21 49 30.0000000  0  9G17G09G08G02G04G26G20G24G28
 -19167336.84048 -14910189.76646  20766828.6724   20766826.4924
   8853456.14146   6909518.85243  23797089.8524                   23797090.4104
   6653599.44147   5200434.22344  22624440.8984                   22624442.3324
  10390132.91046   8106939.06643  24572356.6954                   24572361.0234
 -12491038.30948  -9721779.31646  21024730.4454                   21024729.8244
   2859605.69946   2237738.23443  24767571.1954                   24767576.0784
   6794831.65246   5300904.01643  24106988.1954                   24106988.5664
   4246566.99646   3324730.68043  24261162.0704                   24261162.3054
  -8365389.75448  -6509793.51646  21069752.7114                   21069749.9454
 11  8 12 21 50  0.0000000  0  9G17G09G08G02G04G26G20G24G28
 -19184010.59448 -14923182.29746  20763655.6414   20763653.5664
   8726868.46947   6810879.14543  23773001.4224                   23773000.8284
   6735089.99647   5263933.23444  22639948.1334                   22639949.3834
  10257620.65647   8003683.18844  24547140.8754                   24547144.7544
 -12601992.35248  -9808236.95346  21003616.5704                   21003615.9574
   2907609.73446   2275143.71543  24776706.8834                   24776711.4414
   6740785.73446   5258790.36743  24096703.4384                   24096702.9964
   4316493.18846   3379218.57043  24274468.7894                   24274469.3674
  -8390376.34448  -6529263.59446  21064997.8834                   21064995.0704
 11  8 12 21 50 30.0000000  0  9G17G09G08G02G04G26G20G24G28
 -19200500.45348 -14936031.53946  20760517.9144   20760515.5594
   8600613.19547   6712498.49244  23748975.9534                   23748975.8094
   6816811.16847   5327611.92244  22655498.5394                   22655500.2974
  10125155.65247   7900464.13744  24521933.1484                   24521936.2854
 -12712533.77748  -9894373.07446  20982581.3754                   20982580.7584
   2955620.48446   2312554.48043  24785843.4534                   24785848.1994
   6687121.43046   5216974.10543  24086491.6644                   24086491.0514
   4386610.04346   3433855.05143  24287812.0004                   24287811.9414
  -8415117.29348  -6548542.26646  21060290.0164                   21060287.1484
 11  8 12 21 51  0.0000000  0  9G17G09G08G02G04G26G20G24G28
 -19216805.18048 -14948736.52346  20757415.1724   20757412.6024
   8474695.95746   6614381.22744  23725014.1564                   23725014.1454
   6898762.42647   5391469.89144  22671094.0084                   22671096.0944
   9992742.51647   7797285.44144  24496735.8134                   24496738.6024
 -12822657.60548  -9980183.80946  20961625.4384                   20961624.7814
   3003637.74646   2349970.28944  24794980.9534                   24794985.2664
   6633843.27346   5175458.75043  24076353.1884                   24076352.5664
   4456917.21546   3488639.82443  24301190.2114                   24301191.0704
  -8439608.81648  -6567626.58646  21055629.2584                   21055626.6054
 11  8 12 21 51 30.0000000  0  9G17G09G08G02G04G26G20G24G28
 -19232919.25448 -14961292.96146  20754348.5944   20754346.6414
   8349126.23446   6516534.74644  23701119.2274                   23701118.8404
   6980947.54747   5455510.07444  22686733.3444                   22686735.0394
   9860390.07447   7694154.03944  24471549.2504                   24471552.4454
 -12932354.87948 -10065662.14546  20940750.8834                   20940750.1094
   3051664.94546   2387393.83644  24804120.5554                   24804124.9344
   6580959.60546   5134250.75043  24066289.2814                   24066289.5164
   4527418.52346   3543575.83243  24314606.6484                   24314606.9064
  -8463842.83248  -6586510.24646  21051017.4144                   21051015.0634
 11  8 12 21 52  0.0000000  0  9G17G09G08G02G04G26G20G24G28
 -19248847.46148 -14973704.54746  20751317.7504   20751315.4104
   8223903.55147   6418958.71543  23677289.9694                   23677289.6334
   7063359.80147   5519727.26244  22702416.2344                   22702418.1914
   9728096.94147   7591068.85244  24446374.4144                   24446377.4224
 -13041626.82848 -10150809.06646  20919956.6804                   20919956.0314
   3099695.61346   2424820.10543  24813260.1954                   24813264.6524
   6528468.83246   5093348.91443  24056300.7034                   24056300.4384
   4598108.03746   3598658.62143  24328058.1174                   24328058.7274
  -8487821.14548  -6605194.64846  21046455.0394                   21046452.2974
 11  8 12 21 52 30.0000000  0  9G17G09G08G02G04G26G20G24G28
 -19264586.16448 -14985968.47346  20748322.6724   20748320.5004
   8099035.44546   6321658.98044  23653528.8054                   23653528.4414
   7146000.74647   5584122.64844  22718142.6484                   22718144.0164
   9595870.15247   7488035.36344  24421212.7734                   24421215.2704
 -13150466.22748 -10235618.93046  20899245.3364                   20899245.0044
   3147731.31346   2462250.27344  24822401.5864                   24822406.3794
   6476377.44146   5052758.29743  24046388.0784                   24046388.0004
   4668987.77946   3653889.48843  24341546.2424                   24341546.4224
  -8511537.99248  -6623675.31646  21041941.6644                   21041939.0824
 11  8 12 21 53  0.0000000  0  9G17G09G08G02G04G26G20G24G28
 -19280137.42248 -14998086.34446  20745363.3754   20745361.3364
   7974524.44146   6224637.49643  23629835.0314                   23629834.4924
   7228866.89147   5648693.51244  22733911.8204                   22733913.1334
   9463710.66846   7385054.30943  24396062.7424                   24396065.7734
 -13258871.46148 -10320090.48846  20878616.5004                   20878615.5634
   3195768.37147   2499681.50044  24831542.9224                   24831546.9774
   6424686.87546   5012479.99643  24036551.4304                   24036551.1764
   4740054.32446   3709265.99643  24355069.9694                   24355070.6334
  -8534992.70748  -6641951.72346  21037478.6024                   21037475.7584
 11  8 12 21 53 30.0000000  0  9G17G09G08G02G04G26G20G24G28
 -19295498.58648 -15010056.08246  20742440.2814   20742438.1684
   7850377.18846   6127899.46943  23606210.2814                   23606210.3834
   7311958.57447   5713440.12944  22749723.2974                   22749724.7774
   9331624.18446   7282130.16443  24370926.9144                   24370929.5824
 -13366836.68748 -10404219.18446  20858071.3054                   20858070.4774
   3243807.01647   2537113.96944  24840684.9224                   24840689.3554
   6373403.16046   4972518.69143  24026792.7424                   24026791.6644
   4811308.72746   3764788.83643  24368629.2194                   24368629.5314
  -8558180.20748  -6660019.91046  21033066.2894                   21033063.2074
 11  8 12 21 54  0.0000000  0  9G17G09G08G02G04G26G20G24G28
 -19310671.56248 -15021879.18746  20739553.2424   20739550.8634
   7726596.27046   6031446.93443  23582655.3674                   23582655.4304
   7395272.22747   5778359.72344  22765577.3284                   22765579.4224
   9199612.43046   7179264.20343  24345806.0704                   24345808.4694
 -13474359.83648 -10488003.39546  20837610.5704                   20837609.2424
   3291844.41447   2574545.45744  24849826.0234                   24849830.7034
   6322527.52746   4932875.41443  24017111.4454                   24017111.0594
   4882748.31646   3820456.02043  24382223.4454                   24382224.7584
  -8581099.27748  -6677878.93446  21028704.8444                   21028701.9884
 11  8 12 21 54 30.0000000  0  9G17G09G08G02G04G26G20G24G28
 -19325652.44548 -15033552.59446  20736702.2814   20736699.9844
   7603189.96846   5935286.22343  23559171.5704                   23559171.3984
   7478810.12947   5843454.03144  22781474.5164                   22781475.4884
   9067682.59046   7076462.07443  24320700.2114                   24320702.5904
 -13581433.58147 -10571437.47746  20817235.2034                   20817234.2154
   3339882.16847   2611977.22344  24858967.2814                   24858972.6764
   6272066.83246   4893555.44143  24007509.2504                   24007508.4534
   4954375.27045   3876269.19543  24395853.6564                   24395854.2774
  -8603743.35848  -6695523.71946  21024395.7504                   21024392.7034
 11  8 12 21 55  0.0000000  0  9G17G09G08G02G04G26G20G24G28
 -19340439.37948 -15045074.87946  20733888.5864   20733886.2814
   7480164.05946   5839422.00443  23535759.7034                   23535759.7424
   7562572.04747   5908722.89844  22797413.7584                   22797415.3954
   8935839.39546   6973727.44943  24295611.2894                   24295613.0234
 -13688053.02347 -10654517.46946  20796946.1884                   20796945.0124
   3387920.27346   2649409.25444  24868108.9304                   24868114.0004
   6222025.58646   4854562.35243  23997986.1804                   23997985.8444
   5026189.64846   3932228.41843  24409519.4614                   24409520.0044
  -8626108.74648  -6712951.26646  21020139.7274                   21020136.9774
 11  8 12 21 55 30.0000000  0  9G17G09G08G02G04G26G20G24G28
 -17779617.04347 -13828849.68446  21030903.1954   21030900.9924
   8932942.10946   6971456.93843  23812215.1884                   23812214.8834
   9221968.55947   7201758.96544  23113186.5944                   23113188.5664
  10379506.03947   8098662.86343  24570331.8674                   24570333.8594
 -12218795.49647  -9509641.42246  21076536.2274                   21076535.2074
   5011370.53946   3914435.18444  25177041.0864                   25177046.9064
   7747823.87946   6043496.16443  24288335.8914                   24288335.1994
   6673602.71546   5215926.89143  24723011.7974                   24723012.2304
  -7072776.83648  -5502562.77746  21315728.9844                   21315726.2114
 11  8 12 21 56  0.0000000  0  9G17G09G08G02G04G26G20G24G28
 -17794021.60948 -13840074.01246  21028162.1414   21028159.8284
   8810683.96147   6876190.92243  23788950.2894                   23788949.1844
   9306167.74647   7267368.54744  23129209.3524                   23129211.1604
  10247840.74247   7996066.88744  24545276.1414                   24545278.6994
 -12324500.80148  -9592009.14846  21056421.6414                   21056420.5234
   5059398.27046   3951859.12143  25186180.4534                   25186186.1454
   7698625.56346   6005159.86743  24278973.0864                   24278973.2894
   6745782.34046   5272170.71543  24736747.1724                   24736747.7274
  -7094582.12148  -5519553.92246  21311579.5554                   21311576.4734
 11  8 12 21 56 30.0000000  0  9G17G09G08G02G04G26G20G24G28
 -17808231.05147 -13851146.31246  21025458.0864   21025455.8284
   8688819.62147   6781231.75043  23765760.1254                   23765759.1804
   9390586.22347   7333149.02044  23145273.8284                   23145275.6764
  10116273.07447   7893546.97343  24520239.5474                   24520241.3324
 -12429740.22747  -9674013.84446  21036394.8524                   21036393.7854
   5107422.08246   3989280.02043  25195319.4614                   25195325.1564
   7649857.05146   5967158.54743  24269693.9694                   24269692.9534
   6818146.58246   5328558.41443  24750517.9694                   24750518.4104
  -7116099.54748  -5536320.75446  21307485.0864                   21307482.2854
 11  8 12 21 57  0.0000000  0  9G17G09G08G02G04G26G20G24G28
 -17822246.19948 -13862067.19946  21022790.8284   21022788.7504
   8567352.52046   6686582.11743  23742645.6254                   23742644.7854
   9475221.58647   7399098.48044  23161379.8204                   23161381.1884
   9984805.49247   7791105.05944  24495222.2974                   24495223.4534
 -12534511.05548  -9755653.39546  21016457.5234                   21016457.0314
   5155439.34446   4026695.76643  25204457.0704                   25204462.7304
   7601520.58646   5929493.80943  24260494.9924                   24260494.6954
   6890693.11346   5385088.16443  24764322.8594                   24764323.5354
  -7137327.24248  -5552861.83246  21303445.2974                   21303442.6994
 11  8 12 21 57 30.0000000  0  8G17G09G08G02G04G26G20G28
 -17836066.87948 -13872836.55946  21020161.0634   21020158.7304
   8446287.25046   6592245.62143  23719607.3134                   23719607.2424
   9560072.05147   7465215.55144  23177526.3284                   23177528.1764
   9853441.40647   7688743.80944  24470224.1334                   24470225.5704
 -12638809.78548  -9836925.08646  20996610.1414                   20996609.0434
   5203448.32045   4064105.12542  25213593.4064                   25213598.2894
   7553619.14846   5892168.06343  24251379.8364                   24251379.2234
  -7158262.58248  -5569175.09846  21299461.5314                   21299458.9964
 11  8 12 21 58  0.0000000  0  8G17G09G08G02G04G26G20G28
 -17849689.73848 -13883451.77746  21017568.7734   21017566.4184
   8325631.45747   6498228.15243  23696646.9774                   23696646.7934
   9645139.19947   7531501.47744  23193714.0634                   23193715.8094
   9722187.28547   7586468.25844  24445246.5004                   24445248.5124
 -12742629.41848  -9917823.45746  20976853.8284                   20976852.6644
   5251450.93445   4101509.41443  25222728.4614                   25222733.3634
   7506159.24247   5855186.38343  24242348.6414                   24242347.9104
  -7178899.84048  -5585256.09846  21295534.4534                   21295531.7034
 11  8 12 21 58 30.0000000  0  7G17G09G08G02G04G20G28
 -17863103.91448 -13893904.38346  21015015.8834   21015013.6684
   8205399.77047   6404541.18843  23673768.1484                   23673767.8284
   9730431.98447   7597963.21544  23209944.9064                   23209946.2424
   9591057.34047   7484289.44944  24420293.5944                   24420295.0474
 -12845956.01648  -9998337.64146  20957191.2344                   20957190.1374
   7459154.61347   5818559.48043  24233403.7114                   24233403.4614
  -7199225.14548  -5601094.01246  21291666.7194                   21291663.5944
 11  8 12 21 59  0.0000000  0  7G17G09G08G02G04G20G28
 -17876299.73048 -13904186.83246  21012504.9224   21012502.8794
   8085606.10246   6311195.52744  23650971.6804                   23650971.8324
   9815958.40247   7664607.00444  23226220.3674                   23226222.2344
   9460064.29346   7382217.31644  24395365.5704                   24395367.0784
 -12948776.45348 -10078457.41846  20937625.2894                   20937624.6644
   7412617.52346   5782296.86343  24224547.8914                   24224547.6644
  -7219226.84848  -5616679.77346  21287860.7034                   21287857.5084
 11  8 12 21 59 30.0000000  0  7G17G09G08G02G04G20G28
 -17889275.55948 -13914297.87146  21010035.9454   21010033.7274
   7966255.94546   6218195.49243  23628259.5864                   23628260.1844
   9901717.78147   7731432.31644  23242539.7734                   23242541.4344
   9329212.84046   7280255.52744  24370465.2034                   24370467.3364
 -13051085.88748 -10158179.01246  20918156.2274                   20918155.4224
   7366552.75046   5746402.28943  24215782.5784                   24215781.1524
  -7238901.03948  -5632010.32846  21284116.3364                   21284113.8834
 11  8 12 22  0  0.0000000  0  7G17G09G08G02G04G20G28
 -17902038.28547 -13924242.85246  21007607.1024   21007604.8244
   7847346.63346   6125538.95744  23605631.7894                   23605632.6174
   9987701.63347   7798432.55944  23258902.2034                   23258903.4494
   9198499.67646   7178401.49244  24345591.1804                   24345592.4694
 -13152887.87948 -10237505.19146  20898784.1644                   20898783.3754
   7320956.37546   5710872.73043  24207105.8984                   24207104.2584
  -7258251.28148  -5647088.44946  21280434.6094                   21280431.5274
 11  8 12 22  0 30.0000000  0  7G17G09G08G02G04G20G28
 -17914597.81248 -13934029.50846  21005217.4144   21005214.8874
   7728872.11746   6033221.27044  23583087.3754                   23583087.8914
  10073897.77347   7865598.18444  23275304.9064                   23275306.4104
   9067917.44946   7076649.46944  24320742.3914                   24320743.5164
 -13254189.46548 -10316441.44146  20879506.9144                   20879505.9344
   7275820.57846   5675702.02043  24198516.5704                   24198515.7274
  -7277285.78148  -5661920.53546  21276812.3984                   21276809.2114
 11  8 12 22  1  0.0000000  0  7G17G09G08G02G04G20G28
 -17926960.76247 -13943662.98046  21002864.4774   21002862.2704
   7610830.35546   5941240.75844  23560624.6024                   23560624.9734
  10160298.25047   7932923.02344  23291746.1334                   23291748.5394
   8937463.19546   6974997.15244  24295917.1414                   24295918.1604
 -13354993.33648 -10394989.87146  20860324.6884                   20860323.7034
   7231142.13746   5640887.69143  24190014.1254                   24190013.6914
  -7296007.91048  -5676509.21546  21273249.7274                   21273246.4844
 11  8 12 22  1 30.0000000  0  7G17G09G08G02G04G20G28
 -17939138.46948 -13953152.10546  21000547.2344   21000544.8014
   7493213.60246   5849591.44544  23538242.7974                   23538243.3914
  10246889.26647   8000396.33644  23308224.3834                   23308226.0124
   8807128.91446   6873438.34044  24271114.8284                   24271116.1524
 -13455308.06648 -10473157.14146  20841235.1804                   20841234.2704
   7186912.41846   5606423.00043  24181597.4924                   24181596.5004
  -7314427.03548  -5690861.78946  21269744.7584                   21269741.5434
 11  8 12 22  2  0.0000000  0  7G17G09G08G02G04G20G28
 -17951137.12148 -13962501.70746  20998264.0314   20998261.9064
   7376019.82846   5758271.70344  23515941.4534                   23515942.3834
  10333662.60547   8068011.74644  23324736.7734                   23324738.7034
   8676910.89546   6771970.11744  24246334.5784                   24246335.7424
 -13555136.61748 -10550945.57446  20822238.4304                   20822237.5234
   7143127.56346   5572305.00043  24173265.0394                   24173264.8754
  -7332546.85948  -5704981.14846  21266296.3054                   21266293.3284
 11  8 12 22  2 30.0000000  0  7G17G09G08G02G04G20G28
 -17962957.75048 -13971712.59046  20996014.6334   20996012.0594
   7259252.20747   5667284.02344  23493721.4224                   23493721.8204
  10420615.88346   8135767.33243  23341283.8674                   23341285.9614
   8546811.68846   6670594.48444  24221577.4844                   24221578.8484
 -13654476.72348 -10628353.40246  20803334.8524                   20803333.5394
   7099789.70346   5538535.25443  24165018.8674                   24165018.0944
  -7350366.25448  -5718866.39546  21262905.2344                   21262902.7424
